GFSCGP_850_rhum_000.txt.gz
RH
19 25 23 18 17 14 16 17 18 20 25 48 57 60 60 66 64 65 64 60 56 51 54 53 56 55 55 69 72 65 64 77 82 80 66 64 66 64 49 40 40 41 36 36
25 24 19 25 26 25 26 29 34 32 34 47 50 52 50 53 61 67 66 67 63 63 65 68 75 80 80 80 68 58 60 62 61 63 62 55 39 35 37 37 40 38 40 40
26 20 22 26 30 31 34 28 28 39 42 42 44 50 53 49 61 63 62 60 57 52 58 65 65 63 55 51 46 42 41 40 39 37 39 43 43 42 42 44 42 43 44 42
30 28 26 28 29 31 31 28 33 45 44 51 38 70 46 53 62 63 60 57 52 49 51 49 47 40 36 36 37 39 39 43 43 44 46 49 52 51 50 48 47 47 50 54
30 28 30 29 26 28 32 30 32 31 38 39 42 62 51 56 65 65 62 57 52 46 44 41 39 41 40 44 45 46 48 48 49 51 52 54 55 54 53 50 50 56 58 54
31 26 27 26 28 26 29 38 45 51 52 60 44 54 60 67 62 62 58 55 50 48 45 42 45 44 45 46 48 48 50 52 52 53 55 56 57 57 54 55 56 59 53 53
32 31 28 26 29 29 38 44 64 58 69 71 49 52 51 48 52 54 55 51 50 49 46 48 49 48 48 48 49 50 52 54 56 57 58 60 57 51 52 59 61 65 67 62
43 45 28 25 27 31 33 43 65 57 78 61 46 58 51 43 39 42 42 46 52 53 56 57 51 47 50 51 53 56 57 57 57 61 61 55 47 40 41 50 51 50 48 57
43 36 27 25 26 30 34 44 40 69 67 67 65 47 43 52 52 47 47 51 55 58 56 55 54 53 53 53 53 50 45 46 51 49 45 33 26 23 21 18 16 14 12 21
39 35 30 25 29 31 30 37 43 66 54 64 64 58 64 56 58 55 55 52 55 58 55 55 55 54 53 52 47 44 41 42 43 40 37 33 25 21 18 14 11 5 4 57
36 39 37 31 36 37 38 40 55 58 69 68 81 68 51 53 55 54 52 51 54 56 56 55 55 55 52 48 45 41 40 43 42 37 30 25 25 21 17 12 9 10 40 71
41 53 62 34 32 36 32 36 41 57 44 85 82 56 55 58 47 43 57 59 60 58 55 56 55 52 46 42 38 40 42 41 35 31 28 32 33 29 21 18 17 22 51 74
42 56 70 50 37 34 33 46 55 59 72 70 76 55 62 65 65 61 66 64 61 57 57 56 53 46 40 38 40 42 42 35 32 30 35 35 37 34 31 28 26 33 69 77
42 57 49 57 42 43 34 44 47 45 69 63 70 40 61 70 74 75 70 64 61 59 57 53 44 40 37 40 56 41 35 32 32 34 38 40 42 40 35 33 39 46 75 93
48 51 50 58 60 44 34 35 54 47 46 51 47 52 43 68 74 72 65 63 62 62 54 45 41 38 44 50 36 34 33 33 34 37 40 43 46 44 37 49 49 52 73 84
62 69 57 62 70 66 46 41 45 50 46 58 54 55 62 62 62 68 65 64 63 60 51 43 43 40 36 33 32 32 32 34 37 39 42 48 50 41 48 55 59 69 95 86
69 87 56 43 74 60 50 46 49 46 47 52 65 51 74 78 71 67 64 63 60 58 48 41 38 36 36 32 31 32 34 36 39 41 47 52 47 52 53 64 70 81 91 80
93 86 79 73 68 44 35 41 46 47 53 63 61 66 70 67 68 59 58 58 58 56 46 37 36 37 34 30 31 33 36 39 41 46 52 46 57 67 57 60 73 83 82 78
68 85 94 68 73 45 30 62 64 57 49 72 66 72 70 67 67 65 60 56 56 53 42 39 38 34 29 28 31 36 39 41 47 50 43 58 70 72 61 54 74 72 73 74
80 81 70 89 52 41 36 43 46 42 69 65 63 72 72 71 90 66 50 52 57 48 42 38 32 31 29 32 37 38 37 46 39 42 58 65 73 74 67 59 74 63 64 63
98 98 76 100 74 63 45 47 42 63 57 66 56 55 68 78 59 52 51 53 58 51 51 33 33 31 35 40 34 34 34 29 34 38 41 59 78 80 69 59 66 64 59 58
90 91 98 96 88 53 41 49 59 54 36 36 47 49 54 49 60 57 53 58 58 59 36 36 34 40 38 29 26 25 28 32 35 37 40 52 68 81 81 61 59 51 64 65
70 64 75 67 68 43 41 48 39 41 36 36 40 38 48 57 63 61 57 58 53 40 38 38 42 34 22 20 25 29 32 36 36 38 44 56 68 82 89 60 52 55 70 70
70 59 78 66 48 55 41 36 39 40 40 42 44 45 48 61 67 68 64 46 41 40 65 40 27 20 19 24 28 33 34 34 35 43 56 62 78 88 94 66 57 66 77 88
69 67 69 76 62 50 41 40 39 44 48 48 50 56 62 70 71 67 52 60 53 88 35 23 19 20 25 30 33 34 36 35 39 52 68 80 91 95 95 92 71 80 88 86
65 68 79 75 35 42 38 38 42 45 48 48 63 71 76 75 68 50 70 64 78 29 22 19 22 27 31 33 37 39 37 42 56 61 97 93 91 100 100 95 95 94 92 84

GFSCGP_850_rhum_003.txt.gz
RH
19 18 19 18 16 14 16 17 18 20 33 42 51 53 55 62 62 65 66 60 55 51 51 54 57 56 53 57 62 61 65 75 65 62 63 64 59 57 46 31 31 34 36 38
22 24 21 28 26 25 26 28 34 34 35 39 45 55 54 57 65 68 66 67 60 61 67 68 69 71 70 68 73 68 62 55 54 57 56 56 44 31 37 38 38 40 41 44
27 22 25 27 29 31 32 31 35 34 36 35 38 47 57 57 65 69 71 72 74 75 85 90 79 63 54 51 52 48 45 54 50 41 41 43 45 43 43 45 46 45 46 48
30 28 25 27 30 29 34 32 37 39 36 36 34 38 55 58 62 62 66 68 70 72 72 66 53 47 42 37 38 40 41 42 44 45 46 48 50 50 49 48 47 48 53 55
31 28 28 30 28 30 35 37 33 32 32 32 37 37 44 55 63 60 61 65 63 60 54 46 41 36 36 40 43 45 46 47 48 49 50 51 52 53 54 52 53 54 56 56
32 27 28 27 32 31 38 37 40 43 40 43 38 34 41 56 53 55 58 62 55 47 41 40 39 40 44 46 47 47 49 50 52 52 53 54 54 54 53 49 45 42 41 36
31 31 28 27 31 30 34 38 48 49 54 47 46 44 34 38 45 47 51 54 50 46 43 46 45 46 46 46 46 47 50 52 56 61 59 57 56 45 27 20 16 12 10 9
34 37 27 28 29 32 36 37 53 57 60 45 45 48 33 36 39 44 47 51 49 49 50 50 48 46 45 47 50 53 57 58 54 51 44 40 29 23 17 12 8 6 5 3
41 36 27 28 28 29 33 36 40 58 60 54 46 42 34 42 40 49 53 53 56 52 53 53 52 51 54 56 58 55 47 44 46 44 38 30 25 23 21 17 12 8 7 8
39 36 31 29 30 33 31 35 39 47 56 54 45 51 40 49 43 44 51 53 54 52 54 57 58 59 60 57 50 49 48 44 44 42 32 26 24 25 22 22 14 11 11 15
35 40 38 33 34 34 35 38 50 45 53 42 48 37 43 43 40 43 44 54 49 53 57 60 60 60 55 49 48 48 46 44 43 34 29 29 32 32 34 24 15 16 22 35
41 51 51 34 33 36 32 36 38 44 39 62 61 36 48 52 46 47 47 48 50 54 59 60 60 56 49 45 41 39 45 44 36 31 31 34 38 39 37 26 21 29 36 54
43 51 56 39 30 32 35 42 45 52 62 62 73 33 50 60 55 50 50 52 54 59 59 58 56 51 44 36 45 51 46 38 31 31 34 37 40 44 42 29 32 42 45 52
39 51 46 46 36 40 41 47 44 40 52 51 58 37 34 48 54 63 63 58 59 58 55 56 54 50 40 37 47 38 35 32 31 33 36 39 44 48 44 33 38 47 52 61
45 48 51 57 56 46 34 44 45 37 40 46 40 43 33 38 48 60 68 65 57 55 56 56 54 44 35 48 39 32 32 30 32 35 38 42 48 50 42 38 41 54 59 79
58 61 56 62 62 57 48 39 43 49 47 42 46 45 36 52 60 67 66 61 60 56 56 56 48 41 36 38 34 31 31 31 34 37 39 43 51 51 40 46 47 57 71 91
61 77 53 48 63 50 49 47 42 47 44 43 53 37 58 62 62 60 66 63 58 55 56 54 48 42 38 37 33 30 31 33 35 38 39 44 52 45 52 54 53 56 73 85
77 65 64 64 66 46 31 44 40 41 41 42 48 48 54 57 58 55 54 52 54 54 56 54 47 41 37 37 30 29 31 33 37 38 40 51 45 54 64 59 58 56 70 69
60 72 77 70 56 41 26 41 55 54 37 46 46 50 66 68 63 58 51 51 50 53 54 52 42 37 37 34 27 27 30 37 36 37 39 38 51 58 71 67 64 56 67 63
68 73 65 72 50 46 34 33 51 42 53 43 55 63 73 68 74 47 41 50 54 58 58 49 38 37 33 28 25 30 40 35 29 29 31 38 45 56 72 76 72 56 62 60
93 92 71 77 69 56 40 45 44 49 44 46 52 51 70 65 50 39 40 46 54 58 53 41 44 33 29 28 36 44 32 24 27 32 36 38 42 48 65 73 77 61 59 49
71 80 82 83 73 57 39 50 57 48 40 33 39 38 47 36 41 51 50 50 55 60 48 60 45 29 32 43 41 26 22 27 32 35 33 31 34 47 55 69 80 65 51 55
67 63 67 61 62 39 37 45 36 42 41 39 39 36 43 49 55 59 58 55 56 54 56 36 34 41 43 32 23 22 26 32 34 32 29 31 40 55 64 78 85 69 58 70
68 59 67 63 46 52 40 38 36 35 38 38 40 44 49 52 59 64 60 57 53 43 40 71 78 38 26 21 23 27 32 35 35 33 34 41 52 68 84 90 91 73 71 77
66 65 67 69 58 46 36 33 33 38 40 42 46 48 52 62 69 73 65 51 45 62 88 74 32 25 22 24 27 31 33 34 34 39 50 49 86 89 94 96 98 93 76 88
67 65 74 72 34 41 36 38 47 50 50 51 54 57 65 74 77 72 51 49 83 96 53 31 24 24 26 26 33 35 35 36 44 56 67 99 100 100 100 100 100 94 88 93

GFSCGP_850_rhum_006.txt.gz
RH
17 13 12 12 10 10 9 11 10 14 24 23 25 25 28 37 40 42 41 42 44 52 68 68 64 75 79 88 82 61 62 62 74 57 63 65 65 57 54 36 37 40 43 42
16 16 17 18 14 12 11 11 17 22 25 22 25 32 32 34 40 41 42 45 50 64 72 85 86 86 87 84 83 84 73 82 70 67 64 61 63 50 35 40 41 45 46 48
12 20 20 16 16 16 18 16 22 16 25 23 24 30 34 41 44 49 47 48 55 62 72 83 89 91 91 90 90 84 77 67 65 54 46 41 41 44 53 57 56 53 48 50
20 21 19 18 19 22 19 21 21 25 22 20 24 22 35 40 45 46 52 54 60 68 74 79 84 89 87 89 85 72 64 55 41 43 48 48 55 55 53 56 62 65 64 51
25 21 20 19 23 24 25 24 23 22 21 23 24 22 34 39 45 47 51 56 62 67 67 68 68 69 65 57 56 50 41 42 43 46 48 52 55 60 62 64 62 63 60 62
22 23 20 22 25 23 26 25 25 24 24 29 21 24 21 37 34 42 47 51 55 56 53 49 51 50 50 58 41 43 44 47 48 49 52 53 47 45 43 38 35 30 27 26
22 23 21 22 26 26 25 24 28 28 32 32 32 29 18 22 29 36 43 44 50 49 42 42 45 45 53 60 51 52 52 52 54 57 48 39 37 34 30 24 28 24 28 30
21 30 22 23 22 22 25 23 25 33 38 22 33 26 18 24 27 34 39 40 44 44 45 46 45 49 57 61 59 54 57 58 52 44 40 37 29 26 31 28 24 40 41 46
23 26 23 25 23 22 27 28 27 39 46 40 23 24 24 27 28 33 34 37 40 42 47 48 54 57 62 62 62 62 55 46 43 42 49 29 27 29 28 35 39 40 45 53
26 30 25 25 24 26 24 24 32 34 45 39 24 30 23 33 31 31 32 37 37 40 46 54 59 62 62 67 63 53 47 44 60 59 33 30 33 36 33 28 22 24 32 52
22 26 31 28 26 24 28 26 28 28 38 29 24 14 26 27 29 32 34 36 37 42 49 58 62 66 66 64 52 49 46 53 48 36 30 33 35 35 33 41 32 25 22 65
28 30 40 28 27 27 24 23 20 24 29 42 49 20 26 32 32 29 32 36 39 46 51 58 63 70 70 56 49 43 46 44 38 33 32 34 34 36 43 55 56 52 59 67
31 34 40 34 30 27 27 26 23 31 40 38 58 17 26 32 35 34 33 34 44 50 56 59 63 65 58 49 41 45 47 42 34 31 34 34 37 43 61 62 64 64 72 83
31 35 33 36 25 26 33 30 25 21 33 25 30 14 18 23 28 31 37 37 46 54 56 56 56 53 48 42 47 48 43 32 31 32 34 42 40 51 64 67 68 71 78 85
35 38 35 34 35 31 26 26 28 25 24 29 16 19 14 17 20 25 37 44 47 53 55 54 50 47 43 42 48 47 37 31 32 32 39 48 46 55 69 71 67 68 82 88
42 47 46 48 41 36 34 25 26 26 24 27 20 23 16 22 30 34 42 47 48 50 52 53 51 46 43 41 47 42 32 31 32 34 39 46 48 54 69 66 68 73 77 81
49 59 46 40 47 44 60 37 25 24 24 27 27 21 25 30 34 34 40 46 47 48 51 52 52 48 41 40 38 37 34 31 32 34 38 36 39 55 62 64 66 67 72 79
60 50 55 59 58 79 20 28 27 24 22 21 23 25 26 27 36 42 41 44 48 48 50 52 53 50 43 38 40 38 34 31 31 36 38 39 55 58 57 60 66 70 73 74
42 49 70 85 42 29 14 23 28 32 19 22 22 22 30 47 49 41 45 46 47 51 52 55 55 51 45 38 39 36 29 29 31 39 45 43 47 53 53 55 66 72 73 70
46 51 46 64 86 85 26 27 42 35 29 28 34 34 43 48 54 21 36 32 43 55 57 58 55 48 40 38 41 41 29 32 42 39 37 47 51 53 55 60 70 76 77 77
75 80 81 63 82 41 26 33 41 37 30 34 41 39 46 45 33 43 32 46 50 57 61 60 56 40 38 57 51 25 30 42 33 23 33 51 53 56 61 70 76 78 77 79
56 68 86 71 91 76 30 42 48 34 43 42 43 42 48 45 52 55 49 47 53 61 59 56 43 40 64 45 28 41 42 34 21 27 30 56 56 50 70 79 78 83 83 80
53 48 48 44 38 34 36 36 39 46 45 43 47 42 50 50 50 57 57 53 56 52 44 41 43 50 33 42 42 32 32 21 23 25 35 46 64 71 84 86 87 84 83 82
49 48 53 52 32 33 35 37 39 41 45 44 44 47 53 56 55 61 62 54 50 44 43 44 44 56 67 70 50 22 22 23 28 32 37 64 65 41 86 89 87 86 85 89
50 50 48 48 38 36 37 41 42 43 49 52 53 59 63 67 66 68 59 51 46 46 57 91 99 97 80 40 26 26 28 32 35 37 48 63 80 87 97 95 94 90 93 88
50 42 55 51 29 39 36 41 51 55 54 60 68 68 78 74 76 68 55 57 91 96 100 99 88 74 45 28 29 32 34 34 34 41 56 88 90 98 100 100 100 100 96 92

GFSCGP_850_rhum_009.txt.gz
RH
17 16 16 13 11 11 10 8 8 8 8 8 12 12 15 19 19 22 25 31 36 39 44 52 47 48 55 69 75 84 81 83 77 67 61 61 60 62 61 60 41 46 50 62
16 20 15 11 10 9 9 10 11 11 12 16 13 16 16 18 20 23 24 26 30 37 50 54 59 58 60 72 77 78 80 79 63 59 54 57 58 58 53 56 49 58 66 64
15 14 14 13 11 10 10 10 15 15 16 15 13 20 23 21 25 28 28 28 31 40 50 62 67 68 70 75 76 75 71 65 57 60 58 53 42 49 54 54 54 64 72 71
18 16 14 11 11 13 14 14 14 14 18 18 12 21 21 26 27 28 30 32 36 42 52 62 68 71 74 75 73 64 63 62 64 52 52 56 51 51 61 58 60 62 59 57
17 17 13 12 16 16 32 16 16 16 18 16 18 16 58 26 28 28 31 35 39 46 53 59 64 72 66 70 68 62 61 55 56 59 60 56 57 56 55 51 42 35 32 30
17 16 14 16 18 17 18 19 17 15 16 25 15 21 34 26 22 26 32 39 46 51 55 57 58 60 67 66 66 63 54 56 61 63 59 57 48 44 39 37 31 30 29 31
16 15 18 16 18 18 17 19 22 23 28 26 16 20 16 13 18 21 32 40 47 50 47 44 49 46 51 58 62 58 55 60 65 66 56 42 43 40 34 36 35 38 36 37
18 27 18 16 16 16 18 15 23 28 26 18 20 20 13 14 14 18 30 36 43 44 39 38 40 39 48 57 60 55 57 61 62 49 43 51 44 39 39 43 44 39 40 42
18 20 18 18 17 15 16 24 17 24 28 30 18 12 12 19 18 21 30 34 39 39 35 33 36 39 47 57 59 58 57 54 46 45 64 64 42 27 43 51 47 42 44 45
16 21 18 21 20 20 21 16 25 22 31 34 18 17 14 24 22 22 29 32 35 35 34 36 37 43 50 58 60 61 53 44 48 58 51 48 36 49 53 51 48 46 52 54
14 18 26 23 23 16 23 20 20 22 29 35 26 17 15 13 19 22 25 29 32 33 34 38 42 49 54 58 61 57 46 46 53 52 48 36 50 54 54 52 52 52 57 56
16 21 37 24 21 20 20 20 20 30 26 30 39 22 16 19 20 21 23 26 30 32 33 38 47 52 54 60 60 50 46 50 49 46 46 51 54 53 51 52 54 57 60 61
24 24 36 29 25 21 19 18 18 17 31 25 49 21 16 19 22 21 22 26 30 31 34 39 48 53 56 60 54 48 49 47 45 43 44 45 48 53 53 55 59 60 59 63
29 22 26 34 24 20 26 18 18 20 30 26 23 15 13 15 17 18 23 24 27 31 36 40 47 53 59 57 51 47 49 48 42 35 35 37 48 52 54 59 62 60 61 66
30 33 25 24 24 20 18 18 18 18 18 24 18 10 9 10 12 13 18 24 24 32 38 42 48 52 57 53 48 47 50 48 39 35 35 39 49 56 56 61 63 62 68 68
33 37 37 44 27 26 25 19 15 16 17 14 12 14 10 13 15 18 20 25 27 32 37 44 48 49 50 48 45 47 50 45 42 40 42 45 50 51 52 60 63 63 60 60
40 51 46 36 38 36 58 37 22 16 15 16 21 16 17 19 18 20 21 26 30 33 38 43 45 46 44 44 44 47 44 42 42 41 43 47 50 49 54 57 52 54 58 61
58 47 48 46 64 79 18 18 16 19 16 14 14 14 13 17 24 26 26 26 32 35 38 41 44 46 44 44 42 45 41 40 41 41 44 48 48 48 49 49 49 50 57 58
33 44 57 82 37 23 16 15 19 21 18 16 18 14 16 26 33 26 28 31 32 33 35 39 43 46 48 44 42 45 39 38 38 54 45 47 39 40 43 44 45 50 57 58
36 47 42 50 80 84 30 23 30 25 22 20 20 21 22 27 35 23 33 33 32 33 37 41 44 48 49 46 40 42 38 46 53 40 48 41 41 42 42 44 46 51 57 59
65 71 74 56 72 42 21 24 29 30 33 26 29 24 26 30 26 37 43 39 36 38 40 45 48 50 49 45 39 40 55 45 46 46 45 47 44 46 51 55 58 63 64 64
50 62 80 64 90 77 21 29 38 37 30 28 31 30 35 40 39 38 42 44 44 46 46 52 54 50 42 39 44 58 67 61 51 45 50 51 54 60 64 72 72 72 69 74
48 39 44 37 36 28 26 24 26 33 34 33 34 34 36 37 37 40 40 48 47 50 50 50 45 44 48 62 73 80 59 73 55 22 36 62 69 75 78 79 80 76 70 77
36 36 42 41 22 23 25 26 29 32 34 37 39 42 44 46 47 48 48 54 49 44 39 41 52 59 74 80 97 95 65 34 20 28 38 46 48 79 60 88 84 71 75 84
38 38 34 36 26 23 27 30 35 38 42 46 47 50 52 62 55 55 58 51 45 43 55 64 95 100 95 88 71 54 38 24 29 30 30 48 52 84 86 88 92 94 85 83
37 28 48 45 32 39 33 42 51 54 58 67 67 63 64 64 63 59 50 52 78 93 100 100 99 97 89 62 44 28 26 30 31 33 41 60 88 93 91 91 98 100 89 84

GFSCGP_850_rhum_012.txt.gz
RH
18 20 22 16 17 16 14 13 12 10 7 7 12 14 15 15 28 27 29 30 34 36 38 40 38 42 58 69 74 83 84 64 67 78 66 64 61 61 60 49 40 45 50 60
17 22 16 16 14 15 13 13 10 8 8 9 10 13 13 14 15 20 24 30 33 36 39 45 42 42 53 69 73 81 81 80 74 61 58 57 59 56 53 51 52 52 52 51
30 26 13 14 16 16 12 13 15 12 9 9 24 18 14 14 15 16 18 22 28 33 43 49 47 50 55 69 74 75 79 75 57 54 54 56 53 45 57 54 59 65 65 64
38 24 16 15 13 11 23 20 14 18 27 18 23 33 52 32 16 19 20 22 24 29 42 50 58 58 61 70 73 72 71 61 57 52 48 49 53 56 55 58 60 52 50 44
20 16 16 15 16 15 23 21 18 13 17 22 30 30 40 39 30 23 23 25 27 33 41 52 60 62 66 70 72 65 62 61 56 51 49 52 54 56 56 52 40 31 25 24
24 17 16 19 14 14 17 18 19 13 16 47 32 39 43 42 33 32 23 27 31 36 44 52 61 63 68 73 66 62 61 56 59 58 56 54 53 50 40 36 30 24 24 28
19 16 14 14 13 14 14 18 26 38 47 40 15 28 36 36 33 61 68 29 34 42 47 51 62 67 69 68 65 62 55 59 63 58 53 52 45 46 54 44 24 13 28 33
21 23 15 12 12 25 18 14 33 78 79 43 21 27 15 20 30 53 43 33 41 46 49 51 54 59 66 67 66 58 55 62 68 61 51 44 53 61 45 30 21 12 22 26
44 33 18 14 12 14 12 18 14 23 52 39 22 12 8 15 14 16 28 34 42 45 46 46 49 48 53 59 62 55 56 62 63 52 46 48 57 47 32 25 20 19 18 29
61 68 33 17 17 16 19 14 26 26 39 38 19 19 21 21 19 18 26 32 37 41 40 38 40 40 46 55 60 56 56 60 53 47 51 56 52 44 34 29 30 20 32 26
17 40 23 21 21 15 20 20 18 17 34 56 52 23 15 16 16 20 21 31 33 38 37 35 33 37 43 52 57 59 57 54 46 51 55 49 50 42 38 41 42 39 44 40
14 19 46 24 16 14 17 22 18 55 37 50 60 34 14 16 14 16 18 24 31 34 35 33 34 36 44 52 56 61 60 47 47 54 53 48 50 50 53 53 51 55 49 57
18 24 44 30 24 20 21 15 18 19 41 47 69 38 14 15 14 14 16 19 26 31 33 33 35 39 47 52 57 61 58 45 51 51 50 52 51 54 54 54 56 60 60 59
29 24 25 44 26 22 28 19 14 19 60 46 40 19 13 16 17 16 18 18 21 27 30 31 34 42 48 52 57 61 54 47 50 47 46 46 48 50 53 54 57 63 62 63
28 33 25 20 18 22 23 19 18 17 21 32 27 17 12 11 12 12 15 19 20 20 28 30 33 41 49 53 57 58 51 50 48 47 38 37 39 47 54 55 59 64 63 64
31 43 41 44 27 24 27 22 19 16 15 16 15 16 10 15 16 16 15 16 21 20 20 27 34 41 48 53 58 55 50 49 50 46 38 39 43 51 54 53 52 62 61 58
42 64 62 54 38 43 54 42 26 23 16 16 24 18 13 14 16 18 19 19 21 24 26 29 34 41 46 50 55 54 48 49 51 42 42 45 51 54 57 50 57 56 51 53
66 60 66 72 68 67 23 16 16 19 17 14 13 13 12 22 23 20 20 21 23 27 31 33 37 41 44 46 48 49 46 49 46 43 44 48 51 70 55 46 46 47 47 49
38 60 74 96 56 30 22 15 17 18 20 18 19 19 20 23 23 19 29 30 30 29 30 32 33 38 42 45 44 44 45 46 42 43 50 65 74 52 45 43 44 44 47 50
35 57 72 66 80 78 35 23 24 21 34 20 20 23 22 22 63 36 40 38 34 31 30 32 34 38 42 46 45 43 45 43 45 52 69 56 68 63 46 44 45 48 52 54
75 78 86 72 87 65 22 22 23 38 48 29 30 27 28 36 36 37 36 37 41 39 39 39 41 43 46 48 48 42 45 47 60 72 73 78 71 48 52 53 57 58 64 71
65 80 92 82 98 88 21 25 43 43 30 28 29 30 32 34 36 36 36 37 41 45 44 47 51 51 48 46 45 43 52 73 88 74 87 73 54 59 74 68 43 75 75 76
53 48 62 55 62 31 21 24 24 27 30 32 33 34 36 39 41 43 45 45 48 46 45 48 50 47 44 47 55 66 86 93 93 80 68 44 30 30 35 41 37 53 75 75
34 33 52 47 21 22 23 24 26 28 32 35 39 42 46 48 56 52 50 52 46 40 40 47 53 57 63 66 78 92 95 92 88 52 28 25 29 32 39 62 70 63 84 80
42 34 35 36 30 24 23 36 38 42 46 50 59 59 61 61 58 59 51 44 50 53 58 65 79 88 86 82 84 90 88 71 40 27 32 31 34 42 61 76 88 81 67 85
36 34 62 70 42 45 42 53 59 59 60 58 58 56 58 56 53 52 60 75 77 71 70 76 84 88 93 95 84 68 60 39 31 32 33 37 44 49 57 74 88 90 80 84

GFSCGP_850_rhum_015.txt.gz
RH
22 28 33 25 22 19 18 16 23 20 16 13 16 23 35 40 34 29 41 45 44 35 37 37 43 55 60 63 75 80 68 70 62 66 60 62 54 50 40 46 42 44 44 46
24 29 21 17 19 21 22 24 22 14 9 9 18 22 23 50 47 32 49 47 46 35 36 36 46 56 62 68 73 70 68 69 61 74 57 57 55 52 48 45 50 54 55 51
28 22 23 19 21 22 21 25 21 18 12 14 21 28 30 26 34 49 56 42 47 39 40 41 40 55 64 70 74 68 66 61 78 85 65 64 62 55 54 58 62 60 59 54
28 21 24 24 23 19 28 21 25 19 24 28 20 47 46 28 27 27 35 40 36 37 41 43 45 55 65 71 73 74 74 70 80 68 59 61 56 55 59 63 62 59 44 31
26 28 30 29 22 18 22 20 22 23 25 36 28 40 48 35 30 31 27 25 34 37 42 48 50 52 61 68 75 77 79 78 60 56 54 48 50 58 59 58 54 38 37 19
23 18 23 24 17 18 18 20 22 27 32 57 37 39 53 48 34 32 32 23 28 37 45 49 51 55 58 62 77 75 77 70 58 53 50 48 52 56 56 52 40 50 43 19
23 20 26 24 21 20 23 31 48 46 69 65 39 44 37 41 30 32 34 24 31 40 45 52 58 61 60 65 74 75 73 63 60 56 53 53 52 52 49 43 52 51 28 10
35 43 26 18 17 26 24 29 59 54 85 63 47 44 34 22 29 28 25 24 27 40 49 54 58 58 63 72 76 70 63 61 60 51 56 57 55 48 46 52 48 29 13 10
41 37 34 27 24 22 21 32 30 67 69 83 51 31 22 32 36 43 37 37 36 42 46 50 58 63 66 76 70 63 61 60 58 51 56 54 48 48 52 48 30 18 13 12
56 52 46 35 31 20 21 21 38 54 69 55 31 30 35 30 31 44 53 42 45 46 50 54 60 69 71 72 68 65 58 57 56 56 57 49 53 53 50 35 23 23 21 17
53 53 56 43 35 27 27 27 23 31 56 61 74 46 18 22 23 41 45 42 43 46 48 49 54 57 57 56 54 54 56 56 58 62 57 49 55 52 44 31 35 28 23 28
47 57 76 50 25 20 20 24 35 63 36 72 76 53 20 18 17 19 26 38 40 42 44 42 43 46 44 43 45 50 57 56 59 60 50 53 51 49 43 45 45 42 42 40
32 34 61 42 35 31 23 21 20 40 62 51 66 51 21 17 16 16 18 22 36 39 41 40 38 38 39 43 49 56 59 58 58 53 48 52 50 51 54 55 53 54 52 50
30 35 43 57 41 32 32 27 23 31 67 54 62 36 23 22 22 19 17 18 26 36 37 38 35 34 36 41 48 56 58 60 57 47 50 52 54 51 57 58 56 54 57 60
39 41 30 34 36 29 26 29 29 22 35 45 38 34 27 20 22 20 19 18 18 22 30 34 35 34 37 46 53 56 60 64 58 48 51 49 43 50 55 54 60 70 61 63
38 61 43 42 39 42 38 35 32 31 25 22 24 26 18 19 17 18 19 20 22 22 22 24 30 37 40 47 53 57 60 62 58 49 48 44 42 50 52 67 83 59 52 51
52 68 69 58 49 45 53 37 33 32 29 26 29 24 22 32 28 23 21 21 24 24 25 26 34 42 44 50 54 55 57 61 53 50 48 41 44 50 65 78 81 55 56 51
65 66 77 76 67 51 39 24 20 27 26 27 29 32 29 27 34 34 30 30 30 31 32 32 33 36 44 49 53 56 60 56 50 52 46 42 46 56 75 88 65 52 47 52
67 78 84 72 79 49 33 25 27 24 32 30 34 32 27 24 30 40 35 33 33 33 34 34 32 33 34 39 43 51 57 51 52 48 44 48 53 71 87 79 54 55 48 47
49 69 72 82 80 64 51 28 23 23 52 36 32 37 37 30 70 56 38 37 37 37 38 38 40 39 40 42 45 47 50 50 46 48 52 59 74 97 94 67 47 51 56 54
86 81 80 94 88 74 44 26 23 43 54 32 31 35 35 49 45 37 37 39 42 44 43 41 42 44 46 49 48 47 46 47 49 56 63 82 95 92 73 45 53 59 57 49
74 92 97 98 99 83 28 27 36 55 34 32 32 33 35 37 41 46 47 48 47 46 47 49 50 49 48 46 45 47 47 62 65 78 96 95 93 71 44 69 62 42 37 44
74 73 82 73 81 50 24 28 30 29 30 33 37 44 43 51 55 54 51 49 46 45 46 50 51 51 49 50 52 54 69 73 82 96 97 96 60 39 32 42 38 42 53 71
42 38 72 51 32 34 23 24 30 34 43 49 54 53 55 59 58 54 52 49 46 45 45 48 50 51 52 55 57 60 65 74 92 91 61 51 38 31 32 39 52 69 82 83
60 41 48 51 36 50 54 53 52 52 55 60 60 59 58 58 54 54 51 50 50 52 53 55 59 63 66 76 84 88 87 78 60 47 31 32 34 34 37 43 56 69 86 83
45 53 70 79 53 64 64 60 58 57 58 57 57 57 57 54 57 56 61 66 70 77 82 84 90 94 97 90 74 57 41 34 31 30 35 36 37 38 42 49 55 70 87 96

GFSCGP_850_rhum_018.txt.gz
RH
24 30 34 28 31 26 22 21 24 24 20 19 26 42 48 43 40 48 45 49 51 53 53 63 68 65 66 62 45 66 74 77 73 62 57 62 55 56 52 41 35 34 37 40
28 32 25 25 19 23 23 24 26 25 20 14 27 44 44 50 40 42 40 40 43 51 57 59 60 65 67 53 61 79 82 81 74 60 58 52 49 50 41 39 34 34 38 40
31 23 20 23 22 24 24 25 28 24 15 22 27 32 37 43 38 41 45 38 35 39 52 56 63 63 63 60 56 67 78 73 72 61 62 50 50 49 48 42 40 42 45 44
27 23 21 23 28 25 31 22 26 23 24 27 21 44 41 36 37 48 38 44 34 38 43 45 53 60 59 61 60 59 63 68 65 65 63 58 54 55 51 42 42 48 52 40
28 30 29 28 27 24 29 27 22 24 34 32 32 43 34 44 29 46 50 43 32 40 41 41 42 46 56 61 66 66 66 70 68 72 85 67 60 58 55 52 53 57 50 40
23 20 23 24 21 23 21 21 34 36 42 57 45 38 43 48 30 24 35 42 40 39 50 43 41 48 59 66 67 77 77 76 78 80 72 70 64 60 56 58 60 56 45 41
24 22 24 24 22 22 25 37 47 43 66 60 43 42 39 32 37 33 33 31 39 43 48 51 45 52 62 63 68 77 80 82 77 66 64 62 63 56 58 60 57 47 41 27
35 40 30 29 25 25 28 33 54 46 72 50 50 57 42 30 25 27 27 30 40 44 46 49 54 55 62 62 70 80 81 83 69 60 58 56 56 60 60 52 49 45 30 16
45 38 39 29 33 33 24 30 32 65 76 69 58 36 23 35 40 35 38 36 37 47 47 49 53 54 56 66 75 70 68 80 73 60 62 62 59 56 52 48 50 36 18 18
38 41 42 34 27 28 24 23 36 58 61 63 40 39 40 31 33 38 46 41 33 45 46 50 54 55 61 64 66 68 72 71 66 68 67 66 61 54 51 50 41 24 47 26
48 38 48 39 36 31 37 31 28 41 60 57 69 47 25 27 31 34 42 34 32 42 51 52 54 58 61 64 68 69 73 69 66 65 69 64 58 50 52 52 40 50 35 45
47 54 74 45 34 22 30 30 33 60 35 77 78 51 28 23 23 31 35 35 32 38 47 45 46 50 55 60 67 71 72 68 70 67 61 58 59 54 54 52 40 45 59 44
46 48 64 49 33 32 30 26 32 47 62 55 68 52 25 22 18 18 24 31 33 40 50 50 51 50 51 57 66 70 70 66 56 53 56 59 61 54 53 51 47 56 62 48
30 41 41 56 42 38 35 30 30 41 69 57 64 36 28 24 25 20 20 25 35 42 48 50 50 50 54 57 59 62 59 55 55 57 59 60 58 53 52 51 57 64 60 62
41 41 36 35 36 33 30 31 31 33 36 46 38 40 26 22 24 21 19 22 25 37 46 48 47 49 52 53 54 55 54 55 58 60 61 58 52 53 52 54 60 60 70 63
45 45 44 41 44 38 34 34 35 34 28 36 30 31 24 25 26 26 24 24 25 27 28 28 26 30 38 43 48 50 52 58 61 62 60 52 52 50 53 59 59 72 64 66
53 70 67 54 55 45 61 40 34 32 31 31 38 29 34 40 42 33 29 27 28 32 33 33 33 36 40 42 43 47 53 59 62 63 53 52 51 49 57 59 67 79 86 93
64 67 76 77 61 65 46 32 30 35 34 36 36 35 41 45 42 36 34 33 36 33 32 31 32 34 34 39 45 50 55 61 68 57 53 50 48 57 60 68 82 94 91 66
66 79 87 70 74 53 36 25 26 32 38 35 38 35 41 42 39 41 38 39 39 37 36 35 34 35 35 43 46 49 58 65 66 55 49 47 51 55 66 84 90 95 90 58
68 80 81 91 71 63 49 34 25 31 59 37 38 41 38 35 77 59 42 43 40 40 41 42 40 40 39 40 46 62 68 65 56 53 53 60 78 82 99 98 90 90 61 53
84 87 77 96 78 67 47 34 24 34 44 37 38 38 39 52 49 52 46 45 45 46 46 46 46 46 45 47 52 61 63 58 57 59 65 79 93 90 92 95 75 53 57 59
67 86 95 96 91 63 41 29 35 43 40 34 35 37 48 54 50 49 48 48 49 49 50 51 51 50 52 54 57 58 56 58 64 74 89 99 99 99 96 63 60 55 49 42
57 67 77 71 74 48 28 31 34 32 33 36 40 45 46 51 52 51 49 49 49 51 52 54 53 52 54 56 57 56 68 73 82 93 98 100 99 77 67 42 32 36 35 44
51 56 74 60 44 47 34 35 33 32 36 48 50 53 50 53 54 53 52 52 53 52 53 54 54 55 59 64 67 70 77 85 89 89 76 58 43 30 29 32 34 36 38 43
61 48 56 57 67 63 66 59 56 56 56 56 58 58 57 57 55 56 56 57 58 60 68 72 73 76 81 88 85 68 49 39 34 30 28 28 32 33 33 34 38 43 48 62
50 56 69 69 47 58 71 64 60 58 61 60 57 59 59 57 59 61 66 75 82 86 89 88 85 80 69 57 51 48 48 41 37 36 39 41 43 43 46 48 46 49 57 66

GFSCGP_850_rhum_024.txt.gz
RH
27 33 38 29 31 26 28 25 24 24 22 33 42 60 66 75 74 77 84 88 82 71 58 58 54 60 66 71 65 66 68 66 69 73 75 85 87 91 81 65 66 69 74 58
34 38 29 27 29 29 28 26 28 26 20 23 43 55 61 68 68 66 71 78 76 70 66 61 60 65 65 57 63 66 70 63 70 74 73 80 84 71 63 62 61 64 55 41
36 26 24 27 27 28 27 26 27 29 24 32 42 52 60 52 55 56 61 64 71 69 64 62 66 62 60 54 50 52 60 69 71 72 80 85 83 66 64 58 51 45 42 46
32 27 26 24 27 27 25 26 26 30 27 36 29 38 44 57 60 54 56 61 59 62 66 61 57 60 62 60 57 60 60 63 67 72 82 84 79 67 60 56 53 49 49 51
26 27 28 27 24 23 25 27 30 29 35 36 35 39 36 51 57 54 50 50 55 50 54 53 52 50 53 57 58 58 64 70 69 74 81 82 79 66 60 56 54 53 52 55
27 23 28 27 24 24 24 24 35 44 45 53 36 40 43 52 45 44 45 44 43 46 53 54 54 61 62 61 61 66 68 58 65 75 81 75 78 74 63 59 56 56 52 55
27 24 26 27 25 28 32 36 47 45 61 57 46 47 41 29 36 41 44 41 38 39 45 51 52 54 57 60 58 59 68 64 58 73 72 66 73 76 68 64 73 60 58 58
38 37 27 26 26 29 34 38 57 45 63 43 49 48 32 29 29 26 26 27 32 35 37 41 42 45 47 51 57 60 63 71 60 66 70 68 83 80 73 74 72 71 64 60
41 33 32 33 33 28 32 36 35 68 77 71 52 43 27 25 33 40 38 34 31 28 32 33 38 42 44 46 49 52 58 67 66 69 60 63 76 80 81 80 75 75 67 60
34 33 38 35 33 31 29 37 42 57 50 55 50 44 36 27 31 41 47 40 34 36 31 31 34 40 44 41 45 51 54 58 61 64 59 65 77 71 85 85 82 75 64 60
40 32 33 40 38 34 36 37 45 47 61 58 66 47 37 29 29 28 32 31 32 31 33 32 34 37 39 42 45 44 44 48 55 64 64 62 73 76 89 100 91 73 63 63
41 44 54 36 31 32 30 35 42 62 44 78 78 54 28 30 29 24 22 21 26 30 33 38 36 36 36 36 41 42 44 50 55 59 59 59 60 84 89 84 80 67 63 50
45 44 57 40 32 36 35 37 43 53 64 66 70 53 27 31 29 21 19 18 23 27 31 32 38 38 41 50 47 50 50 52 50 54 56 57 77 85 81 77 76 65 57 46
30 49 39 38 33 40 40 39 45 46 70 60 67 41 29 27 32 27 19 19 21 26 31 34 35 42 56 63 60 58 53 57 62 57 58 63 77 81 79 80 70 61 50 48
39 40 42 37 36 41 39 34 47 44 44 49 41 46 35 34 30 27 24 24 31 38 42 46 48 56 65 68 72 73 68 71 78 84 92 89 84 82 83 74 63 54 55 50
49 46 40 45 46 42 41 39 43 41 39 41 40 40 35 30 34 34 32 39 42 44 42 41 41 40 42 42 43 45 46 52 63 74 79 83 82 83 87 74 55 56 53 58
51 67 62 50 54 45 61 50 44 43 40 39 46 38 38 40 46 45 40 40 40 38 36 34 34 33 32 31 30 31 37 46 61 77 84 81 82 85 90 63 57 58 60 65
64 62 70 75 64 64 41 38 36 41 38 37 36 38 43 46 45 44 42 39 39 37 36 37 38 38 37 37 37 38 43 52 63 76 84 86 85 80 67 69 69 68 73 81
61 74 78 70 74 51 39 39 42 41 38 41 43 56 52 50 49 54 46 42 41 42 43 43 43 44 44 43 43 43 46 62 75 81 83 82 80 79 80 76 75 92 99 96
66 74 71 80 70 67 52 37 31 32 49 44 52 63 61 50 67 65 52 48 47 47 46 46 46 48 48 49 49 50 60 75 82 83 81 82 83 83 85 98 98 97 97 99
86 90 80 95 79 72 51 34 28 44 48 39 44 50 51 48 41 49 52 50 48 47 48 50 52 52 52 55 60 62 72 78 82 82 83 85 86 86 89 97 100 100 100 99
78 90 88 88 80 75 37 38 43 44 32 34 40 43 43 41 48 50 50 49 51 52 53 54 53 55 60 64 66 72 75 83 84 84 84 86 91 97 100 99 95 82 67 57
63 69 77 70 72 49 38 35 25 24 29 34 37 38 34 39 48 51 53 55 55 56 56 57 56 58 65 69 70 70 84 90 92 93 83 59 47 44 48 46 42 39 39 42
60 58 63 60 53 57 44 36 33 31 28 30 32 34 35 37 51 54 58 59 58 58 58 59 61 65 72 77 76 76 75 62 48 40 36 35 34 34 38 41 44 47 47 51
68 65 73 66 71 68 54 44 38 36 34 34 36 35 38 43 56 57 60 60 60 60 66 73 75 76 73 65 56 49 46 44 40 40 40 41 44 47 48 52 58 61 64 78
68 67 76 72 53 44 39 41 41 38 38 40 40 53 53 51 55 60 62 63 69 78 83 78 73 67 62 56 53 52 51 47 45 47 51 54 56 58 58 53 44 36 29 23

GFSCGP_850_rhum_027.txt.gz
RH
28 30 32 27 30 25 28 26 25 23 22 34 39 47 67 84 88 88 91 92 80 51 53 57 51 48 54 59 64 66 66 62 54 59 73 81 80 81 84 81 86 77 82 85
31 35 28 28 29 29 29 27 26 25 22 28 33 42 55 74 76 74 78 87 83 65 63 62 60 60 57 58 65 68 66 61 62 71 74 78 79 83 77 88 83 74 79 81
35 26 28 28 29 30 29 29 30 28 26 32 36 34 55 54 70 68 71 73 77 77 62 66 64 59 57 60 58 58 61 64 61 66 71 73 79 85 86 82 69 67 70 70
31 27 28 30 29 28 29 25 28 30 27 28 27 26 35 54 54 53 56 63 66 66 60 55 54 58 57 57 64 65 63 65 73 67 72 69 69 70 72 68 64 64 61 52
27 30 31 30 27 28 26 30 29 30 31 36 36 30 24 46 54 49 49 53 54 59 57 52 56 54 56 56 57 58 61 65 71 73 70 68 71 76 78 73 64 58 52 48
26 25 27 26 25 25 29 30 33 39 40 41 36 32 28 33 39 37 40 48 45 44 47 50 51 57 57 57 59 61 59 62 63 68 64 69 79 78 84 77 64 58 56 54
28 26 26 27 27 29 29 34 39 39 47 44 43 41 30 24 27 32 36 43 42 41 44 48 50 47 55 55 60 59 63 65 68 73 72 65 83 82 85 78 69 63 61 68
33 34 28 30 27 28 33 32 46 44 51 36 46 45 22 24 28 30 31 29 33 37 40 40 40 43 44 46 50 55 56 60 63 72 71 74 84 78 75 84 81 71 66 74
42 33 29 33 33 26 34 36 34 56 70 58 40 34 25 21 24 35 38 34 32 31 32 36 37 39 40 44 45 47 54 60 58 60 68 61 60 64 66 78 87 77 74 80
34 32 39 36 32 34 30 33 42 49 51 51 41 42 30 24 22 26 32 34 27 28 28 29 33 36 38 42 47 49 52 54 54 60 66 70 67 70 63 81 94 86 81 84
35 33 35 38 37 34 37 38 43 41 48 45 45 34 30 27 25 27 26 25 29 26 27 29 30 33 38 44 49 48 49 52 58 59 59 63 66 66 61 68 95 98 94 93
37 44 49 37 33 31 32 36 40 53 44 56 56 41 25 28 28 29 25 23 28 28 29 28 32 35 39 39 43 45 48 51 53 59 69 60 66 69 64 64 79 93 95 97
42 42 45 35 31 36 36 36 39 48 55 57 62 39 26 27 28 28 27 20 19 22 30 32 36 39 43 46 44 48 52 52 54 58 65 74 73 71 80 84 100 100 100 97
31 46 40 38 34 34 44 41 41 42 55 52 50 36 27 25 25 23 26 22 21 26 32 39 41 48 52 57 56 57 60 60 64 69 75 80 86 93 99 100 94 88 86 77
40 41 43 35 30 36 34 36 43 38 40 46 37 40 29 28 27 28 27 29 40 50 52 56 57 58 62 64 66 66 68 68 69 71 75 79 86 93 95 90 88 82 78 67
50 46 42 39 44 42 42 39 39 39 41 40 37 38 30 30 32 35 38 49 52 52 49 47 44 43 41 38 37 36 35 36 40 49 63 75 83 87 88 88 86 76 67 50
54 64 56 48 54 46 60 51 43 42 39 38 44 35 33 34 41 41 53 49 46 43 40 38 37 35 35 35 35 36 36 38 42 48 61 74 84 88 88 85 86 80 69 56
62 60 63 67 62 68 37 39 36 38 38 36 36 34 34 38 53 52 47 42 43 42 40 40 41 41 41 41 40 41 40 42 51 62 74 84 89 90 91 93 89 73 66 66
58 68 73 74 62 48 37 40 40 40 29 34 34 38 46 58 56 60 51 46 43 42 43 43 45 45 46 45 45 45 44 54 68 78 83 84 84 82 81 79 76 85 88 97
64 64 62 72 63 61 46 35 35 31 42 35 38 49 53 56 55 50 53 50 48 47 48 49 50 51 51 50 50 50 53 66 74 81 82 84 85 85 82 85 86 89 96 99
75 76 69 75 72 61 44 36 29 47 39 37 41 50 54 47 43 47 52 52 51 53 54 56 56 53 54 56 59 55 67 71 82 87 89 90 90 90 91 95 99 100 100 100
74 76 83 78 80 63 42 37 45 41 31 29 46 49 54 39 48 52 54 54 56 57 58 57 54 56 60 63 62 67 72 83 84 84 84 89 96 98 95 83 69 60 54 48
72 65 69 63 63 53 36 32 26 24 26 33 41 48 43 45 55 56 58 61 61 60 58 59 56 58 65 68 70 72 87 92 92 86 67 51 40 36 34 36 37 38 44 49
64 60 61 58 51 51 39 32 32 28 26 30 37 39 40 41 55 61 64 64 62 62 62 62 62 68 77 82 77 75 70 55 45 40 38 38 40 42 44 47 50 53 55 54
64 58 64 61 53 65 50 42 32 32 31 34 40 41 40 38 58 61 64 64 65 65 66 67 68 72 69 63 57 52 50 49 42 41 40 41 42 42 41 37 28 19 12 12
66 62 66 62 37 39 36 29 35 36 35 35 36 45 47 44 50 61 64 65 65 68 76 76 73 67 63 58 53 51 48 44 43 44 40 31 22 16 12 10 8 8 9 10

GFSCGP_850_rhum_030.txt.gz
RH
27 24 20 14 15 18 20 18 17 16 20 25 24 23 36 52 62 63 55 51 50 52 56 67 74 79 84 86 86 89 93 94 96 90 77 72 90 97 91 85 86 85 88 84
25 25 15 17 18 20 21 19 19 17 18 21 19 21 29 43 52 53 53 58 52 49 53 62 66 71 76 81 87 88 88 93 93 83 71 75 84 91 93 82 78 81 79 76
23 18 20 20 22 23 22 19 21 20 20 19 20 20 29 35 46 51 53 50 52 44 49 57 65 69 72 74 79 79 83 88 92 83 76 91 92 83 79 77 75 72 79 73
22 18 21 20 20 20 23 18 20 22 22 21 21 20 22 25 38 45 48 51 49 45 44 49 63 68 71 73 75 79 78 83 90 91 81 86 81 88 81 71 66 73 68 68
21 20 22 22 18 18 19 20 21 21 21 24 24 19 19 28 30 28 34 41 45 42 42 46 49 56 69 73 76 83 85 85 88 94 84 88 87 85 92 67 77 71 65 65
16 19 18 16 19 19 21 23 24 24 24 30 22 21 16 17 17 16 21 28 35 39 41 42 46 53 57 69 75 80 84 83 86 91 68 75 86 90 91 77 69 72 71 68
19 19 17 20 20 22 21 22 28 30 33 32 29 30 18 14 14 17 18 18 27 34 38 43 46 48 55 62 76 80 80 77 82 84 65 64 74 84 64 70 68 78 78 68
23 25 19 19 19 21 23 19 28 39 36 25 32 28 18 14 17 19 22 23 24 30 36 40 43 46 52 63 73 79 72 78 82 73 56 64 68 70 67 68 74 92 89 77
24 21 19 22 21 20 26 26 19 32 46 33 22 20 16 13 13 21 22 25 26 26 26 32 38 45 54 61 73 81 83 78 83 85 84 77 68 64 71 71 74 89 84 79
21 24 21 27 26 26 24 21 30 30 41 38 25 24 18 15 13 15 14 18 20 30 34 34 38 41 48 58 68 82 84 76 83 95 95 93 82 80 67 76 77 76 87 95
16 20 32 32 30 22 29 26 27 26 29 31 31 23 15 15 14 15 15 20 22 26 32 43 44 46 50 58 67 78 86 74 84 88 99 98 98 91 86 63 75 87 100 100
19 22 27 22 24 24 19 20 25 33 32 36 42 27 14 15 15 19 18 20 24 31 34 45 50 54 56 62 68 72 78 79 81 87 96 98 84 85 88 88 94 99 98 100
24 27 32 24 27 27 26 24 23 28 33 30 48 26 18 17 18 17 20 19 21 25 33 45 58 60 51 46 60 70 65 76 78 63 63 72 81 84 90 92 100 99 99 100
24 21 25 30 21 18 29 24 24 26 34 28 28 20 16 16 16 15 18 22 22 33 41 44 56 67 71 73 62 62 64 66 68 71 75 80 85 91 96 98 98 100 100 100
26 25 23 18 16 16 18 17 21 24 23 25 22 21 19 16 16 18 24 30 36 45 51 57 60 68 75 81 80 81 79 80 80 74 76 79 79 85 92 96 98 99 96 99
30 27 28 29 20 22 23 18 17 19 18 17 22 22 17 17 21 23 27 35 42 50 56 60 62 62 62 63 69 51 47 47 45 48 51 60 72 82 86 89 90 90 87 80
38 34 36 33 35 33 47 32 22 21 19 21 26 22 16 20 22 24 33 38 43 48 51 55 61 63 55 40 42 41 41 43 48 55 66 73 79 84 87 88 87 87 77 72
47 43 44 41 66 79 24 26 21 22 19 21 22 20 19 19 26 34 38 42 45 48 54 55 48 42 41 41 40 40 40 44 52 62 72 80 85 87 90 91 90 88 83 80
42 43 50 72 47 29 28 29 29 30 25 19 22 19 20 33 41 48 46 46 50 57 61 60 52 48 47 45 44 44 44 50 60 69 76 79 81 82 81 80 79 80 79 80
50 49 52 60 50 63 27 20 23 23 31 17 20 21 26 38 42 29 56 60 63 64 65 61 55 53 50 51 52 52 57 62 69 78 85 87 86 85 85 90 92 94 99 98
65 61 68 55 57 35 26 24 26 37 32 23 21 23 31 38 29 45 59 65 66 65 62 62 65 59 58 64 64 60 68 74 90 97 98 97 99 98 98 95 97 100 99 97
57 63 73 54 75 64 30 30 31 26 33 29 32 29 36 45 56 60 64 66 67 66 66 69 66 72 79 77 69 70 75 96 96 89 78 84 88 81 82 80 68 63 65 52
62 47 48 43 38 31 32 24 27 32 27 34 33 36 42 55 58 62 65 68 70 72 75 80 77 75 80 75 64 70 92 86 84 82 63 47 37 34 32 36 44 73 77 77
50 48 50 49 29 34 36 30 36 34 32 33 35 42 54 52 60 63 67 70 70 72 75 79 72 66 66 70 74 74 79 71 54 42 37 35 34 35 36 44 37 45 34 28
40 49 41 43 34 44 42 37 33 38 39 38 41 47 49 55 60 63 68 71 71 74 80 78 79 76 80 76 68 61 52 46 40 37 35 36 34 26 21 18 11 9 13 7
44 42 54 49 29 31 23 32 40 41 43 40 45 52 54 54 58 65 70 73 77 80 80 85 83 79 74 61 55 51 46 42 40 37 28 20 16 13 14 18 52 14 9 9

GFSCGP_850_rhum_033.txt.gz
RH
22 22 21 15 12 11 16 15 15 18 22 17 20 28 24 35 37 41 35 42 36 37 43 62 65 66 72 80 82 79 81 84 88 95 78 63 62 70 82 88 86 94 88 86
21 24 16 12 11 13 15 15 14 15 14 15 15 18 28 28 34 35 35 39 38 36 39 51 64 62 66 71 76 74 76 78 78 73 66 60 58 63 75 83 92 93 98 84
21 16 13 14 14 16 15 16 18 16 16 13 14 16 16 18 27 33 33 32 33 35 37 44 52 60 66 66 68 68 71 73 74 71 66 59 58 67 71 88 97 99 84 84
18 15 16 15 15 14 17 13 17 16 17 21 15 26 18 16 22 28 32 31 30 32 34 38 45 51 58 62 69 70 68 67 70 71 62 59 63 64 72 84 92 97 76 72
20 18 18 18 15 14 16 17 16 17 18 18 16 17 21 12 19 21 25 31 31 31 30 33 40 45 50 56 61 68 67 66 67 74 72 64 70 71 71 81 98 96 100 89
17 13 13 14 13 14 14 18 18 18 20 29 20 17 25 14 13 14 16 22 28 29 30 29 32 40 47 51 58 64 65 62 64 70 79 74 74 77 67 77 94 96 96 79
19 16 13 13 17 16 17 20 28 32 32 32 18 19 16 19 11 12 12 14 21 27 28 26 28 33 38 48 59 64 65 62 65 70 77 84 83 80 79 78 88 92 87 72
23 25 16 15 16 18 19 18 27 58 58 33 22 23 15 11 12 12 12 12 13 20 25 28 28 29 34 40 53 64 64 65 63 67 75 80 89 88 86 88 86 77 70 78
21 19 12 13 14 14 19 23 15 22 26 33 25 16 12 12 10 11 13 15 16 17 21 26 27 30 33 36 45 58 64 63 67 68 78 83 88 90 94 94 82 57 55 64
16 21 14 15 16 16 19 17 26 25 51 45 22 19 18 14 11 11 10 13 14 19 24 23 25 29 32 36 41 55 65 65 65 70 77 90 93 98 97 96 71 71 71 87
17 19 18 20 22 19 22 24 23 21 24 39 34 23 14 13 12 12 12 12 13 17 24 31 31 30 33 38 44 52 65 70 68 74 82 90 95 98 99 98 83 91 87 94
18 19 27 23 16 13 16 20 21 34 34 33 35 28 12 12 12 13 12 13 16 20 22 31 37 39 39 42 47 52 63 69 70 78 82 86 95 97 99 94 100 100 100 100
19 23 34 25 18 18 21 22 23 24 24 44 59 28 12 13 13 13 14 13 16 18 21 31 41 46 48 52 55 58 67 69 70 74 76 86 96 100 98 99 99 98 100 100
22 21 25 33 22 18 23 19 18 22 40 34 31 21 16 14 14 13 13 14 16 17 21 25 38 48 51 57 64 68 75 74 74 81 88 92 100 98 100 100 100 100 100 100
24 32 26 20 16 14 15 17 18 21 22 31 25 20 14 13 13 12 18 18 19 22 30 34 39 50 62 69 72 75 89 90 89 88 90 98 100 100 100 99 99 99 98 100
26 32 25 22 16 14 16 14 14 16 17 18 18 18 12 11 12 14 16 20 23 29 36 44 51 58 66 70 74 84 88 87 85 83 86 92 93 96 99 99 97 96 98 96
30 38 37 38 20 19 32 20 17 15 13 15 21 16 12 12 14 16 16 22 27 36 43 48 51 55 59 63 67 73 75 76 78 79 84 85 84 84 84 86 86 85 82 76
39 39 42 43 59 59 26 17 16 18 15 14 13 12 12 14 15 17 19 24 34 40 46 52 54 57 60 62 65 67 69 70 69 71 76 85 86 87 90 90 86 82 80 79
42 47 52 59 47 28 20 19 21 20 19 14 15 13 15 15 23 27 28 31 38 43 46 49 54 57 59 60 62 62 65 67 72 77 80 84 88 89 92 93 97 97 99 100
38 51 58 52 52 54 28 18 16 15 29 14 14 15 16 20 38 21 34 39 44 49 53 56 59 60 61 63 64 66 70 74 79 84 86 88 89 92 98 97 99 98 99 98
69 70 76 63 51 34 19 15 16 36 29 15 16 17 17 19 25 30 41 49 50 52 56 59 59 61 64 67 70 72 76 79 83 85 87 93 96 96 97 92 93 91 83 77
67 65 72 58 60 65 19 21 26 22 17 22 21 18 19 22 39 44 49 51 52 55 61 61 64 67 69 70 72 75 80 87 93 88 86 86 78 70 77 82 75 67 72 77
60 55 48 38 38 29 24 21 21 17 20 24 22 20 23 40 44 48 50 51 54 58 59 62 67 71 73 74 76 77 85 86 86 80 76 69 66 65 67 68 67 62 68 75
44 32 45 41 32 26 26 25 21 23 24 25 26 24 30 43 46 48 50 53 55 55 59 65 72 75 77 76 76 81 80 78 76 74 70 68 62 58 58 52 48 51 60 41
37 41 42 36 28 27 30 30 27 26 30 29 29 28 33 42 46 48 51 54 53 55 62 69 69 72 75 76 76 74 73 69 69 66 62 54 42 50 48 41 30 20 12 6
32 36 51 49 28 33 29 27 27 30 32 36 32 34 41 42 46 48 52 54 55 59 66 67 73 76 78 78 74 70 69 66 62 56 52 40 33 35 44 48 43 22 16 10

GFSCGP_850_rhum_036.txt.gz
RH
18 21 22 17 15 13 12 17 21 17 18 19 22 55 73 64 32 32 31 33 35 40 65 72 76 81 69 78 81 72 72 80 59 78 91 88 71 67 56 72 78 73 75 91
20 25 18 15 14 13 12 14 16 15 17 16 13 34 61 70 36 29 31 36 33 36 52 66 69 76 81 70 82 82 70 73 87 88 70 71 68 60 52 71 81 76 86 86
24 20 16 16 15 14 13 15 14 16 19 15 14 14 42 40 27 29 29 38 36 32 47 58 66 69 74 78 82 86 88 80 78 79 64 76 65 60 60 72 68 67 94 85
19 16 16 16 16 13 16 11 15 19 18 19 17 27 22 23 23 27 27 29 32 34 35 49 58 65 67 72 75 76 73 72 74 77 71 73 64 56 63 71 73 70 80 93
22 19 18 19 14 12 15 15 17 17 17 20 20 23 15 16 18 23 27 28 28 30 33 38 47 57 64 67 70 67 70 71 72 67 68 70 61 56 58 69 79 83 92 87
17 14 14 16 13 12 12 17 19 19 19 32 26 20 18 17 16 17 20 26 27 28 30 34 38 45 55 62 66 70 66 68 66 68 64 68 68 59 65 68 72 77 75 76
18 16 14 13 15 13 14 19 30 32 32 40 22 21 20 18 22 28 24 25 38 27 29 30 34 40 45 51 57 64 68 69 68 66 70 69 66 66 66 71 75 84 82 78
25 27 17 13 15 16 18 19 34 45 55 43 46 32 16 15 15 12 13 27 28 27 27 29 28 36 41 45 50 53 59 62 64 63 66 72 61 69 82 74 76 77 71 62
26 23 14 14 13 15 19 24 17 26 41 62 75 32 13 13 13 10 11 13 13 13 26 28 27 26 35 42 47 52 59 63 63 62 64 65 74 79 69 62 84 83 78 77
20 26 16 14 13 15 17 14 33 28 44 55 32 27 21 20 13 11 11 12 13 17 19 22 26 26 28 32 44 48 51 58 62 63 65 66 76 80 61 62 89 81 63 76
18 24 23 18 18 18 18 22 26 30 28 53 47 32 22 23 13 13 13 11 13 16 22 25 25 24 27 30 33 45 56 63 61 62 64 69 70 74 83 76 91 66 78 92
18 24 33 23 15 14 16 20 21 37 36 36 56 35 17 21 16 14 13 12 12 15 20 26 31 31 30 30 34 42 50 58 62 64 65 68 74 81 85 68 95 100 99 100
20 25 39 30 22 18 20 17 21 26 31 42 67 40 18 15 14 13 13 13 14 16 17 26 34 39 38 38 40 42 47 58 64 62 69 71 79 84 68 86 98 100 100 99
28 25 29 42 28 24 25 19 17 28 45 44 45 33 29 21 22 17 14 14 14 16 16 20 34 42 45 49 51 53 58 64 67 70 72 74 90 90 93 99 100 98 98 100
33 34 28 24 19 19 19 19 18 20 36 42 39 36 26 20 22 22 18 18 15 16 18 22 31 43 49 56 61 67 71 70 71 75 87 90 93 94 98 98 99 97 98 99
30 36 33 37 24 19 22 18 16 17 17 17 19 20 15 15 19 24 22 17 19 19 22 27 31 48 58 67 70 80 84 85 84 87 87 90 98 98 98 98 99 99 99 100
37 40 40 46 30 27 35 24 17 16 15 17 23 19 14 14 13 12 17 15 18 22 30 38 44 55 65 71 81 88 87 86 85 86 82 82 89 88 91 94 97 99 98 90
55 41 40 55 61 56 25 16 14 16 15 15 14 13 12 12 11 14 16 17 22 30 39 47 53 58 64 70 74 76 77 77 73 75 77 79 79 80 83 85 85 85 82 79
49 56 58 62 54 33 21 20 21 23 22 16 17 14 12 11 11 21 21 20 27 35 44 50 54 58 62 66 68 69 70 71 72 74 77 78 79 83 84 82 78 76 75 82
55 59 70 63 61 62 36 24 16 16 33 17 15 17 16 15 40 26 26 29 35 42 48 50 54 57 58 60 62 63 66 67 69 74 79 83 86 89 94 94 87 92 95 98
76 83 80 72 65 47 27 20 17 37 36 19 17 16 17 25 25 22 27 36 40 44 48 53 56 57 60 62 63 65 68 70 74 78 83 87 91 88 81 83 80 90 86 87
80 98 82 76 70 68 25 21 30 28 22 19 18 19 18 18 24 28 34 40 44 48 52 56 57 60 63 66 66 70 72 77 80 78 78 81 79 78 70 64 67 79 79 84
70 72 82 73 59 38 22 26 22 20 21 20 20 22 20 26 35 38 43 46 47 49 54 55 60 65 67 68 69 74 80 79 76 77 81 77 72 71 69 70 65 67 76 82
49 41 60 60 48 51 32 29 24 22 22 21 21 25 23 32 38 43 46 46 48 51 54 58 64 68 68 70 73 78 84 86 81 74 70 68 64 60 58 54 57 57 52 44
38 64 50 51 44 41 33 26 29 30 29 27 27 26 25 30 41 45 47 48 50 53 54 60 67 71 73 72 78 79 78 75 74 72 68 63 53 48 46 42 34 25 22 14
29 31 48 54 34 43 40 34 34 32 32 30 31 29 29 33 43 45 47 49 51 51 57 66 71 73 74 75 74 72 70 70 68 65 63 46 41 43 47 33 31 26 21 14

GFSCGP_850_rhum_039.txt.gz
RH
22 32 36 29 25 22 20 20 21 23 23 33 49 64 46 36 63 60 53 57 69 70 72 64 72 85 98 96 92 88 90 93 88 82 71 68 64 70 66 64 72 66 76 68
29 34 26 21 20 21 21 22 19 17 21 24 49 58 47 52 60 46 44 50 63 68 75 75 72 76 72 72 76 71 70 65 62 60 61 57 58 58 57 66 66 63 65 74
32 28 21 22 23 23 21 21 18 20 21 19 24 71 70 57 54 50 36 36 46 64 70 76 77 69 59 63 60 64 61 57 56 63 60 65 72 70 65 49 49 68 76 68
30 23 23 23 25 20 23 15 17 19 23 34 20 39 70 58 49 47 38 34 42 58 61 66 69 72 57 52 51 50 55 58 57 70 67 67 69 74 65 46 53 70 73 64
31 27 27 26 22 18 21 19 21 22 29 26 26 34 30 46 51 43 42 41 38 48 51 61 64 65 66 62 57 57 60 57 61 66 68 64 58 67 63 58 61 62 75 70
26 19 20 21 19 18 16 21 21 24 30 48 31 33 40 47 42 37 38 40 37 38 45 47 50 58 62 68 69 66 62 67 68 64 68 76 74 75 71 59 60 72 74 81
27 24 19 17 23 19 20 24 42 45 52 56 42 42 38 26 27 24 33 32 36 36 39 46 54 62 61 62 66 69 70 72 71 71 66 60 69 76 71 56 57 63 82 76
37 39 22 18 21 24 23 26 55 48 68 52 46 45 36 28 26 17 29 28 26 36 37 37 39 44 53 54 56 64 68 68 74 73 71 69 62 69 74 61 61 73 77 67
37 32 18 16 16 17 22 30 24 38 55 64 67 46 36 26 24 23 21 25 25 23 32 36 37 38 42 44 50 52 55 61 67 71 71 70 69 66 66 69 63 58 64 58
28 37 23 19 16 18 20 20 34 44 68 68 60 56 44 28 23 18 18 26 22 22 27 32 34 37 35 36 38 43 48 46 47 51 62 68 68 70 71 70 72 66 61 64
23 30 33 24 23 22 25 26 30 38 53 65 63 50 34 33 25 19 15 15 17 20 26 30 31 33 37 34 36 42 51 64 58 74 65 65 66 65 70 74 76 74 83 76
23 33 38 30 24 18 21 24 28 65 53 54 68 47 26 25 26 17 16 13 15 19 22 21 27 28 28 39 47 54 61 52 43 37 69 69 68 68 84 77 86 92 78 100
26 31 40 35 24 22 23 23 24 31 50 53 66 56 31 26 26 15 15 13 15 18 22 23 24 22 26 32 37 46 56 58 55 54 59 76 71 75 60 74 65 76 89 99
52 28 33 41 32 30 32 30 25 28 59 53 62 44 34 31 27 23 20 19 18 16 18 27 28 24 24 32 40 54 63 62 64 69 66 64 70 71 80 80 91 100 98 99
62 47 29 24 26 27 28 29 30 28 32 44 46 44 36 32 25 21 18 18 17 17 17 27 31 34 36 40 47 52 58 62 66 65 65 69 76 87 96 100 98 97 99 99
64 60 42 42 25 25 29 30 29 25 26 33 33 35 28 23 22 30 20 19 20 20 19 20 31 43 46 50 55 60 66 66 65 64 68 75 86 91 93 96 98 98 99 99
88 78 50 48 37 34 48 35 27 27 24 23 41 34 23 24 26 26 22 18 20 19 20 24 39 46 51 54 56 64 72 76 76 80 84 85 87 87 82 76 80 96 100 100
92 95 75 71 60 68 35 25 25 27 23 20 18 18 20 18 15 19 17 19 23 21 25 28 41 54 60 63 67 72 80 83 85 88 89 90 86 74 70 80 87 92 95 89
81 98 97 76 58 52 45 27 27 28 27 21 20 18 18 15 14 23 18 18 18 23 30 37 50 61 70 74 79 82 80 80 84 82 72 65 63 68 73 76 81 86 83 79
88 92 100 96 69 72 47 33 20 21 40 20 23 25 25 22 36 39 22 21 25 28 33 43 52 61 68 73 75 74 75 74 69 70 69 68 68 69 71 76 77 77 78 82
98 99 98 95 95 70 37 26 21 40 43 25 21 22 24 30 35 22 25 26 27 33 42 49 54 58 63 67 69 70 71 72 72 70 68 69 69 71 76 82 85 87 91 92
88 95 98 99 92 82 53 34 35 38 20 19 18 20 21 21 22 26 25 30 36 41 48 51 55 59 61 62 63 66 69 72 75 75 77 81 85 87 85 79 86 75 80 83
91 75 90 87 89 63 44 53 53 53 44 31 23 18 21 26 26 26 30 35 40 43 49 53 55 58 61 62 63 66 72 76 78 80 82 87 87 75 65 64 76 79 76 68
51 59 73 59 52 56 45 41 45 56 57 48 29 23 27 24 24 29 35 40 45 49 53 55 57 61 65 67 68 66 73 77 79 82 84 75 73 75 71 68 68 70 75 78
65 62 66 68 53 51 47 49 49 43 55 47 41 32 28 29 29 26 36 42 46 50 55 57 61 64 68 71 73 74 78 80 82 80 72 68 68 69 70 68 64 66 66 56
48 65 79 86 55 56 45 42 50 48 64 52 46 39 33 33 33 36 40 45 48 53 56 61 66 69 72 75 80 84 86 84 76 70 68 64 61 55 50 46 40 32 26 20

GFSCGP_850_rhum_042.txt.gz
RH
24 34 41 33 32 27 28 30 30 23 27 39 50 48 57 67 75 71 65 64 76 80 86 73 84 94 99 98 99 100 99 94 90 87 81 76 62 52 51 50 46 56 66 61
30 38 30 28 28 29 29 30 29 22 23 29 52 53 52 67 71 76 64 64 67 79 82 73 70 82 83 91 92 98 99 96 84 75 73 66 60 55 56 54 51 51 57 65
35 31 26 29 29 30 29 31 29 22 21 26 51 54 54 47 58 54 63 57 67 70 66 68 66 69 74 81 80 79 80 80 77 72 67 71 73 65 65 55 54 52 71 70
33 25 27 30 30 26 34 26 23 21 28 33 28 44 70 53 55 53 54 53 67 74 66 60 54 49 50 58 71 73 78 87 76 78 79 75 70 65 60 56 57 64 70 68
41 34 32 32 28 26 31 27 24 23 28 29 30 36 33 52 55 52 55 49 59 69 64 66 58 48 37 42 49 57 74 79 61 60 64 64 61 61 57 60 59 59 63 52
34 24 27 28 25 25 22 20 24 29 36 47 34 38 44 63 45 41 45 43 51 66 65 59 54 56 50 42 41 42 50 54 60 62 57 55 54 53 54 53 52 44 38 49
37 35 28 24 28 24 24 30 44 47 55 58 39 46 44 30 37 40 43 43 42 51 67 69 67 64 61 51 47 48 50 52 54 58 63 64 62 63 61 46 52 60 58 54
38 50 30 24 27 28 29 32 54 54 70 47 49 48 38 27 28 30 34 39 38 44 53 59 58 52 54 57 55 52 49 47 46 50 57 61 61 62 56 56 67 74 64 55
46 40 25 22 21 23 28 34 30 40 57 66 55 46 34 30 28 29 25 33 37 43 45 47 50 50 49 55 55 54 63 60 54 48 52 53 55 60 66 69 74 80 70 57
34 44 28 22 21 22 23 23 35 51 55 65 58 52 44 33 25 24 25 36 37 38 43 41 45 46 42 44 44 50 53 55 50 62 64 65 67 67 66 65 68 79 71 62
29 34 35 29 32 29 27 30 34 40 60 64 66 57 45 35 29 24 23 19 29 33 34 38 40 40 40 38 45 43 50 59 66 67 69 66 68 70 72 74 78 81 76 82
46 37 42 33 23 24 24 25 32 49 53 63 71 46 32 30 35 25 21 16 16 19 20 24 31 37 39 42 47 54 48 55 54 60 73 84 89 88 88 92 82 79 98 94
67 70 54 42 31 28 30 26 25 40 59 62 71 52 30 32 29 23 16 15 19 21 24 24 27 31 35 39 40 43 46 44 49 76 78 71 63 61 73 74 78 79 99 90
67 74 66 60 38 32 33 27 26 30 61 50 56 40 36 32 34 28 20 17 16 24 25 25 27 28 31 33 35 39 42 42 54 65 71 62 59 45 57 80 83 73 83 95
79 94 82 69 50 30 28 30 33 33 37 47 40 47 34 33 34 30 22 20 18 19 22 23 22 24 30 26 30 35 39 44 51 57 58 61 62 58 67 75 71 90 99 100
80 94 88 78 52 38 31 26 30 29 34 37 33 37 34 28 27 28 23 20 20 18 17 18 28 25 28 28 28 30 44 52 60 61 66 65 65 69 65 72 99 99 100 100
85 94 98 89 64 48 50 32 26 34 31 31 43 38 30 31 31 32 26 23 20 18 17 18 26 28 32 32 32 38 50 59 64 66 76 85 86 79 92 100 100 98 100 100
92 92 99 97 80 93 44 27 23 30 30 28 26 24 27 26 23 22 23 24 21 19 18 18 20 27 34 38 48 55 67 74 80 90 92 97 100 100 100 100 100 98 91 84
76 91 100 93 95 70 45 37 33 35 32 27 28 23 21 17 19 21 15 23 16 16 18 19 21 21 37 49 56 62 73 81 85 90 97 100 100 99 98 91 89 92 94 98
86 86 86 98 88 96 58 37 28 27 47 27 24 25 27 23 34 34 17 17 18 17 20 22 26 38 48 56 61 69 79 87 88 90 90 94 93 88 80 79 79 78 84 83
98 99 97 95 94 86 65 54 34 51 49 36 25 25 24 35 31 15 17 19 18 19 26 30 32 43 56 64 74 80 84 84 82 84 84 78 74 68 64 64 71 74 77 79
85 95 98 93 98 94 66 58 61 67 63 61 58 32 24 23 20 19 21 24 24 25 31 34 40 57 69 74 76 78 77 75 75 73 68 66 65 66 68 72 77 80 80 79
81 72 84 82 74 62 61 62 56 66 68 65 63 54 40 28 22 23 23 24 24 26 33 40 46 59 66 67 67 67 70 72 71 70 68 70 74 78 83 83 83 88 95 91
52 61 77 82 58 59 52 52 49 49 46 52 47 48 40 42 31 24 25 29 31 38 41 44 56 61 64 66 66 65 67 71 71 74 80 86 90 97 96 96 85 76 81 78
68 68 68 70 58 49 45 32 39 36 42 42 45 47 46 41 40 43 34 37 42 46 51 54 57 59 61 64 66 67 67 71 78 85 91 94 91 78 77 85 93 92 87 87
74 77 83 78 46 42 35 26 26 38 40 53 45 47 41 43 41 41 45 49 47 50 54 57 59 61 65 69 71 74 76 78 81 89 90 85 84 82 76 76 80 82 78 76

GFSCGP_850_rhum_045.txt.gz
RH
28 36 42 36 32 28 28 30 33 30 24 33 46 48 52 77 86 82 81 75 67 63 75 91 78 98 98 99 99 99 99 98 96 88 85 84 74 85 67 56 62 61 72 61
34 38 33 31 31 32 33 35 36 30 25 32 40 50 53 75 81 78 71 70 60 64 76 79 78 87 98 99 99 100 98 100 91 80 81 78 74 67 60 51 50 49 53 47
44 33 30 32 33 35 36 38 35 32 26 36 46 44 59 52 66 74 72 58 60 58 66 71 67 62 79 82 89 97 99 96 92 85 82 78 77 65 58 51 51 49 49 53
40 30 30 35 33 34 40 31 30 34 30 39 34 49 34 57 62 65 67 70 61 59 60 66 65 58 48 59 78 83 95 96 92 90 89 83 80 71 57 51 49 48 49 48
48 37 36 35 32 31 35 30 34 35 34 33 32 39 32 59 62 60 59 60 61 58 53 55 57 52 38 43 53 69 77 87 93 94 88 80 76 72 67 57 51 46 51 49
38 28 30 32 28 29 27 30 30 34 41 52 35 38 42 53 46 43 45 47 49 52 53 51 54 61 52 44 46 54 63 68 74 73 74 69 62 63 68 65 65 58 53 50
36 38 32 27 32 28 31 33 49 48 57 56 36 52 46 31 39 41 43 43 39 45 50 53 54 56 53 49 45 46 47 54 68 72 66 65 66 68 70 63 61 53 52 48
40 46 35 33 35 36 37 37 57 53 67 44 49 56 40 33 27 25 28 28 38 42 50 52 48 49 49 48 43 40 41 42 52 58 55 53 56 64 64 56 56 49 45 44
48 43 26 27 27 31 37 41 32 42 61 66 54 46 35 34 31 32 32 38 43 39 46 45 51 48 48 47 45 36 33 34 39 40 44 50 49 47 48 52 48 46 50 53
36 45 33 27 25 27 28 28 38 54 54 69 56 57 45 28 25 26 33 32 38 39 39 40 49 48 45 44 45 49 39 34 30 34 39 42 47 50 48 47 52 61 64 60
33 37 37 30 34 33 31 36 36 38 57 46 48 51 48 32 32 29 29 23 25 35 38 39 36 43 43 45 48 49 52 46 45 43 41 44 46 54 61 63 65 63 69 76
63 51 54 38 26 25 27 32 37 44 47 69 68 38 29 36 36 37 33 23 18 20 29 36 38 36 46 48 54 53 47 51 53 55 58 59 56 57 63 66 66 74 79 81
54 78 79 51 34 31 34 30 30 45 54 44 59 40 32 29 32 27 25 18 14 16 16 26 33 36 38 42 48 54 50 45 52 62 68 77 76 71 68 67 58 64 83 88
67 79 85 94 90 75 66 48 30 35 55 49 46 37 33 34 34 32 23 19 17 14 17 20 22 24 28 31 34 42 41 38 44 60 69 74 77 77 73 75 76 77 84 90
70 76 91 86 63 55 58 57 48 38 34 42 38 45 34 34 34 31 23 21 20 16 17 23 24 20 21 26 29 35 36 38 44 52 63 67 74 82 80 78 82 80 99 97
77 73 86 86 54 55 58 52 50 41 34 42 36 41 34 30 28 30 27 24 20 19 17 22 26 24 22 25 25 24 31 33 39 43 47 64 74 82 85 84 78 83 98 100
88 92 91 84 75 62 56 62 48 38 30 36 42 35 28 35 37 33 26 25 24 21 19 17 20 25 26 25 24 24 26 27 34 43 49 62 72 77 82 85 76 85 97 100
96 92 97 97 81 72 33 47 35 44 33 28 30 30 31 31 24 20 19 24 23 23 22 21 18 17 22 27 31 28 32 34 41 51 57 65 78 82 85 93 97 100 100 100
78 91 93 94 95 64 43 40 46 73 71 43 31 28 25 19 21 22 17 19 21 16 16 17 18 18 18 28 35 37 44 45 50 58 60 63 69 97 100 100 99 99 99 99
82 82 86 98 94 82 26 40 46 61 80 49 59 43 31 26 37 32 16 14 13 14 17 16 18 19 19 28 41 50 52 52 60 71 74 72 80 99 100 100 100 100 100 99
99 99 93 94 94 84 59 54 54 93 79 69 66 66 55 41 27 18 18 16 15 15 16 16 19 19 23 35 46 57 61 69 80 87 91 95 98 98 100 99 99 96 99 100
90 96 96 87 99 91 51 77 76 81 68 70 65 61 62 44 37 25 19 19 16 16 18 22 25 29 37 44 54 66 77 84 92 95 97 100 100 100 98 98 100 100 96 89
85 75 88 82 79 58 61 63 50 53 62 67 67 54 58 44 35 33 27 27 23 21 21 26 30 37 46 58 68 75 86 90 90 92 95 95 93 89 85 85 85 83 82 82
65 62 75 77 52 52 46 48 48 54 53 57 53 52 51 49 45 40 37 40 50 44 32 34 43 51 60 77 85 89 85 83 85 88 88 88 87 88 91 92 92 93 95 95
58 63 66 63 57 54 42 42 40 48 50 52 48 49 48 49 46 44 43 41 42 55 58 56 60 64 74 80 80 78 74 77 85 86 86 90 94 99 99 99 100 100 100 100
93 88 94 85 87 92 67 57 55 49 46 41 50 41 41 42 43 46 46 49 48 48 59 65 68 68 71 74 75 76 76 80 80 85 93 99 100 100 100 100 99 99 97 96

GFSCGP_850_rhum_048.txt.gz
RH
38 43 44 39 34 28 29 31 33 30 26 25 30 37 30 87 100 98 88 83 83 78 78 82 79 98 98 97 96 100 100 100 97 93 100 89 69 62 57 57 73 65 61 59
38 43 36 32 33 32 31 32 36 31 27 29 34 40 48 76 89 91 88 79 71 76 86 84 92 91 98 98 98 98 100 99 100 94 100 90 74 73 60 71 80 64 70 66
42 35 32 33 37 37 38 40 37 34 34 31 43 43 48 50 70 74 80 73 65 60 70 81 91 80 98 99 98 96 92 96 99 100 100 94 84 75 61 80 75 63 54 49
46 35 36 36 36 35 43 36 34 35 37 45 36 55 36 38 56 73 70 74 69 61 59 64 73 75 67 80 91 95 98 92 95 96 93 88 76 70 67 75 63 61 57 50
50 43 42 39 37 33 35 34 37 36 43 37 37 44 36 58 45 53 60 58 57 54 56 55 53 60 59 63 72 80 89 96 90 84 81 79 76 77 68 72 58 53 51 51
39 33 35 34 32 32 29 33 37 40 48 60 44 43 42 42 40 35 42 43 43 43 50 54 55 57 63 61 70 77 84 84 96 93 86 81 80 73 71 62 59 57 52 51
37 41 33 28 34 33 32 40 53 51 64 66 41 47 38 29 33 36 32 28 33 37 41 50 56 56 56 55 48 55 67 73 84 90 89 86 84 79 74 69 63 61 56 50
45 46 42 35 37 40 42 43 62 58 69 46 51 56 42 35 28 24 27 27 29 35 36 39 42 48 48 50 50 40 40 52 63 68 65 70 76 74 75 70 70 68 66 59
47 42 27 31 34 34 42 46 35 46 57 69 52 44 35 32 35 34 30 25 25 32 35 34 39 41 44 46 46 45 38 34 38 45 50 53 61 67 65 63 61 67 68 60
38 43 33 27 28 29 32 33 47 58 54 64 56 56 44 31 33 30 29 27 23 33 37 36 39 41 39 39 41 44 44 40 31 36 42 46 47 52 60 65 66 68 61 58
34 42 41 30 34 35 36 40 38 44 60 58 58 51 47 32 30 28 29 24 22 26 34 28 31 34 38 44 40 39 43 44 42 36 35 40 44 44 43 43 42 48 47 42
60 55 57 41 30 28 29 32 42 59 50 72 72 45 27 39 34 38 34 24 20 23 23 26 25 28 37 40 46 41 41 43 42 45 41 39 37 38 45 48 47 46 53 52
60 76 84 52 37 60 59 44 52 47 54 56 70 51 30 35 35 28 28 21 18 17 19 24 28 27 27 30 36 38 43 41 44 47 51 48 44 44 42 41 42 48 56 56
60 79 70 90 81 77 79 63 55 61 65 54 48 42 33 31 36 31 25 20 16 16 17 19 22 20 24 28 32 33 32 37 47 50 52 54 55 54 53 54 54 50 55 59
64 70 82 76 73 68 60 56 54 55 63 64 52 44 36 34 31 30 20 19 20 18 17 17 18 16 19 24 29 27 25 32 36 44 49 44 50 59 63 65 68 68 71 74
73 71 86 89 72 67 62 55 52 52 54 57 50 45 34 29 29 32 27 25 25 21 16 15 15 16 20 19 19 22 20 24 30 35 34 39 48 58 65 73 81 84 84 85
83 86 88 77 72 64 73 58 50 47 41 48 58 50 34 32 34 35 27 24 25 22 20 17 16 16 19 20 19 21 20 23 28 33 39 43 51 59 71 78 88 91 91 97
84 86 96 96 81 82 42 47 44 47 49 54 52 46 45 38 24 20 20 24 20 20 18 20 20 18 17 18 20 22 25 27 30 41 44 47 51 61 79 87 91 94 100 100
80 93 97 97 96 69 47 38 39 55 30 46 40 52 66 56 32 27 20 19 18 16 16 18 19 21 21 19 18 24 29 32 33 42 46 54 59 66 83 96 100 100 100 100
87 78 85 93 97 86 41 48 58 56 60 66 74 77 74 72 69 35 21 18 17 16 16 15 16 19 20 21 21 23 32 38 44 52 52 61 68 82 99 98 100 100 100 100
97 99 95 81 94 79 62 54 58 67 57 63 59 63 72 81 66 60 51 33 20 16 16 16 15 18 20 22 23 25 36 48 51 62 67 75 85 94 100 98 100 100 100 100
89 96 91 85 97 87 50 70 64 57 47 48 50 54 66 69 61 62 52 40 30 23 18 17 22 22 24 24 29 41 52 61 71 78 85 95 88 93 99 100 100 100 100 98
87 78 88 82 76 58 58 63 50 54 50 54 60 51 52 64 60 60 59 46 39 36 26 26 34 43 44 54 61 65 74 81 90 97 99 99 100 99 100 100 100 98 98 99
74 64 81 76 57 59 44 42 45 51 52 53 52 44 53 68 60 61 56 55 47 48 60 51 60 68 72 80 82 87 88 92 95 98 99 100 100 100 100 100 100 100 98 93
66 69 72 66 54 63 44 60 76 66 58 61 57 46 57 65 63 60 60 55 57 55 61 66 79 85 90 96 92 94 93 92 91 91 93 96 96 92 88 87 87 88 88 91
88 90 88 82 98 98 92 79 83 75 70 79 71 57 54 86 63 65 62 65 68 65 65 69 88 86 91 97 96 92 88 89 85 86 90 90 89 90 93 94 95 99 100 100

GFSCGP_850_rhum_051.txt.gz
RH
42 38 37 30 29 26 26 28 28 26 22 24 26 26 23 40 85 82 80 84 89 82 86 69 74 89 97 98 100 100 100 100 100 100 100 99 91 84 84 68 72 69 59 57
41 47 33 30 30 28 28 28 28 25 26 26 24 26 27 46 66 76 76 80 79 87 78 78 76 70 99 97 93 100 100 100 100 98 95 88 84 79 79 65 70 77 60 58
42 37 32 30 33 33 32 32 33 28 29 27 34 31 24 33 54 66 79 73 76 74 68 77 77 71 67 98 96 94 97 99 99 96 89 86 86 94 90 80 78 68 58 60
39 33 33 33 33 32 38 32 30 31 30 26 31 38 30 25 30 43 48 74 72 76 68 63 68 69 62 64 96 99 99 100 100 99 100 93 87 81 80 64 60 62 69 69
41 44 37 37 30 30 30 33 32 30 33 38 36 38 32 31 29 27 28 47 64 64 64 59 53 53 63 56 69 90 98 100 100 99 96 97 89 72 64 57 54 55 62 59
32 37 33 29 32 29 30 29 37 41 42 51 38 35 30 24 23 24 23 29 36 63 55 57 55 53 58 59 55 72 81 91 95 100 98 99 91 79 73 74 58 62 82 63
44 38 33 30 35 33 30 36 42 48 53 48 39 39 29 25 23 25 22 21 25 38 50 54 59 58 54 60 52 57 70 77 86 87 88 94 95 81 69 66 62 64 70 66
40 48 38 35 35 38 38 35 44 48 54 39 43 42 27 27 23 26 26 26 26 30 33 44 38 50 51 50 56 47 52 63 70 78 83 81 81 85 82 77 67 68 73 63
47 38 32 36 35 29 41 42 33 45 53 51 42 35 26 24 26 27 27 28 22 22 28 34 45 42 50 48 46 47 40 40 52 53 62 70 78 78 77 78 73 72 66 66
40 42 32 30 30 33 31 32 43 50 48 50 44 44 31 28 24 23 26 25 20 20 24 35 40 39 41 46 48 49 45 37 28 35 42 46 51 62 73 76 70 67 63 61
35 40 40 30 34 34 37 37 39 40 48 45 49 41 38 29 28 25 23 23 21 20 22 30 34 35 39 43 48 49 50 48 42 32 30 38 41 47 51 48 44 42 46 49
62 50 50 35 30 30 30 36 38 49 45 59 59 41 29 33 33 30 27 26 22 20 20 22 30 36 40 45 45 43 47 50 47 45 40 33 35 40 40 39 40 47 50 46
63 67 68 53 42 53 61 59 55 58 55 53 57 40 26 28 28 28 31 21 15 18 16 19 22 28 31 39 40 38 40 39 47 52 51 47 42 38 34 34 35 40 42 42
60 64 66 63 62 65 66 52 47 51 67 58 53 46 31 31 32 27 24 24 23 22 18 17 17 18 22 29 35 32 33 40 46 48 50 54 52 47 45 40 41 40 38 43
61 60 62 49 52 62 57 50 45 51 48 55 42 46 39 34 32 29 26 26 26 21 21 19 17 16 17 20 26 29 31 33 39 47 49 41 46 53 55 54 50 46 46 46
60 68 78 76 66 59 62 52 47 46 44 43 48 50 36 33 31 33 32 29 30 24 20 20 18 17 17 17 18 22 19 21 26 30 30 38 42 48 52 57 60 64 63 57
64 82 79 68 71 60 61 58 48 39 33 36 38 27 38 39 36 37 34 32 31 21 21 20 20 19 17 16 15 17 16 19 23 21 26 33 38 38 42 53 69 73 77 83
70 82 91 86 80 71 36 42 40 43 38 33 36 40 40 42 50 56 48 36 29 24 18 17 16 16 18 18 17 18 20 19 22 23 23 29 34 36 43 55 68 81 91 97
63 81 89 87 79 55 39 34 32 40 30 45 56 55 54 56 65 52 44 47 50 46 29 23 20 16 18 20 20 20 22 25 25 25 27 31 38 46 51 59 69 89 100 100
85 74 86 92 76 76 43 53 55 47 47 48 57 49 51 60 70 53 55 59 56 42 35 29 19 19 19 16 19 23 23 24 29 27 34 41 49 56 61 74 97 100 100 100
88 96 90 92 86 68 49 44 54 55 41 47 55 50 59 60 58 62 60 62 65 50 36 30 25 22 20 19 19 25 27 33 35 42 50 56 64 70 86 98 99 100 100 100
71 77 81 79 94 84 48 64 62 46 51 56 53 55 65 64 54 61 74 73 65 54 50 48 36 24 26 24 24 30 36 42 53 67 76 85 95 100 99 99 100 100 100 100
78 68 72 71 65 54 54 61 50 64 69 66 67 61 58 64 62 53 80 80 70 67 70 75 73 42 41 34 44 44 54 75 87 94 100 99 99 100 100 100 100 99 100 100
71 66 70 68 51 50 49 52 78 75 89 83 71 72 67 73 61 62 80 88 76 76 90 96 99 92 77 81 85 90 82 97 100 100 99 99 100 100 100 100 100 100 100 100
56 66 69 65 53 63 58 91 95 86 78 76 74 82 81 73 75 92 87 82 89 89 98 99 100 100 100 100 100 100 100 100 100 100 100 100 100 100 100 100 100 100 99 98
67 66 74 65 94 95 86 89 100 98 91 86 82 83 76 64 82 100 86 95 94 95 100 100 100 100 100 100 100 100 100 100 100 100 99 100 100 100 98 93 91 95 94 98

GFSCGP_850_rhum_054.txt.gz
RH
32 29 27 17 17 16 15 17 15 11 13 17 17 16 14 16 27 35 38 45 52 52 61 74 90 83 99 98 99 99 100 100 98 96 99 100 96 90 73 75 65 84 61 55
37 37 21 19 18 18 17 18 16 13 16 17 13 15 13 16 22 29 34 40 47 52 62 72 86 94 85 97 98 100 98 100 100 91 98 99 91 87 78 74 69 80 69 57
31 22 22 24 24 24 20 20 19 18 18 17 18 18 15 14 23 30 34 36 42 49 55 67 80 87 96 100 98 99 100 98 99 99 100 100 100 97 94 77 91 76 80 70
25 17 27 28 25 21 24 18 20 20 22 17 17 23 14 15 14 20 24 38 40 46 52 59 71 81 87 91 100 95 100 100 98 98 100 98 95 94 84 73 68 88 97 76
31 26 25 27 24 18 21 18 23 21 23 20 19 23 15 13 17 13 12 21 35 41 50 56 65 70 80 86 97 100 96 98 99 100 98 97 96 92 82 86 85 93 74 76
24 24 22 21 20 20 19 23 24 25 23 33 20 20 16 13 16 13 11 14 23 36 46 54 62 70 75 84 91 99 99 98 100 99 99 87 83 88 84 77 75 74 76 76
29 26 28 27 21 23 22 26 32 34 34 33 19 24 19 16 14 13 13 12 22 32 43 51 59 68 71 81 89 94 93 98 98 99 100 96 92 74 92 86 78 70 74 69
26 36 30 28 26 28 28 25 28 35 36 26 28 32 21 15 15 16 14 16 20 32 42 46 52 63 69 74 77 59 89 94 99 99 99 100 100 96 95 88 80 69 60 57
26 25 24 27 27 23 28 35 23 28 37 37 27 24 19 15 15 15 15 16 17 22 35 41 47 58 66 74 57 50 47 78 90 97 98 97 100 100 97 85 77 68 61 64
28 33 25 27 27 26 28 22 38 34 41 41 26 27 24 19 16 14 13 15 14 16 22 31 43 54 64 71 74 50 56 73 80 90 96 97 98 99 99 97 88 72 69 62
27 34 36 29 33 31 33 33 29 26 29 36 34 27 19 20 23 25 18 15 17 19 23 32 41 51 61 68 76 54 55 81 79 85 92 96 95 96 98 96 93 91 80 70
28 36 39 29 28 24 24 27 28 35 37 35 42 28 19 23 21 20 20 20 20 21 22 27 42 52 59 65 69 74 63 71 69 78 86 86 96 97 96 77 65 67 72 83
49 36 35 32 30 30 34 35 33 36 38 39 51 33 19 19 20 20 20 20 19 19 20 24 36 48 56 60 65 67 68 48 68 80 73 65 65 74 59 47 50 63 74 91
51 45 39 30 30 33 50 42 37 39 47 38 36 31 27 23 21 19 20 21 20 20 20 20 23 37 48 54 59 63 66 55 62 79 80 70 52 38 32 35 46 48 45 53
50 60 42 38 37 35 37 38 35 38 38 44 33 31 25 21 18 20 24 24 22 21 22 22 22 23 32 48 58 61 65 68 56 73 79 56 45 50 53 48 44 44 46 46
46 42 42 40 32 41 44 34 31 30 29 30 29 30 20 18 18 19 20 22 25 25 23 23 22 24 25 26 45 56 58 54 57 53 46 62 70 56 54 57 66 69 55 54
50 57 47 38 46 39 39 36 31 28 24 23 25 19 16 19 21 24 24 29 36 35 32 28 27 27 30 23 21 22 29 62 53 40 49 59 58 57 59 62 64 70 88 96
51 65 64 50 66 55 22 29 29 30 24 20 20 20 26 31 36 41 41 40 48 53 55 51 43 36 29 29 28 24 41 54 58 41 53 61 52 52 72 71 74 92 96 97
47 56 69 67 53 34 31 21 23 27 19 26 29 29 29 33 38 31 44 47 54 60 62 58 51 46 42 33 32 22 36 44 57 48 32 37 56 70 80 76 80 98 99 100
50 51 61 70 56 56 30 36 37 33 33 32 35 36 36 39 43 34 44 52 58 59 62 62 64 60 46 33 33 31 22 36 48 40 58 60 60 75 83 88 86 69 85 98
76 69 74 63 72 47 31 26 36 54 52 40 39 38 38 44 45 51 56 56 59 66 68 72 78 76 62 52 49 29 26 30 49 56 50 66 79 87 80 74 81 82 97 99
69 68 70 57 72 77 33 38 45 58 48 46 43 42 45 50 55 57 64 65 67 71 73 78 89 91 92 89 74 56 52 61 58 50 51 58 63 73 80 84 93 98 99 100
66 44 48 44 46 40 45 49 51 62 61 62 67 65 62 56 59 72 75 78 75 76 82 93 100 100 99 92 97 91 62 66 76 74 83 90 97 100 100 100 100 100 97 99
39 38 52 48 37 36 34 48 72 74 74 73 71 74 78 78 73 72 76 76 73 72 80 99 98 100 100 100 99 100 100 100 100 100 100 100 100 100 100 100 99 100 100 100
35 38 47 42 34 32 38 67 79 80 79 78 76 74 82 82 77 86 85 93 78 82 82 98 100 100 99 100 100 100 100 100 100 100 100 100 100 100 100 100 100 100 100 100
35 39 50 47 61 66 61 69 88 82 84 84 83 79 80 85 84 91 97 99 90 87 94 96 100 100 99 100 100 100 100 100 100 100 100 100 100 100 100 100 99 100 100 100

GFSCGP_850_rhum_057.txt.gz
RH
16 22 24 23 20 17 16 16 15 13 10 12 13 12 12 11 12 15 22 23 30 34 40 47 66 70 84 100 98 98 96 92 98 99 100 99 89 97 80 76 74 59 62 54
24 25 16 14 15 15 16 17 17 13 11 14 12 10 10 10 11 13 18 22 26 34 38 49 65 76 83 99 98 100 99 99 98 99 100 93 94 94 71 59 68 60 60 51
28 18 19 18 18 17 18 19 18 17 12 14 13 12 11 10 10 12 16 17 20 29 36 47 59 74 84 93 98 95 99 100 97 100 99 97 99 97 89 77 70 69 64 79
40 16 21 22 21 20 24 16 16 16 17 21 12 18 12 11 11 13 14 15 18 24 33 40 53 66 82 84 99 98 99 99 99 97 99 96 97 98 84 77 69 73 65 59
33 23 20 24 21 19 22 16 16 18 20 20 18 18 15 11 12 11 11 13 17 22 29 37 47 58 70 75 96 99 99 99 99 100 95 99 99 90 81 80 73 72 77 63
25 22 23 27 19 16 15 18 18 20 21 31 22 18 16 13 11 12 10 10 12 21 26 34 42 53 62 70 83 99 93 97 98 99 98 99 98 95 90 80 76 81 86 79
20 27 21 21 24 17 18 22 31 33 34 35 19 20 17 12 12 12 11 10 12 16 23 32 40 49 56 67 76 94 99 98 98 98 98 99 99 96 95 88 79 76 88 92
27 38 24 22 24 22 21 23 30 39 40 28 18 24 16 12 12 12 12 11 12 18 24 31 37 46 52 64 73 79 90 97 99 99 100 100 100 97 100 97 86 73 63 65
25 18 15 20 21 22 24 28 18 27 29 36 21 20 15 14 13 12 11 11 13 16 23 28 33 41 50 58 70 75 75 82 95 98 99 98 95 98 98 96 86 84 77 61
23 27 14 18 23 22 23 18 27 28 44 46 27 27 27 16 15 14 13 12 12 14 17 22 29 35 46 54 62 76 71 69 78 94 99 98 95 92 87 86 87 82 80 68
22 30 26 23 29 28 27 30 29 24 28 38 40 27 16 21 22 21 18 14 17 18 19 20 23 29 40 50 58 72 76 66 65 79 93 96 97 96 96 94 86 91 89 85
31 34 35 39 21 21 22 27 32 36 43 30 38 33 19 20 19 19 18 17 17 17 17 20 24 32 38 48 54 64 76 72 65 65 80 86 88 90 94 90 89 90 92 88
51 37 42 36 30 26 27 25 25 28 30 50 55 36 17 17 18 18 18 18 18 18 17 17 21 32 40 46 51 58 72 74 69 67 70 79 82 88 86 83 89 91 90 92
54 51 34 36 33 23 32 30 28 30 42 39 40 32 22 21 20 17 16 19 21 20 19 18 18 20 31 42 48 53 58 71 72 69 70 75 69 56 60 70 79 83 89 91
64 65 51 28 32 30 28 32 32 33 31 37 31 30 21 19 18 15 16 16 17 19 24 26 24 21 21 27 41 48 53 58 70 69 69 71 66 66 81 85 86 85 89 84
55 74 56 56 32 32 36 31 28 26 24 26 24 24 17 16 17 16 17 16 18 22 32 38 38 33 28 26 24 38 47 53 61 70 70 70 76 84 84 85 86 88 88 92
44 50 73 72 40 36 41 34 30 29 25 26 30 21 15 16 16 18 21 26 28 33 42 47 48 47 44 38 31 31 37 50 55 63 69 70 73 79 83 87 88 90 88 92
48 45 46 64 52 82 28 21 20 24 21 18 17 16 18 21 23 25 25 34 40 44 49 50 51 53 52 48 42 37 30 37 47 55 63 67 71 74 79 85 87 88 90 90
40 47 56 54 49 32 22 20 21 22 18 16 17 23 24 26 28 25 35 40 44 47 51 53 56 60 63 62 55 44 33 32 34 46 56 64 66 70 73 78 82 86 88 90
39 44 58 56 56 49 26 21 26 21 25 24 28 31 30 30 39 28 39 44 47 45 51 55 61 66 70 76 74 62 39 32 35 35 47 58 62 66 70 74 80 85 90 92
58 56 63 56 53 35 20 23 23 43 44 36 35 34 35 36 34 38 42 48 51 52 54 61 72 82 95 92 98 91 73 55 39 38 41 55 62 64 70 75 80 88 93 99
53 64 64 56 63 58 25 26 37 54 43 44 44 46 52 48 42 39 51 54 58 58 61 65 77 92 85 95 98 97 96 83 66 59 52 55 62 69 75 78 81 92 99 100
58 43 47 40 42 34 31 45 54 54 50 52 53 54 55 51 48 51 55 57 66 68 75 79 86 91 88 98 98 98 98 100 98 95 76 70 75 84 90 95 99 99 100 100
39 53 46 60 32 42 32 48 56 57 58 58 57 56 57 61 62 60 65 68 75 82 90 95 91 91 91 88 98 99 100 100 99 100 100 100 100 100 100 100 100 100 100 100
33 36 35 40 34 31 30 53 66 63 61 62 62 63 64 68 67 68 70 82 93 99 99 99 98 100 95 89 97 98 100 100 100 100 100 100 100 100 100 100 100 100 100 100
32 34 46 46 55 54 45 58 67 65 67 69 72 72 74 74 75 80 90 100 100 100 100 100 99 98 100 93 96 100 98 100 100 100 100 100 99 99 100 100 100 100 100 100

GFSCGP_850_rhum_060.txt.gz
RH
32 22 23 30 26 25 21 19 18 15 12 12 14 13 10 9 11 15 17 18 20 30 34 44 51 55 76 87 98 100 88 84 81 85 98 100 99 100 100 95 77 92 85 77
54 30 14 16 21 23 23 23 21 16 12 12 12 13 10 9 10 11 12 18 21 25 33 42 55 61 74 88 96 98 94 84 86 94 100 100 99 98 98 97 75 93 77 78
67 31 18 17 16 21 22 23 21 19 15 12 14 17 14 9 8 9 12 12 18 22 31 42 56 67 74 87 96 97 98 88 94 97 100 100 100 92 92 95 68 61 77 69
74 52 34 38 23 20 25 16 16 17 19 23 14 24 14 11 10 10 10 13 15 17 29 40 52 67 72 84 94 97 99 96 96 98 100 97 94 97 85 68 59 80 65 62
80 50 53 38 30 22 25 19 20 19 21 23 20 22 16 11 12 11 12 13 14 15 22 35 48 60 73 79 91 97 99 99 94 95 97 100 94 95 81 83 71 72 72 67
46 38 43 29 18 20 19 20 22 22 24 36 24 23 21 15 12 10 10 10 13 15 19 30 42 52 66 75 87 96 98 99 99 92 98 99 99 94 88 71 78 72 65 66
35 35 24 27 32 23 24 27 36 42 42 44 23 24 23 15 11 11 11 10 10 16 21 27 40 50 59 69 79 92 98 98 100 94 93 98 98 94 91 73 61 64 70 68
55 60 29 24 29 29 29 30 37 56 56 36 21 26 20 13 10 12 12 11 12 16 19 23 33 44 54 64 74 82 98 100 100 100 98 100 99 99 99 94 79 66 68 77
49 40 22 25 27 24 34 47 23 34 34 47 38 20 14 12 13 11 11 11 11 13 18 23 30 40 48 60 68 78 86 97 98 99 99 99 99 98 98 93 88 75 67 69
28 46 25 19 22 24 31 27 42 34 53 62 36 26 23 19 16 13 13 13 12 14 17 23 26 35 44 52 64 72 79 83 92 87 95 100 100 99 98 100 95 91 82 67
26 34 35 25 24 30 31 35 40 40 32 52 54 45 32 27 24 22 20 18 18 17 18 18 23 28 38 47 56 66 74 76 81 85 85 94 96 99 99 99 96 92 89 84
49 34 42 43 28 21 24 29 32 54 58 39 50 41 26 27 22 23 22 18 17 17 17 19 21 28 30 43 52 60 68 72 70 76 79 77 74 98 92 84 85 91 89 85
48 45 53 40 36 33 32 31 28 34 52 92 73 56 24 19 20 19 20 19 20 20 19 20 21 27 33 37 46 54 62 68 70 68 76 78 73 70 65 69 80 84 86 91
40 66 58 50 56 66 65 33 39 40 82 81 81 51 44 36 26 19 18 17 17 17 23 29 33 35 33 36 41 47 54 64 67 69 67 76 76 66 46 50 70 83 85 86
61 93 61 48 44 40 40 45 35 43 62 74 48 41 44 44 41 19 15 16 17 20 29 37 42 43 43 41 37 41 48 54 62 68 69 67 75 82 86 84 74 75 83 92
63 82 75 65 46 34 34 38 63 59 28 29 40 56 32 27 16 17 18 19 23 29 41 45 45 47 50 49 47 44 43 47 53 63 69 68 70 75 86 91 96 99 95 92
56 70 90 74 51 42 47 34 42 46 24 23 30 24 24 18 17 18 23 25 38 41 46 49 51 54 56 58 56 49 43 40 41 52 59 69 70 71 76 84 92 92 92 98
48 49 74 83 85 78 32 20 21 27 24 23 23 22 19 20 22 22 35 41 41 42 47 50 53 57 63 68 69 61 51 43 40 38 50 58 69 71 72 78 88 85 87 95
40 47 75 95 74 65 43 24 22 24 26 18 17 17 20 25 28 34 38 42 43 45 46 51 57 65 74 78 67 62 52 52 49 42 35 43 55 64 71 74 79 86 93 96
39 47 63 66 74 83 33 25 22 19 31 22 26 30 30 29 49 52 43 42 46 52 54 59 64 72 83 73 76 77 75 69 71 64 62 47 38 53 64 70 74 80 88 92
58 63 71 70 69 45 21 19 22 39 59 40 37 41 42 44 40 38 40 46 47 58 63 66 68 77 90 81 85 95 100 96 81 82 70 55 42 44 56 66 70 75 82 88
57 70 73 62 63 62 20 24 33 61 60 55 52 47 51 47 44 46 54 56 61 64 69 79 81 80 76 71 88 97 94 98 99 95 97 79 72 53 61 64 66 74 79 87
93 45 52 43 45 33 32 50 53 53 57 59 53 50 51 51 52 52 58 65 70 77 85 90 96 95 86 85 88 93 98 93 96 98 98 99 97 85 80 71 71 72 80 90
82 57 44 54 40 27 55 54 53 54 55 55 56 58 59 60 60 62 65 80 86 96 99 100 100 100 99 99 98 98 98 100 100 97 98 100 100 100 100 100 100 99 98 100
74 88 55 53 57 75 86 74 58 58 61 64 64 67 69 69 70 76 88 94 99 99 100 100 100 100 100 99 99 100 100 99 100 98 99 100 100 100 100 100 100 100 100 100
46 83 76 79 73 85 88 68 63 66 68 72 70 72 74 76 80 90 99 99 100 100 100 98 99 98 100 100 100 99 98 100 100 98 100 98 100 99 100 100 99 100 100 98

GFSCGP_850_rhum_063.txt.gz
RH
37 39 40 24 30 30 31 31 33 27 19 20 19 16 15 16 15 24 19 18 28 38 40 43 44 48 58 72 75 98 92 100 96 100 98 98 100 100 100 100 96 88 76 78
65 55 37 24 20 32 31 32 34 26 19 21 20 18 15 14 14 17 22 19 18 37 40 44 45 48 55 63 77 94 98 88 92 87 88 98 94 96 94 99 100 92 99 93
83 58 37 38 27 20 30 35 34 30 22 18 18 20 18 15 14 12 14 16 18 35 41 45 47 49 55 64 74 87 98 94 89 97 99 99 100 100 100 100 99 91 83 94
78 62 53 49 56 28 23 19 22 22 24 30 20 36 23 18 16 14 12 16 19 37 37 42 48 50 52 62 76 87 98 99 92 100 98 98 97 98 99 97 96 81 66 90
66 71 66 59 42 34 42 25 27 28 30 30 27 35 27 21 20 14 15 14 16 32 36 40 43 47 49 56 70 78 99 97 99 98 98 99 99 98 95 85 99 96 77 76
50 52 67 66 50 46 37 46 36 34 33 48 35 33 34 25 19 16 13 16 14 25 36 35 40 48 53 55 66 79 85 98 98 96 98 98 93 86 84 82 74 72 63 69
38 47 40 54 66 46 40 60 63 58 58 60 31 34 29 24 18 17 16 16 14 17 38 45 48 53 58 57 63 74 81 97 98 99 93 93 90 83 83 80 71 71 78 72
40 66 38 33 35 56 42 48 72 64 67 48 30 39 30 20 16 14 13 14 15 19 39 42 43 45 53 56 59 66 80 82 98 97 98 96 94 93 88 87 72 63 58 60
49 48 31 28 32 35 51 52 34 56 65 67 54 39 20 19 17 15 13 20 21 21 36 35 42 44 47 55 56 56 69 74 96 98 98 99 98 94 92 89 82 62 56 60
37 49 32 32 30 36 41 32 63 85 91 95 49 50 51 34 20 22 19 23 21 22 25 39 39 41 45 44 49 55 60 62 55 97 97 98 98 98 98 93 86 75 59 60
48 48 41 31 34 42 42 54 84 77 64 71 69 59 43 35 33 30 28 22 19 19 24 31 40 37 38 43 51 58 60 64 65 61 93 98 98 97 98 99 91 87 83 80
54 72 57 37 25 26 35 42 72 100 83 70 63 71 42 33 25 27 26 23 27 32 33 34 39 51 54 46 54 55 60 62 63 58 67 81 100 99 98 98 99 99 90 86
45 70 74 56 38 34 45 34 50 54 59 97 98 66 51 49 45 24 21 20 31 39 41 38 40 46 55 68 71 55 59 62 66 67 65 70 79 88 99 100 100 100 100 89
41 65 80 85 70 77 80 59 36 48 84 78 87 73 71 61 59 44 20 22 38 41 43 46 50 49 50 51 57 75 82 72 62 68 69 66 65 68 70 82 100 100 98 97
71 85 76 73 60 61 74 69 50 58 58 90 74 79 62 78 68 42 24 36 44 47 48 52 55 53 52 51 49 54 57 62 83 73 63 64 63 63 65 69 70 86 97 92
65 83 81 76 55 53 58 58 45 65 64 59 69 84 74 74 70 56 33 43 48 52 51 52 50 49 58 55 53 57 57 54 60 79 78 72 66 65 65 66 70 73 70 69
82 86 88 89 64 74 69 45 66 73 72 64 92 57 66 70 54 42 46 45 49 52 57 58 58 55 47 46 48 48 50 52 55 63 68 82 76 71 66 67 73 77 77 78
65 66 84 97 69 95 56 47 45 54 62 49 30 38 27 37 46 45 45 48 54 59 62 62 64 57 51 49 44 43 45 51 53 54 63 62 83 86 77 70 72 73 78 89
53 65 87 96 88 68 53 45 29 39 38 31 28 28 31 46 44 44 46 51 59 61 62 63 64 65 61 51 50 50 52 56 55 56 60 63 66 61 72 87 76 73 75 84
50 62 80 94 87 90 63 41 28 26 67 50 48 48 48 48 65 57 61 62 66 64 67 68 73 72 66 66 64 58 59 59 57 62 62 68 71 69 62 63 81 81 74 76
68 72 79 81 88 79 45 33 27 50 83 60 57 57 54 59 63 64 63 68 67 66 65 64 72 79 87 88 83 82 79 71 73 69 69 70 75 77 76 68 55 78 81 77
84 78 89 86 86 81 31 50 53 77 62 60 55 56 60 58 63 71 69 67 66 64 57 54 61 69 78 84 83 84 86 93 96 83 76 80 86 90 87 86 80 85 90 83
97 84 78 68 68 58 64 66 68 60 60 59 58 58 58 62 73 74 74 74 74 74 76 81 84 88 88 87 82 80 82 83 90 95 100 100 98 100 99 99 99 100 100 100
82 81 89 69 79 78 95 80 63 62 63 63 64 66 65 70 70 74 76 80 85 96 96 94 92 89 89 89 90 92 87 88 100 100 99 99 99 99 99 99 99 100 100 100
88 93 93 78 90 95 98 98 87 75 68 68 69 70 73 72 80 82 89 98 94 92 90 88 87 88 88 88 92 89 88 91 98 97 96 100 100 100 100 99 99 100 100 100
90 100 100 100 98 95 99 99 96 87 76 74 76 77 80 82 91 93 99 99 96 94 93 89 91 92 94 96 99 99 99 97 94 94 96 98 98 100 98 99 95 96 100 100

GFSCGP_850_rhum_066.txt.gz
RH
43 49 54 32 31 36 35 37 41 33 28 29 28 26 26 20 15 18 18 22 36 39 40 43 41 48 65 68 72 64 89 96 95 100 94 99 98 94 95 96 89 86 79 79
69 68 45 32 26 27 35 39 43 33 25 27 27 29 20 18 17 17 22 25 37 45 44 44 44 50 62 60 71 67 74 98 99 100 100 100 99 98 100 100 100 92 83 88
77 62 48 41 40 35 30 31 39 38 29 24 30 30 22 18 15 14 16 18 23 40 43 44 46 48 58 64 66 63 58 97 97 100 100 100 100 100 100 100 100 95 93 86
83 64 66 65 55 43 59 23 22 27 31 52 29 50 27 22 21 18 16 17 23 40 37 41 46 50 54 62 66 61 65 98 98 99 96 92 88 98 98 99 99 100 98 87
66 71 76 74 58 43 46 44 49 46 49 46 36 42 28 24 24 21 20 16 18 27 36 41 43 42 50 60 62 62 65 95 96 100 97 98 91 91 95 100 99 100 99 91
56 62 62 60 51 48 53 52 50 42 47 67 43 42 43 31 22 19 18 15 16 37 39 36 44 45 52 62 64 66 63 89 98 96 99 95 97 90 100 100 100 99 100 98
37 54 58 59 68 54 57 70 69 68 69 73 39 43 38 28 24 22 22 18 16 35 46 50 49 47 52 58 65 68 69 62 98 98 99 99 98 97 90 98 98 97 93 88
47 58 43 57 64 67 61 76 84 91 92 66 34 45 35 23 19 18 17 16 20 44 49 45 41 41 46 54 63 66 66 62 75 98 98 100 98 100 90 92 82 79 77 70
49 52 36 45 43 52 76 94 63 85 66 91 60 43 31 31 23 19 19 26 34 48 50 44 42 40 43 51 54 58 62 61 61 76 98 97 100 99 89 84 77 74 76 81
40 57 36 36 36 40 50 61 98 98 97 94 57 48 52 40 38 29 32 35 44 47 47 42 39 38 40 43 51 59 63 59 57 57 80 98 97 96 92 83 82 83 79 65
60 53 48 40 44 59 60 96 92 82 82 96 77 72 64 51 37 38 43 46 48 44 54 60 60 59 60 60 54 55 61 66 69 69 59 82 98 96 94 95 93 88 87 76
52 71 87 53 32 30 53 74 75 99 86 81 86 95 74 55 42 32 43 49 52 54 56 53 57 63 68 77 82 81 82 71 66 70 67 60 69 97 98 98 98 99 92 85
42 68 88 60 43 35 50 50 64 75 89 98 98 84 77 60 63 58 40 50 54 58 59 60 65 67 75 80 87 87 86 85 86 90 82 73 67 67 71 88 97 98 97 100
45 68 80 89 89 80 84 67 63 86 100 88 90 72 82 85 81 57 47 52 56 60 62 60 58 59 62 67 74 88 93 91 96 91 85 84 80 72 66 66 67 73 94 98
65 70 82 76 69 59 58 85 79 74 80 85 69 68 70 89 80 71 62 54 56 59 65 64 60 53 45 44 49 54 60 69 87 98 96 89 86 83 81 82 83 78 70 78
78 78 84 85 59 50 61 72 75 94 87 61 62 69 70 93 93 72 60 56 62 67 65 63 59 49 43 39 45 48 47 52 63 82 98 100 100 97 89 87 85 84 81 82
76 82 87 86 67 62 79 59 58 61 75 80 94 67 79 84 86 71 54 63 68 70 61 52 50 53 49 42 44 42 49 55 56 60 70 84 96 100 100 100 98 90 88 87
72 69 85 96 76 80 56 39 41 67 70 69 73 79 78 71 83 74 62 63 69 66 59 52 55 55 48 44 46 48 43 42 46 51 56 62 67 77 95 99 100 100 98 95
68 72 85 90 90 61 41 48 52 64 78 65 74 75 73 59 70 73 77 73 77 74 71 62 61 58 54 49 50 47 44 43 45 49 57 59 57 58 60 68 77 86 100 100
62 67 79 96 88 87 58 44 41 39 98 62 53 68 56 57 92 82 84 84 82 78 76 71 69 67 61 58 57 54 50 49 46 48 54 61 67 66 66 66 63 63 71 80
83 88 83 87 93 77 51 42 42 65 96 66 62 67 68 78 76 84 83 81 78 78 75 78 79 76 74 70 67 63 62 58 61 61 65 66 67 68 74 84 91 89 77 70
80 87 93 87 92 80 56 53 62 72 69 69 68 72 79 79 80 84 79 74 77 85 89 91 85 81 81 78 76 76 75 80 79 77 72 70 76 78 85 96 100 100 100 99
99 87 93 75 73 88 77 73 72 71 79 79 77 74 70 77 84 81 80 85 91 90 88 85 82 81 79 78 80 79 83 82 81 81 85 95 94 95 98 98 98 99 99 100
91 85 99 89 88 91 94 83 75 76 78 76 77 77 74 83 86 90 92 93 88 85 83 83 81 80 80 83 83 83 85 84 81 80 84 88 90 91 95 98 98 100 100 100
94 87 98 99 91 95 99 100 98 82 73 72 73 82 84 74 91 94 91 91 88 82 82 81 81 82 84 86 86 85 86 87 85 86 88 88 88 88 93 95 98 100 100 100
96 100 99 100 99 100 99 100 94 88 84 77 72 76 84 79 85 86 85 90 90 90 89 86 87 87 88 86 83 83 83 83 82 82 85 87 86 86 86 90 95 94 97 98

GFSCGP_850_rhum_069.txt.gz
RH
51 56 62 42 37 37 43 44 47 39 30 33 35 33 28 24 25 21 18 17 25 32 29 38 44 51 57 61 63 55 45 75 95 91 96 100 96 93 88 93 94 91 90 86
70 73 52 44 38 32 34 39 45 37 29 31 36 35 27 24 23 19 17 18 18 31 43 42 45 54 60 58 60 58 51 61 88 83 83 93 98 94 96 96 99 96 95 83
76 62 55 53 48 47 43 37 42 44 34 34 36 36 34 26 19 18 16 16 18 19 39 44 45 50 60 62 57 59 50 54 86 91 92 91 95 94 98 98 100 100 99 89
83 68 70 74 70 54 58 34 38 29 33 55 34 62 40 32 26 22 19 22 25 35 39 41 43 50 54 57 60 63 55 55 79 94 97 96 93 98 98 98 99 98 99 88
70 77 88 80 70 54 54 56 57 53 56 51 46 55 44 27 30 26 22 17 17 20 29 40 39 42 51 57 58 64 61 58 66 96 98 97 99 98 99 99 96 100 100 92
64 60 62 67 57 50 50 62 57 57 58 74 48 50 51 38 30 24 20 17 17 17 32 39 54 50 54 61 63 69 64 61 75 80 92 99 99 100 100 99 99 99 100 97
39 49 63 61 70 58 64 87 86 79 79 69 46 51 40 33 29 27 26 21 19 17 29 50 52 55 54 58 62 71 68 63 67 88 88 83 88 97 99 99 98 100 100 100
49 45 61 64 60 65 62 90 96 89 88 76 50 57 37 35 31 31 23 20 17 19 24 38 41 46 46 54 60 68 69 66 67 89 84 91 92 88 100 99 98 99 100 98
50 53 39 61 56 66 87 92 85 93 88 90 70 47 34 41 42 45 31 20 18 23 36 49 51 46 44 49 52 58 64 68 64 63 84 96 94 94 82 91 100 100 100 100
40 56 39 43 55 65 86 77 100 100 98 95 66 67 85 62 53 55 62 62 47 55 61 65 56 50 50 53 58 68 70 73 73 73 80 85 97 99 88 85 90 99 99 100
53 49 49 42 61 73 92 97 97 93 90 93 87 93 71 75 69 61 62 65 66 63 70 73 74 71 68 69 72 76 79 85 88 85 87 86 95 99 93 89 84 84 90 96
52 74 92 71 43 51 63 78 95 99 98 93 100 93 74 74 63 59 60 66 71 79 73 74 79 80 78 76 76 77 82 85 88 86 86 83 83 96 100 92 88 84 84 81
45 69 90 64 54 57 72 79 83 86 93 89 97 83 77 70 69 60 61 65 73 86 94 93 92 99 100 100 100 98 98 96 96 95 94 92 89 87 90 98 98 96 94 94
47 70 78 88 89 82 96 81 75 89 100 94 93 86 88 80 81 70 75 62 73 82 84 81 76 79 95 99 99 100 100 98 97 96 98 100 98 94 90 89 91 91 93 98
59 64 81 78 74 69 71 77 79 96 94 99 69 68 67 85 88 90 76 64 71 75 75 63 60 61 62 63 69 71 74 88 95 95 100 100 100 100 100 100 97 95 96 92
77 78 84 81 69 60 56 52 64 78 86 93 81 69 70 86 91 91 92 77 77 81 68 64 51 50 46 47 52 57 60 65 82 97 100 100 99 99 100 100 100 100 100 100
75 83 87 80 72 72 74 66 55 70 78 75 98 72 86 90 78 86 95 90 86 84 80 66 52 52 57 50 48 42 43 48 51 58 67 77 92 98 98 100 100 100 100 100
76 75 88 94 79 76 44 32 51 62 68 74 78 79 79 76 92 94 96 98 97 80 71 74 68 53 52 52 50 50 41 37 36 36 40 48 53 61 71 86 94 98 100 100
69 77 85 85 90 62 49 54 56 65 69 66 71 71 71 93 86 95 96 94 95 84 77 65 63 59 51 49 52 53 48 46 42 38 37 39 41 46 51 55 60 72 79 85
79 71 77 96 85 83 50 50 43 55 85 74 67 80 89 74 93 100 99 95 93 82 80 72 71 66 61 59 58 56 53 52 50 50 47 48 51 52 53 54 56 62 66 70
88 92 93 87 90 78 54 74 53 85 94 78 71 85 87 77 80 92 91 90 87 84 79 75 73 66 63 62 60 56 56 54 59 59 58 56 52 52 54 61 70 82 92 94
79 90 96 89 85 86 77 76 64 83 87 83 82 81 89 90 89 93 96 95 91 85 83 83 78 72 69 68 68 67 67 71 68 67 66 63 61 60 60 64 73 93 100 100
91 96 91 78 79 86 81 82 86 86 88 100 96 99 93 96 98 99 99 100 98 93 90 89 82 80 83 84 80 80 82 80 78 74 73 71 69 67 69 71 79 89 98 99
90 96 100 99 94 92 87 85 83 85 90 93 99 100 99 96 99 98 100 100 97 96 89 84 83 82 83 85 84 85 86 84 81 79 78 76 74 76 77 76 79 82 89 94
100 85 94 99 97 98 99 100 99 100 98 98 94 90 96 95 100 100 100 99 96 93 89 84 82 85 86 86 84 84 84 82 80 79 79 79 78 78 81 83 87 90 97 87
97 100 97 100 99 99 99 100 100 99 98 94 91 94 98 98 100 100 99 98 95 94 93 90 89 87 88 87 88 87 87 85 83 84 83 83 83 83 84 87 90 91 90 89

GFSCGP_850_rhum_072.txt.gz
RH
49 55 56 44 39 34 42 50 54 44 35 38 40 39 33 28 27 28 23 23 19 17 15 30 41 48 52 59 61 64 62 59 94 82 87 86 99 100 99 99 99 100 100 96
68 72 53 48 44 40 40 41 41 38 36 38 42 41 35 30 29 25 23 21 19 18 20 31 40 48 51 57 59 63 61 54 95 99 91 85 82 100 98 100 99 98 97 99
71 54 58 58 61 59 54 54 51 41 36 35 39 39 34 27 29 23 20 18 17 16 20 31 36 42 48 59 57 60 60 55 86 99 94 89 90 100 100 99 100 100 91 84
79 65 67 74 82 66 72 47 44 40 45 54 36 58 40 36 33 29 24 20 19 22 26 30 39 42 45 50 59 59 61 59 71 100 85 83 84 98 98 99 100 100 100 99
66 76 81 88 74 62 69 53 64 58 66 58 53 57 42 38 37 32 28 21 18 19 23 28 28 31 43 49 56 60 66 62 56 100 96 91 92 92 96 90 96 100 100 100
69 58 72 72 60 60 54 68 61 62 70 88 58 56 51 44 36 30 23 20 18 17 21 36 48 51 49 49 57 62 64 63 51 79 99 98 94 93 90 94 97 100 100 100
40 44 62 60 68 61 66 79 91 89 88 86 50 58 43 30 29 37 42 34 25 18 18 22 48 55 51 47 56 60 61 60 46 61 98 99 99 99 98 99 98 99 100 99
46 43 61 67 60 70 82 70 92 89 88 78 56 64 47 43 43 52 58 57 35 24 20 22 29 42 44 52 54 56 59 61 51 55 91 100 100 100 100 96 96 95 96 98
48 53 42 64 58 55 75 96 82 100 100 98 69 55 50 64 65 59 65 70 66 35 24 27 40 52 52 55 55 58 63 66 58 53 70 91 98 100 99 99 99 99 99 99
40 58 40 59 64 74 75 83 99 100 98 89 69 76 95 88 77 69 75 79 80 65 50 60 77 84 89 85 72 68 64 65 61 60 59 69 89 99 100 100 97 96 99 99
44 54 50 65 66 84 83 88 98 96 86 98 95 95 78 81 72 76 77 88 96 91 82 85 99 100 100 100 98 85 72 69 72 71 69 71 76 85 94 98 99 99 100 100
65 87 95 74 49 57 77 92 89 100 99 97 100 97 76 68 65 67 77 87 98 100 100 100 100 100 99 100 99 90 76 76 78 80 82 81 80 79 79 88 88 91 98 100
63 94 88 57 61 67 81 79 82 94 100 100 97 88 76 70 71 76 72 84 87 94 100 100 100 100 99 100 100 100 99 96 96 97 96 91 89 87 80 74 76 84 84 86
48 73 66 63 68 78 83 66 67 98 100 97 94 85 86 84 85 80 70 78 80 83 92 100 100 100 100 100 100 100 100 100 98 98 98 99 99 97 96 92 88 85 80 84
54 64 78 72 71 70 72 72 66 77 91 100 88 88 73 84 84 89 71 76 74 74 76 82 88 93 96 96 97 98 96 99 96 100 100 99 99 100 100 100 99 100 98 94
81 91 80 71 69 63 57 43 54 57 74 81 85 84 62 88 90 94 86 75 78 78 82 81 71 66 67 70 74 80 82 98 100 98 99 99 100 100 100 99 99 99 100 100
75 85 81 71 70 68 52 58 48 58 74 82 89 68 86 92 86 91 94 88 88 86 85 89 82 73 67 58 55 54 57 65 68 77 88 96 97 98 99 98 99 100 100 100
84 77 83 89 68 74 38 36 51 71 69 71 70 76 88 90 91 94 96 98 94 93 88 85 84 78 71 64 60 56 54 55 52 49 49 51 55 63 73 87 93 96 94 97
72 79 87 82 87 60 49 57 68 67 63 63 73 72 90 95 91 99 100 100 92 90 86 82 76 67 75 61 67 63 59 56 52 52 48 45 44 48 50 54 59 63 73 85
81 72 77 96 88 83 50 61 66 62 81 83 76 76 90 77 95 99 99 100 95 100 93 86 80 75 68 60 64 62 55 54 52 56 56 54 53 52 50 50 54 62 67 81
95 95 94 91 92 75 59 79 72 82 80 87 87 80 89 93 93 100 99 100 97 91 90 87 77 69 66 65 65 60 61 59 67 66 64 60 58 58 60 67 73 87 96 100
80 93 98 87 92 88 86 76 69 91 94 90 92 95 100 100 100 99 99 96 94 93 86 82 74 70 72 70 67 64 60 69 70 69 65 64 63 63 68 74 84 92 100 98
84 80 87 79 78 87 88 89 93 98 100 100 92 98 100 100 98 98 98 97 97 96 92 87 81 78 76 75 74 73 78 75 72 69 66 66 68 67 66 68 74 77 84 90
86 91 100 100 91 87 90 97 100 98 97 100 100 100 98 98 99 98 98 98 93 98 98 96 94 90 88 84 82 82 81 77 71 67 67 66 63 65 65 65 67 70 74 77
99 100 96 98 98 99 100 99 99 100 99 99 98 98 99 97 97 98 98 97 100 100 100 92 93 91 91 90 87 85 84 82 78 77 76 73 70 69 73 75 80 82 88 86
98 100 97 100 98 99 98 99 99 97 97 98 96 94 95 97 94 96 96 99 96 96 99 97 99 96 94 90 88 88 85 84 83 83 83 83 82 84 84 85 88 93 94 93

GFSCGP_850_rhum_078.txt.gz
RH
26 27 29 24 26 22 25 31 30 22 19 24 24 22 18 16 20 21 21 19 17 16 15 16 24 49 62 74 86 53 49 58 60 62 78 94 99 94 96 95 96 100 100 100
41 38 21 22 25 30 29 29 31 29 27 29 27 25 19 17 16 17 20 20 19 17 15 15 26 52 62 75 83 54 51 59 61 63 79 95 85 98 91 91 92 92 97 96
35 24 38 34 35 37 35 40 38 41 36 33 33 28 21 19 19 18 19 20 20 18 16 15 27 51 64 72 80 67 64 70 63 78 84 88 82 100 95 96 98 97 93 92
35 29 37 41 39 41 42 37 41 42 43 33 28 33 22 21 20 17 17 20 19 18 16 17 20 44 58 69 88 88 96 86 86 97 79 72 88 98 94 93 92 88 85 94
32 42 54 45 38 39 38 41 41 42 47 45 38 42 25 23 25 21 18 18 18 18 15 18 21 32 54 68 88 94 98 87 96 97 93 95 87 99 93 96 97 98 90 94
36 33 44 41 43 37 36 41 33 36 45 57 36 38 27 24 27 23 23 22 25 25 26 23 25 42 55 73 92 97 99 90 95 96 85 88 89 97 99 98 98 100 99 96
31 33 36 42 45 40 42 38 33 45 61 46 32 38 31 25 37 37 36 37 39 41 37 29 40 51 61 80 98 87 97 92 82 92 96 95 99 88 89 96 98 99 99 100
31 36 31 38 40 32 40 38 42 50 42 34 33 42 31 42 40 44 45 50 51 48 44 32 46 56 65 83 99 96 98 98 76 94 96 91 90 90 98 95 96 95 100 99
34 34 30 40 38 34 53 59 41 60 53 63 35 28 38 37 41 43 51 60 69 69 61 41 50 62 70 84 98 100 100 95 72 72 96 95 94 92 93 92 90 90 90 93
31 39 30 44 44 44 51 47 78 72 76 55 31 35 44 59 58 54 61 70 85 93 83 58 64 75 77 95 99 100 100 91 76 70 76 100 99 94 91 94 95 97 88 93
31 37 42 52 52 42 59 61 69 94 70 59 51 86 88 82 75 78 72 84 97 100 100 83 82 84 91 98 99 99 100 94 78 68 96 100 99 98 96 95 95 92 89 93
41 52 50 37 29 34 35 44 55 67 71 87 95 66 78 71 72 76 78 88 98 100 100 100 100 99 98 99 100 99 99 100 98 92 98 95 96 98 97 96 94 96 94 94
94 73 61 47 52 45 49 51 88 88 100 82 89 81 82 81 72 74 78 87 96 100 100 100 100 100 100 100 100 100 100 99 99 100 100 99 99 88 89 93 96 95 96 97
98 72 57 41 82 50 59 49 49 59 77 58 53 62 69 79 82 84 72 92 96 100 100 100 100 100 100 100 100 100 100 100 99 100 100 100 100 100 99 100 97 95 95 99
96 94 57 59 68 61 39 36 35 46 47 56 32 32 32 43 56 75 66 86 93 98 100 100 100 100 100 100 100 100 100 100 100 100 100 100 100 100 100 100 100 100 99 99
98 93 58 64 62 47 44 34 26 31 38 37 38 42 36 50 67 74 72 90 94 95 100 100 100 100 100 100 100 100 100 100 100 100 100 100 100 100 100 100 100 100 100 99
99 100 67 62 47 40 39 29 31 32 30 45 55 46 46 56 76 74 82 81 96 94 98 100 100 99 96 94 96 99 100 100 100 100 99 100 100 100 100 100 100 100 100 100
98 96 68 50 41 43 36 27 32 39 38 48 45 64 71 83 99 99 98 99 99 99 99 97 100 100 92 80 73 69 66 70 71 76 82 90 94 90 98 100 100 100 100 100
84 100 78 50 43 30 24 45 45 49 45 58 62 59 86 96 93 99 99 100 98 100 99 97 99 99 79 75 74 69 67 69 64 68 68 57 47 53 75 83 95 100 100 99
70 64 90 56 49 46 50 46 44 40 45 61 67 73 77 89 99 98 99 100 97 99 99 98 98 94 86 84 75 69 70 64 52 50 51 48 56 64 66 81 87 98 98 96
71 66 70 54 49 40 52 51 52 46 74 75 82 93 92 90 98 100 97 96 97 98 98 98 95 97 91 85 80 68 61 57 65 66 70 67 69 69 77 88 98 100 100 99
51 60 66 55 60 58 67 59 61 89 94 90 95 99 100 100 99 98 97 97 97 97 98 96 85 82 84 92 90 90 87 86 77 81 88 80 77 84 87 90 98 99 93 87
69 78 72 57 74 75 87 88 100 100 100 100 100 100 100 99 97 97 96 97 97 97 96 97 91 90 93 95 91 83 85 78 76 78 83 85 85 83 88 90 97 95 94 90
67 75 82 91 97 98 99 100 100 99 99 99 99 99 97 98 96 96 96 96 96 96 98 97 97 95 92 93 98 96 94 94 91 87 79 78 83 88 86 83 77 77 81 82
89 75 88 100 100 99 99 100 100 100 99 98 98 98 97 97 97 97 96 96 96 96 97 91 98 98 98 92 85 92 97 95 89 92 98 98 90 81 77 77 85 78 75 75
91 100 96 92 98 97 97 100 100 100 99 98 98 98 97 96 96 96 96 98 97 96 87 83 93 90 92 90 86 85 89 96 92 86 87 92 100 99 99 91 85 86 86 83

GFSCGP_850_rhum_081.txt.gz
RH
22 24 24 22 21 22 19 19 19 16 14 16 18 17 15 13 13 14 17 17 16 16 13 12 13 18 31 42 60 79 94 97 93 53 44 40 51 89 73 84 86 87 90 98
22 27 18 15 16 19 22 24 25 18 16 23 24 22 17 15 14 13 13 15 17 17 15 13 13 20 40 48 62 78 94 97 84 75 57 45 81 95 89 89 86 85 87 85
29 22 25 24 23 24 23 25 24 25 22 21 22 23 19 15 17 16 14 13 14 17 16 13 13 19 44 49 64 76 92 97 77 88 73 66 80 97 88 90 92 87 90 90
24 20 22 21 28 24 29 21 26 32 31 28 18 30 19 14 14 14 14 15 14 17 17 15 12 18 40 48 62 72 86 94 95 88 72 78 98 97 99 97 93 84 95 97
25 24 31 32 27 24 30 26 35 34 32 28 24 26 19 15 18 16 15 15 15 16 17 15 14 13 33 49 65 74 82 87 92 93 88 92 86 97 99 100 93 90 90 87
26 20 24 28 26 31 24 34 35 29 28 40 28 24 19 17 23 22 19 19 16 17 16 16 12 12 25 45 64 78 81 83 87 89 88 88 86 95 99 99 95 93 97 86
27 26 24 32 32 30 34 39 36 26 39 42 22 28 21 19 28 29 30 28 32 31 29 22 18 17 24 45 68 79 79 86 86 89 91 90 89 100 86 98 94 93 98 95
23 25 22 24 34 31 30 35 37 44 38 45 36 33 34 30 28 31 34 40 44 50 50 34 24 23 34 48 72 78 78 92 87 89 91 90 89 98 98 100 99 92 92 99
24 21 21 26 28 28 35 41 27 40 36 40 28 20 26 35 35 35 40 48 57 65 70 53 30 39 43 60 92 89 79 95 96 89 87 87 91 98 100 98 94 100 96 97
24 29 23 28 29 30 33 36 65 51 62 49 28 27 75 60 53 55 60 63 75 88 95 89 42 48 54 76 98 95 92 97 99 92 87 97 99 100 98 95 90 85 86 90
39 29 24 22 34 31 40 47 48 57 58 60 55 78 71 70 68 69 62 70 88 98 100 99 87 66 78 99 98 99 99 98 98 99 96 98 98 99 94 94 96 88 99 94
60 73 38 24 20 20 24 36 43 68 49 52 60 66 68 65 67 68 66 78 92 100 99 100 100 100 100 99 99 100 99 99 99 100 99 98 99 98 96 95 99 96 95 92
85 67 56 38 29 24 29 28 33 55 68 65 72 76 74 62 59 67 68 78 94 100 99 99 100 100 100 100 100 100 100 100 98 99 98 99 99 96 94 89 89 87 87 89
67 67 69 51 49 60 67 32 39 53 70 56 54 37 67 54 60 65 69 82 96 99 99 100 100 100 100 100 100 100 100 100 100 100 100 100 99 100 100 100 98 93 92 95
65 71 52 48 33 41 62 82 41 50 46 47 33 26 24 34 50 64 70 85 95 100 92 98 100 100 100 100 100 100 100 100 100 100 99 99 100 99 99 97 95 100 100 100
75 72 57 70 54 45 54 56 30 26 23 25 26 28 35 52 59 61 73 83 94 100 98 94 99 100 100 100 100 100 100 100 100 100 100 100 100 100 100 100 100 98 93 93
77 78 76 69 58 51 66 44 31 22 24 26 43 46 50 68 66 69 81 89 96 100 99 90 97 99 100 100 100 100 100 100 100 100 100 100 100 100 100 100 100 100 100 100
88 79 86 88 55 70 34 22 20 24 26 35 39 57 66 90 100 100 100 100 99 99 98 97 95 96 100 98 98 99 99 100 99 100 100 100 100 98 99 100 98 100 100 100
41 88 90 95 44 36 24 34 33 39 68 49 50 46 76 89 88 99 99 99 100 98 98 98 98 86 95 94 91 90 81 90 83 78 80 87 85 84 95 100 99 99 100 100
45 75 92 82 60 52 53 36 36 30 56 58 56 59 62 81 98 97 98 97 97 97 98 97 97 98 99 95 88 77 75 80 71 75 77 96 81 83 82 83 80 97 99 100
69 74 82 88 47 44 49 37 36 44 89 68 73 80 88 93 99 100 98 97 97 97 97 97 97 97 98 97 99 97 89 84 88 87 92 94 86 84 80 75 78 98 100 98
48 49 55 51 54 61 65 47 65 91 84 83 84 90 98 100 100 97 97 97 96 97 97 97 96 96 96 92 94 95 98 99 98 88 83 85 85 85 88 90 91 92 97 93
73 87 95 89 98 84 84 87 100 97 97 98 95 98 100 100 100 97 98 97 97 97 98 93 93 94 93 88 90 94 97 93 97 94 92 94 90 85 88 88 94 99 100 99
61 52 78 83 96 95 96 96 100 100 100 100 100 100 100 99 98 96 96 96 96 96 98 88 91 97 100 98 96 96 95 97 99 97 93 97 99 100 99 91 91 94 98 95
70 59 71 97 86 84 92 96 98 100 100 99 99 99 99 98 98 98 97 96 96 96 96 97 99 100 100 100 100 99 100 100 100 100 100 96 84 76 73 69 75 75 78 77
74 96 90 95 90 93 98 97 96 98 100 99 99 100 98 96 96 95 96 97 96 96 96 96 100 100 100 96 90 98 100 100 100 100 100 100 100 99 89 79 77 78 78 75

GFSCGP_850_rhum_084.txt.gz
RH
22 25 25 21 18 18 20 23 23 18 13 15 16 15 14 12 11 12 12 13 16 17 16 14 12 10 11 16 41 57 64 71 84 97 60 40 36 50 54 96 100 98 93 90
22 27 20 16 16 17 19 20 21 17 15 18 17 16 16 17 17 14 12 12 14 17 17 16 12 11 15 27 42 57 68 80 93 91 55 54 53 57 65 63 90 84 87 90
25 20 17 23 22 24 21 22 22 21 17 18 24 23 18 15 14 16 15 14 13 14 17 17 15 13 21 32 50 63 73 89 95 88 79 76 85 90 99 98 95 80 84 92
21 17 19 21 23 22 29 18 19 25 26 39 22 38 21 14 14 15 16 17 17 14 13 16 16 13 26 30 55 66 82 92 97 90 85 71 59 65 75 86 89 92 94 96
25 20 22 26 25 18 21 19 24 27 36 38 34 30 20 14 15 14 15 15 16 16 14 15 16 14 31 33 51 66 80 90 93 94 90 80 67 75 74 86 91 100 98 94
19 16 17 18 20 21 23 28 26 31 36 52 37 26 24 21 30 30 24 25 31 20 15 16 17 15 28 40 54 65 78 89 91 94 92 79 78 86 86 92 96 99 98 90
22 23 19 19 28 24 30 37 42 41 36 46 48 59 28 37 36 29 29 40 45 53 61 58 44 16 16 41 53 66 79 86 88 90 93 87 84 86 88 87 99 100 89 86
22 24 16 21 30 30 29 36 48 46 51 42 35 84 47 34 41 53 54 56 59 65 72 77 71 40 23 48 60 72 79 81 87 88 89 89 87 82 90 93 91 90 83 87
31 24 21 20 21 24 29 34 26 43 38 46 34 43 65 65 49 50 55 60 67 76 84 88 79 54 27 46 64 73 78 78 84 89 90 91 89 86 91 92 96 89 86 86
36 50 20 22 24 24 27 26 59 80 70 52 29 38 86 83 73 59 58 63 75 86 94 99 99 90 56 53 69 78 75 77 84 84 88 88 90 92 90 94 93 98 97 95
37 51 54 35 48 38 31 40 38 49 54 69 84 95 92 80 71 64 59 66 83 94 100 98 99 100 100 88 80 76 85 91 80 91 86 90 94 94 93 90 95 90 91 94
37 87 75 42 23 24 25 27 38 68 55 54 59 66 71 57 56 57 62 71 88 98 100 100 100 100 100 100 100 100 95 95 87 99 88 91 99 94 91 90 87 86 95 88
40 58 65 43 29 22 34 31 48 58 65 71 86 67 66 60 52 63 62 75 87 99 95 98 99 100 100 100 100 100 100 96 93 99 94 98 98 96 91 93 93 93 88 83
52 47 61 72 57 59 72 69 52 43 77 60 56 58 45 61 54 57 70 83 93 100 98 97 98 100 100 100 100 100 100 100 100 100 97 97 94 97 97 89 90 90 89 89
41 55 45 51 41 38 54 84 60 61 74 60 44 35 57 62 63 65 72 80 90 99 99 99 96 99 100 100 100 100 100 100 100 100 99 99 100 99 100 100 96 91 96 99
67 65 46 48 39 38 52 44 57 67 86 73 62 36 71 77 60 69 76 82 92 100 100 99 99 95 98 99 99 100 100 100 100 100 100 98 100 93 98 100 99 99 99 96
57 88 74 61 37 44 68 39 35 39 53 37 49 70 60 83 90 90 87 93 100 100 100 100 98 98 95 99 99 100 100 100 100 100 100 100 100 100 100 100 100 98 92 97
59 64 70 76 59 76 39 23 24 28 52 67 49 60 72 93 100 100 100 100 99 100 100 99 99 100 96 96 99 100 100 100 100 100 100 100 100 100 100 100 100 100 100 100
40 56 82 84 74 71 33 27 29 34 93 59 55 53 72 89 91 100 100 99 99 99 100 98 98 99 100 94 97 98 99 99 100 99 99 100 100 99 100 100 100 100 100 100
31 43 82 72 94 95 99 54 31 29 97 69 59 68 72 76 95 98 99 98 98 98 99 98 98 98 98 100 98 98 98 99 98 97 99 98 99 91 100 100 100 100 100 100
50 69 80 86 94 98 82 60 35 47 97 76 74 82 93 94 98 100 98 97 98 97 98 99 97 97 97 98 97 99 98 99 99 99 98 98 100 96 92 98 100 96 93 87
54 69 72 74 94 94 77 62 80 96 91 81 84 91 98 100 99 98 97 97 98 98 97 97 95 96 97 97 96 96 96 97 98 99 97 97 97 99 99 98 98 96 86 82
92 84 97 93 99 94 88 94 99 96 97 96 93 97 99 100 99 99 97 96 99 98 96 98 96 96 97 98 97 98 97 96 97 96 96 97 98 97 96 93 94 92 89 89
74 58 93 98 91 85 95 96 100 100 100 99 100 99 98 99 99 97 96 96 96 96 97 98 97 98 97 95 93 96 98 100 97 93 95 100 98 98 97 98 98 95 96 95
79 66 84 96 96 91 90 93 99 100 99 98 98 99 99 98 97 98 97 96 96 96 96 96 95 99 98 96 96 98 97 99 96 89 81 76 74 71 73 73 78 78 82 79
85 96 91 95 98 96 98 98 99 97 98 98 99 98 99 97 96 96 96 95 95 95 96 96 95 95 99 97 100 100 100 100 99 98 100 99 92 85 82 80 80 84 83 80

GFSCGP_850_rhum_087.txt.gz
RH
26 35 39 31 29 27 27 26 28 25 21 20 20 20 18 14 13 13 13 13 12 11 12 15 17 14 14 14 14 36 56 59 54 53 60 48 68 56 44 48 70 65 89 97
32 39 28 24 23 25 26 28 28 23 19 20 21 22 21 20 19 16 16 16 14 13 12 13 16 16 15 14 28 39 53 57 56 50 60 46 67 52 44 43 52 68 92 97
39 30 23 24 25 27 29 31 29 26 23 21 24 26 28 22 20 17 14 14 16 14 12 12 15 16 16 14 29 46 52 53 59 63 66 62 76 71 63 57 58 45 94 90
31 25 24 24 29 27 34 26 26 24 30 48 33 57 35 27 22 16 28 21 15 16 12 13 15 17 17 26 33 48 50 63 60 68 66 61 72 66 60 54 47 71 86 94
34 28 27 28 27 24 30 25 28 31 37 45 40 50 38 29 25 18 62 54 26 18 20 17 15 14 19 40 49 45 49 64 62 61 62 78 86 75 67 64 84 93 96 96
26 19 21 24 21 22 25 34 39 40 42 57 42 55 55 41 32 50 67 67 72 69 56 52 51 41 36 39 48 50 50 56 64 63 70 91 85 76 68 71 83 94 96 99
32 27 22 18 26 25 30 43 72 61 62 60 38 49 61 79 73 65 67 70 78 79 74 62 53 51 37 65 57 56 58 58 71 71 87 92 85 72 73 73 86 91 93 99
24 30 20 22 26 36 40 46 73 73 70 59 37 52 69 87 68 60 68 71 79 88 84 85 84 71 53 40 53 64 61 65 71 82 90 94 86 89 87 78 87 86 96 95
59 44 32 24 27 31 40 46 38 54 51 62 43 33 67 70 75 72 60 68 82 90 93 98 99 97 76 55 58 53 60 63 77 82 90 87 92 90 86 88 90 81 84 86
43 68 40 33 31 30 33 34 69 85 91 81 46 76 98 84 69 72 72 73 88 95 98 98 99 98 100 88 73 57 60 62 72 79 82 86 87 87 81 82 85 81 84 88
30 66 63 45 44 45 42 46 47 59 74 87 86 87 88 86 76 76 74 79 91 98 99 100 100 100 99 100 76 76 66 66 78 87 82 86 87 88 90 88 84 82 90 89
49 69 68 52 37 32 43 50 55 70 68 73 78 90 77 76 75 64 74 81 92 98 100 100 100 100 99 99 100 98 99 95 93 92 93 91 88 90 87 88 85 83 84 83
55 69 86 48 38 50 69 73 79 89 82 96 90 80 78 75 67 72 82 90 96 99 98 100 98 99 99 100 100 99 100 100 100 96 98 95 94 86 89 91 86 86 88 86
45 63 72 81 64 51 88 72 57 86 99 97 90 65 61 66 82 80 86 92 97 100 100 100 98 99 99 100 100 100 100 100 100 98 98 98 99 100 97 95 95 98 92 89
58 75 61 53 44 42 44 70 52 72 86 98 86 77 89 83 83 84 81 88 96 100 99 100 100 99 99 99 100 100 100 100 100 100 99 99 98 96 100 99 100 96 89 84
72 83 80 69 56 54 44 38 39 49 72 79 84 97 84 85 82 80 84 92 100 100 99 100 100 99 98 98 100 100 100 99 100 100 100 100 94 98 86 92 95 89 93 90
63 89 85 68 56 61 68 52 46 54 62 69 88 95 80 93 94 96 98 100 100 100 100 100 99 100 100 97 99 99 100 100 100 100 100 100 100 100 100 100 100 100 100 100
63 74 84 89 73 93 42 42 49 80 89 86 86 89 92 97 100 100 100 100 100 100 98 99 98 99 100 100 100 98 100 100 100 100 100 100 100 100 100 100 100 100 100 100
47 70 89 89 96 71 52 93 96 78 99 69 73 72 91 99 99 100 99 100 100 99 98 95 96 98 98 99 100 100 98 99 99 99 98 100 99 100 100 100 100 100 100 100
69 73 83 89 95 94 98 94 83 87 99 76 76 81 88 86 82 98 99 99 98 98 98 98 97 97 99 98 99 100 99 99 99 100 99 100 100 99 99 100 100 100 100 100
78 80 81 87 92 89 99 88 74 86 98 81 84 90 95 96 97 99 98 98 97 98 98 97 98 96 96 97 98 98 98 98 99 99 98 100 100 99 95 99 100 98 98 99
71 80 87 82 94 95 90 78 87 99 92 86 91 97 100 100 99 98 97 98 99 98 98 97 96 96 97 98 95 97 95 97 98 97 99 98 98 99 100 98 99 99 99 94
98 100 98 96 98 100 99 99 99 100 100 98 97 99 100 99 98 97 98 96 98 99 96 96 97 98 97 99 95 90 96 96 97 97 97 97 98 98 97 98 97 98 96 100
81 69 99 97 95 94 100 97 99 98 98 99 99 98 92 96 95 97 97 97 96 96 96 96 96 97 98 98 99 98 95 91 95 97 96 97 98 97 97 98 99 97 96 96
86 77 95 99 99 97 98 97 97 96 97 98 98 100 100 98 100 96 96 96 96 97 96 96 96 96 95 99 100 98 99 92 87 87 87 90 95 98 97 97 96 95 97 98
93 97 92 97 98 95 98 97 98 98 98 97 98 100 100 95 95 95 96 96 96 96 96 95 95 96 96 96 98 100 99 96 97 98 92 88 84 85 82 78 78 80 82 82

GFSCGP_850_rhum_090.txt.gz
RH
27 36 42 33 34 31 33 36 37 29 23 24 24 24 20 18 18 19 18 18 16 15 14 14 13 11 14 14 13 13 20 24 43 49 64 60 65 49 58 97 92 85 78 67
37 43 32 28 28 31 32 36 35 28 24 23 23 23 20 20 20 18 18 21 19 17 16 15 14 12 12 17 16 14 18 18 33 43 57 59 59 44 37 50 87 80 79 89
45 36 28 30 31 34 34 36 36 34 29 26 28 31 29 26 26 23 22 28 53 55 31 19 16 15 12 16 18 17 17 18 34 42 52 71 64 56 48 55 74 83 89 84
37 28 31 32 34 29 36 30 31 34 36 42 35 55 34 32 28 25 24 72 72 72 59 22 19 17 14 14 16 22 18 19 34 45 55 62 52 51 45 42 54 64 80 94
37 29 29 30 30 26 31 29 33 34 43 48 39 54 34 44 83 80 72 78 83 67 83 84 60 34 21 18 18 27 24 25 37 54 58 64 62 56 43 47 57 65 69 78
30 23 24 27 23 24 25 32 41 42 51 64 42 50 57 87 89 72 73 80 91 72 80 98 100 63 40 34 65 52 46 34 58 54 65 66 66 62 54 62 70 58 84 86
34 32 26 23 28 24 28 48 70 75 69 72 38 51 53 80 74 70 72 86 94 91 90 98 99 83 60 85 87 79 71 61 51 57 57 71 76 61 55 64 72 64 88 87
36 40 26 34 31 32 41 47 73 82 70 47 41 60 76 74 68 69 88 88 83 83 98 98 100 99 88 59 75 45 52 53 53 65 72 85 78 72 66 66 62 74 80 82
57 60 36 38 38 31 42 55 40 61 54 73 56 72 72 65 66 75 88 88 91 95 98 100 100 100 100 85 79 67 53 47 50 62 82 84 83 78 72 74 71 83 84 88
39 50 51 42 36 36 40 43 55 82 81 84 59 53 78 75 72 68 81 89 93 98 100 99 100 99 100 100 100 99 72 66 52 54 66 81 85 80 80 84 81 84 84 88
44 60 52 36 47 49 48 58 71 67 79 83 87 80 83 80 76 78 77 88 98 100 99 100 100 100 100 100 100 100 77 65 67 62 64 88 85 85 84 85 84 81 80 85
56 65 78 48 37 34 37 67 88 99 90 81 80 68 71 75 71 76 84 89 98 100 100 100 100 100 100 100 100 74 67 93 90 83 73 87 84 90 83 80 80 83 79 80
45 63 77 38 38 55 63 53 59 81 95 98 95 78 70 77 78 81 85 94 98 100 100 99 97 98 99 100 100 99 97 90 93 80 96 92 92 89 85 83 84 91 92 88
48 64 62 73 60 58 62 46 42 68 97 94 84 92 77 86 91 87 89 94 99 100 100 100 99 99 99 100 100 100 100 100 100 100 100 96 93 90 91 92 96 93 95 96
59 73 65 66 61 57 59 58 47 48 59 94 83 93 95 90 88 85 87 92 98 100 100 100 100 100 100 100 100 100 100 100 100 100 100 100 94 95 98 94 94 95 99 89
69 76 65 52 51 53 60 60 51 44 41 49 61 84 94 98 89 90 94 97 100 100 100 100 100 100 98 100 100 100 100 100 100 100 100 100 100 100 93 88 92 96 94 90
67 79 89 65 58 64 70 68 53 41 53 72 84 94 95 98 95 98 99 100 100 100 100 100 100 98 98 100 100 100 99 100 100 100 100 100 100 100 100 100 99 97 98 99
78 79 85 87 74 98 60 80 67 91 98 98 98 95 94 97 100 100 99 100 100 100 100 100 100 97 98 100 99 100 100 99 100 100 100 100 100 100 100 100 100 100 100 100
54 67 95 97 89 61 52 95 97 95 99 97 98 87 96 98 95 100 99 99 100 100 100 100 100 100 96 95 98 99 100 100 97 96 98 97 99 99 100 100 99 100 100 100
68 63 92 93 95 97 96 84 92 100 97 100 90 85 86 96 98 94 99 99 100 99 98 97 99 99 94 96 97 99 99 100 100 100 100 99 97 99 97 99 100 100 100 100
90 95 91 92 93 86 96 96 100 96 98 90 90 91 90 92 95 98 100 99 98 99 99 98 96 97 100 100 97 96 98 97 98 98 100 100 100 100 99 98 100 99 99 99
91 94 93 92 96 95 92 82 94 99 99 92 95 97 98 100 99 99 100 100 99 100 100 100 99 100 100 98 96 96 96 97 98 97 98 98 100 98 98 99 97 99 98 99
96 98 98 96 97 99 98 99 98 99 99 99 98 97 100 98 98 99 100 98 100 100 96 96 95 95 93 92 96 96 97 97 97 97 98 97 97 98 99 98 97 97 98 97
76 96 98 96 96 95 98 98 98 97 99 98 96 98 95 97 98 99 99 99 96 96 96 99 95 94 96 96 92 92 94 96 97 97 97 97 97 97 97 97 96 97 97 97
85 82 94 96 96 98 98 98 97 98 98 99 100 97 96 95 99 96 97 97 97 94 94 97 97 96 97 96 96 96 96 95 95 96 96 96 97 97 97 97 97 97 96 97
92 95 97 100 94 97 98 98 98 97 97 100 100 100 100 94 97 97 97 98 96 96 96 95 97 97 96 94 96 96 96 96 95 91 89 88 86 87 88 90 91 92 94 96

GFSCGP_850_rhum_093.txt.gz
RH
26 33 39 31 33 31 34 39 42 35 29 29 30 28 24 20 20 21 19 19 19 21 28 29 24 15 13 14 14 12 15 14 20 35 36 57 57 66 63 67 49 62 80 90
40 43 31 32 31 33 35 39 39 33 28 31 33 30 25 23 24 21 24 44 78 74 57 49 37 27 19 17 16 14 15 16 15 16 27 42 45 66 65 55 61 74 89 95
48 38 33 34 36 38 38 40 38 39 32 31 31 33 28 25 32 67 71 73 71 85 80 78 66 45 25 19 16 16 14 18 17 19 39 50 61 59 66 68 70 98 89 92
44 32 35 39 39 37 46 33 34 38 39 47 32 52 34 30 77 71 71 72 73 64 71 85 95 71 46 30 21 16 15 18 22 28 26 36 46 48 48 59 60 63 80 84
36 31 38 40 38 34 39 34 35 35 42 53 46 56 37 61 76 75 64 66 83 86 83 92 100 100 73 57 26 17 16 20 31 21 24 37 57 45 48 63 56 63 70 81
33 24 25 28 25 27 25 33 40 47 54 67 40 53 56 90 88 76 64 79 90 89 92 97 99 98 88 88 66 31 34 32 36 37 31 51 54 46 48 65 59 68 66 77
35 33 27 25 30 28 29 40 59 61 72 70 45 54 53 85 74 72 71 90 91 90 98 100 98 97 99 95 100 94 74 56 52 68 63 65 54 53 52 67 56 57 58 69
45 42 38 39 40 41 39 43 62 68 77 50 40 63 54 74 70 74 90 90 76 87 100 100 98 99 99 99 100 100 100 95 90 88 84 71 57 58 59 68 52 54 49 48
48 56 33 40 30 39 40 51 39 50 54 69 58 56 74 73 64 71 84 90 93 95 100 98 98 100 99 100 97 100 100 88 84 73 68 54 53 55 75 65 65 58 50 63
38 40 45 32 36 40 39 48 71 90 92 86 64 59 69 69 68 71 89 92 96 94 95 98 99 98 99 100 100 100 100 76 91 54 63 57 51 62 76 72 66 64 69 81
49 50 47 26 46 46 43 48 71 82 83 91 86 79 74 69 75 86 85 95 99 98 97 97 98 100 100 100 100 100 100 90 60 55 58 60 57 80 84 74 73 76 80 83
48 65 76 43 38 39 42 78 82 97 93 86 95 85 82 86 80 80 86 92 100 99 100 99 99 100 100 100 100 99 100 80 77 75 81 73 68 84 85 87 83 82 81 82
41 61 65 32 42 47 54 48 47 60 84 92 94 78 69 78 80 86 92 98 100 100 100 100 98 99 100 100 100 100 97 87 91 89 86 85 81 85 80 81 84 84 80 80
48 61 56 67 50 59 68 59 55 62 95 90 84 74 70 82 94 92 90 95 100 100 99 99 99 99 100 100 100 100 100 97 97 100 89 100 94 90 84 85 90 90 88 83
60 68 67 65 65 55 56 57 54 62 58 73 58 67 57 97 96 100 90 92 98 100 99 100 100 99 99 99 100 100 99 99 100 100 97 97 100 99 92 92 86 84 88 78
71 76 63 62 45 44 58 57 55 56 54 52 45 48 95 98 100 99 96 95 100 100 100 100 100 99 99 100 100 100 100 100 100 100 100 100 99 100 96 92 95 87 87 92
67 80 81 64 56 66 67 67 90 56 46 56 62 64 97 99 94 97 99 100 100 99 100 100 100 100 100 100 100 100 100 100 99 100 99 100 100 100 100 100 100 100 100 98
79 77 83 89 67 96 58 87 98 89 91 95 94 98 95 94 99 100 99 100 100 99 99 100 100 100 99 100 100 100 100 99 99 99 99 97 98 100 100 100 100 100 100 100
58 73 95 95 96 66 59 95 98 98 99 100 100 97 95 99 90 99 99 100 100 100 99 99 98 100 100 100 100 99 99 99 99 100 100 99 99 100 100 100 100 100 100 100
70 62 78 95 99 96 90 84 84 100 96 96 96 93 93 93 97 94 99 100 100 99 99 100 99 98 97 98 100 97 97 98 96 99 100 99 100 98 100 99 100 100 100 100
91 94 89 92 96 86 95 95 99 97 98 97 94 95 93 89 97 99 100 100 99 99 100 100 100 100 100 98 96 95 96 97 100 97 99 99 100 99 100 100 99 99 100 98
95 94 92 87 96 95 94 88 94 99 98 98 98 98 100 100 100 100 98 99 97 97 96 96 95 97 97 94 90 91 99 100 100 97 97 98 98 98 99 99 99 100 99 99
97 98 97 96 97 99 98 99 98 99 97 100 98 97 95 94 99 97 98 98 99 98 97 97 96 96 95 94 92 91 97 97 97 95 95 96 97 98 98 97 96 98 98 99
81 93 97 97 96 97 98 98 97 97 97 96 96 95 91 93 97 98 98 98 96 97 98 99 93 93 96 96 94 93 94 95 91 90 94 96 96 97 97 96 97 97 97 97
83 84 94 97 96 98 97 97 98 97 96 97 97 96 96 95 97 94 94 95 97 98 97 97 98 98 98 98 98 98 96 94 93 91 92 95 96 96 96 96 96 96 97 97
88 96 96 96 96 93 99 99 99 96 95 96 94 95 98 97 98 97 96 97 97 99 100 97 98 98 98 95 96 97 100 97 93 87 91 94 95 97 97 96 95 95 96 96

GFSCGP_850_rhum_096.txt.gz
RH
30 39 41 31 34 33 35 38 43 38 32 31 34 32 30 25 23 24 30 53 63 61 57 56 48 30 30 29 18 17 20 15 15 21 46 46 53 53 58 63 57 52 60 65
40 46 32 29 30 32 34 38 41 35 31 34 36 34 30 29 26 53 72 69 68 64 54 48 59 57 47 38 28 24 21 19 14 15 18 45 35 49 48 70 75 53 56 70
49 37 33 35 38 40 41 42 41 40 34 33 36 42 29 25 55 69 64 60 66 79 79 68 62 76 59 61 44 30 21 18 16 18 23 30 44 59 53 52 59 69 57 60
47 37 38 42 42 42 49 38 38 41 44 52 32 54 28 48 59 71 62 58 78 86 81 84 80 87 85 78 62 43 26 17 24 26 29 29 26 39 33 40 56 76 86 60
46 36 45 45 41 38 45 38 42 42 47 54 46 53 47 65 68 69 66 74 84 79 83 88 98 97 99 97 89 60 41 22 37 33 32 26 27 27 37 55 50 45 69 74
36 27 29 34 31 34 28 34 41 52 56 61 47 51 52 51 73 73 68 80 77 83 83 89 97 100 100 100 99 89 75 32 43 50 37 33 30 42 62 56 55 47 64 78
36 33 27 28 30 30 32 39 53 55 68 61 48 56 50 52 69 74 79 87 86 89 94 87 95 98 100 99 99 100 99 91 86 73 69 42 56 56 64 51 45 65 81 78
46 42 40 40 41 43 43 42 58 64 71 60 41 60 51 63 65 75 90 86 87 90 98 76 94 98 100 99 98 99 98 99 99 100 98 99 96 82 74 60 52 51 60 54
58 56 38 32 30 41 45 51 46 54 58 65 54 50 48 73 75 90 88 85 93 96 99 85 91 99 100 98 99 99 100 99 100 98 98 99 100 92 74 60 71 75 57 50
39 32 46 32 35 34 36 44 75 86 86 75 63 59 66 73 79 90 89 93 98 99 96 89 95 100 98 99 98 100 100 99 100 99 100 99 100 94 78 67 76 72 55 57
46 40 41 29 41 39 37 53 77 81 88 97 93 81 91 96 95 93 86 94 99 100 100 99 97 100 100 100 100 100 100 100 100 100 73 79 94 83 75 67 79 73 70 65
48 64 61 42 42 46 44 82 75 93 92 88 94 85 86 88 89 88 92 95 99 100 95 94 96 100 99 100 98 100 100 100 100 98 89 71 60 68 58 88 98 86 69 78
40 61 49 34 40 38 57 52 60 68 83 92 96 72 76 86 92 97 98 99 99 100 91 91 94 99 99 98 98 100 100 100 100 99 100 88 73 71 73 99 84 82 85 92
48 60 44 39 38 64 66 62 59 73 98 80 58 55 46 71 92 94 99 100 96 100 96 93 94 100 99 100 100 100 100 99 100 100 93 100 100 93 99 96 91 86 92 94
59 63 66 62 64 58 60 50 45 61 59 83 39 48 44 68 87 98 99 98 99 100 99 97 98 100 99 98 100 100 100 98 100 100 99 97 100 93 100 100 91 91 94 84
69 77 63 67 58 54 51 52 57 59 59 60 57 58 55 94 97 96 99 99 99 100 100 100 97 99 99 99 99 100 99 100 100 99 98 100 99 99 99 99 93 95 100 98
63 82 78 66 58 52 44 54 86 87 78 85 74 56 82 93 88 95 99 98 100 100 100 100 100 100 100 100 100 99 100 100 100 99 100 100 99 100 100 90 100 100 100 100
80 73 80 82 63 63 67 84 86 92 90 92 92 84 85 89 100 97 98 98 99 99 99 100 100 99 100 100 100 100 99 99 99 100 99 96 96 100 92 99 100 100 100 100
63 80 93 88 96 63 68 88 97 98 87 97 97 96 97 98 98 98 99 100 99 99 99 99 98 99 98 99 98 97 97 98 99 100 100 100 99 100 98 97 98 100 100 100
71 66 85 91 97 99 92 81 82 94 96 95 97 96 96 98 97 95 99 100 98 96 96 96 97 97 95 95 95 94 92 93 96 97 99 100 100 100 93 98 100 98 100 100
88 93 91 92 96 90 90 86 92 98 97 97 97 98 99 94 96 99 98 94 95 96 96 96 96 96 98 96 94 94 97 96 100 98 98 98 97 98 99 100 98 99 99 99
96 95 94 86 97 95 93 77 89 98 97 97 96 97 98 97 98 96 97 96 96 96 96 96 95 95 94 97 94 93 98 100 99 96 93 96 97 98 100 98 100 100 99 99
96 97 97 95 98 98 97 98 98 97 97 97 96 98 94 95 96 96 96 96 96 96 97 97 96 96 95 93 94 94 97 96 96 93 92 91 92 94 96 94 96 94 96 98
88 96 97 97 97 97 98 98 98 96 96 97 96 95 96 96 97 97 98 98 96 96 95 96 96 97 98 97 95 97 98 96 94 94 95 96 95 94 94 94 94 94 96 96
82 86 94 97 97 98 97 97 97 96 96 95 95 95 94 94 95 96 97 96 98 98 98 97 96 99 100 99 96 95 95 90 92 95 96 96 95 94 93 91 95 92 94 96
82 97 99 97 97 90 98 98 97 97 99 98 93 94 97 94 94 96 96 98 98 97 99 97 99 97 99 97 95 94 94 94 89 88 86 85 95 95 91 94 94 95 97 97

GFSCGP_850_rhum_099.txt.gz
RH
33 36 39 30 29 28 34 36 35 31 26 26 27 27 25 23 25 24 29 67 68 67 62 51 43 44 49 49 47 36 24 18 18 17 16 19 26 28 54 47 47 60 53 46
34 40 31 28 29 29 30 33 30 28 27 30 29 30 25 24 24 29 61 63 71 78 65 51 49 48 48 57 69 55 43 30 23 23 18 17 20 22 61 56 53 62 59 60
35 33 30 30 30 32 33 33 37 35 31 30 32 30 27 24 50 70 67 69 82 82 77 69 63 68 71 75 78 74 63 45 36 24 77 84 89 97 100 54 45 55 56 71
42 32 34 33 35 33 40 34 34 36 39 38 31 35 29 32 40 58 58 74 77 75 76 79 88 89 86 92 100 100 92 67 45 39 79 94 95 99 77 43 43 49 58 66
49 41 42 44 37 36 38 35 37 38 42 43 39 38 34 41 50 49 59 74 78 80 81 81 90 96 98 95 98 97 99 89 63 59 48 84 80 79 94 62 36 42 48 52
36 31 35 36 34 34 31 37 41 46 47 50 36 34 31 30 44 52 60 80 82 84 81 83 90 98 96 92 94 96 98 100 94 82 46 85 87 89 98 68 46 63 51 47
35 32 26 28 30 33 32 36 39 46 55 41 39 43 28 30 52 61 75 79 85 88 88 90 94 95 97 98 99 98 99 97 100 95 81 95 100 100 96 76 60 70 45 40
40 46 40 31 37 36 37 33 35 46 49 43 44 46 36 51 73 85 82 86 88 89 90 92 97 100 100 99 99 99 100 98 100 99 93 97 99 99 100 100 83 66 44 40
50 54 42 31 30 38 44 43 45 47 52 48 36 38 46 64 86 78 81 85 92 92 94 97 98 99 100 98 99 100 100 99 100 98 97 99 100 98 98 100 97 76 53 51
38 41 44 32 35 24 41 45 67 69 55 45 44 48 50 83 90 78 78 85 90 92 93 95 99 99 98 100 99 100 100 100 100 99 98 98 99 98 100 100 90 77 89 80
46 36 38 32 36 34 23 36 72 66 73 69 56 57 77 81 82 79 80 85 90 91 95 98 96 98 98 100 100 100 100 99 100 99 100 100 100 100 100 100 99 96 66 52
51 48 37 43 43 40 50 70 68 54 67 80 83 67 72 80 78 78 81 86 93 95 99 100 90 93 95 98 98 99 99 98 100 100 100 100 99 100 99 93 92 82 56 56
42 43 32 40 46 40 48 49 49 52 64 65 73 56 77 81 77 87 94 97 96 99 100 100 88 95 98 99 99 99 99 99 100 100 100 100 99 96 94 82 80 75 75 66
46 50 33 28 47 51 52 54 51 58 78 59 50 35 26 28 49 71 89 97 96 99 100 100 92 98 99 100 100 100 100 99 99 99 100 99 100 99 100 99 87 80 78 78
54 54 54 48 58 56 54 48 44 44 40 51 22 32 32 31 42 86 92 91 91 96 100 100 98 99 99 99 98 99 99 99 99 99 100 100 100 100 98 96 100 99 76 87
60 74 60 60 52 53 52 43 40 38 42 49 54 63 47 48 89 93 97 100 98 99 100 99 98 99 100 100 99 100 100 99 100 100 97 99 99 99 100 100 90 100 98 100
56 67 58 45 51 44 42 45 42 59 65 70 84 66 59 90 87 92 97 99 99 100 100 99 97 100 99 100 100 99 99 99 98 100 99 100 100 100 100 100 98 98 100 100
66 61 63 53 58 45 78 74 78 83 75 85 82 87 73 80 99 100 98 97 97 100 100 99 96 96 98 99 96 99 99 98 99 100 100 100 100 100 100 98 99 100 99 100
54 61 72 69 69 50 81 86 91 91 84 91 91 94 96 98 95 97 96 97 98 100 100 100 97 98 97 96 98 94 92 97 97 98 99 99 100 100 100 97 98 92 99 100
61 58 67 82 86 77 88 72 74 88 90 86 90 90 90 97 92 91 96 97 99 100 100 97 95 97 96 96 97 95 93 95 96 97 98 99 99 99 100 100 100 99 100 99
80 80 82 82 84 79 89 83 84 92 91 92 97 97 98 92 95 97 96 97 97 100 99 96 95 96 97 97 96 95 96 96 98 98 99 97 98 98 99 99 100 100 100 100
85 82 80 75 87 90 87 71 81 94 99 98 98 97 98 96 96 96 97 96 96 93 91 94 94 97 97 98 97 96 96 99 99 98 95 95 95 96 98 97 98 98 98 98
90 92 90 91 90 94 100 96 97 97 98 97 96 96 95 95 96 96 95 95 95 97 98 98 96 95 96 96 96 99 100 97 96 95 97 98 97 94 94 96 96 94 96 97
82 90 91 93 92 92 99 97 97 97 95 96 96 95 96 95 95 95 95 96 96 95 93 94 91 92 95 95 95 93 92 96 93 90 91 93 95 96 94 92 94 96 95 93
75 78 88 92 94 97 98 97 97 96 96 96 96 96 96 94 95 95 95 95 96 96 97 95 92 93 92 92 91 91 90 89 86 85 91 90 88 90 94 94 98 99 98 95
72 87 87 86 91 89 98 97 97 97 96 96 96 98 98 92 94 94 93 94 95 95 97 95 95 93 92 89 87 86 88 89 85 82 85 85 93 91 89 95 97 97 96 95

GFSCGP_850_rhum_102.txt.gz
RH
33 37 32 26 23 22 22 21 22 19 17 22 19 15 13 15 17 18 17 25 34 43 48 49 56 61 67 69 73 72 45 41 42 46 50 68 81 69 22 70 88 57 49 45
36 45 29 22 21 24 25 25 23 18 16 16 18 19 17 16 16 16 19 35 44 47 48 54 57 63 68 74 82 87 84 67 66 82 74 62 72 80 90 87 92 44 61 46
50 39 25 23 28 31 27 24 22 19 20 22 24 23 18 17 18 30 36 45 51 52 55 57 62 67 74 78 85 92 96 98 78 86 87 67 82 81 96 98 73 27 68 57
58 40 40 32 31 26 28 19 19 23 29 27 22 21 18 16 24 31 39 47 51 56 59 61 65 70 78 85 96 90 95 97 94 92 98 90 72 72 80 86 52 46 63 72
56 44 52 57 31 23 26 22 29 26 30 29 25 28 15 17 24 31 37 51 57 62 63 64 67 72 76 92 93 90 91 94 97 100 100 97 87 82 75 86 100 99 81 53
66 57 60 56 50 42 27 32 30 30 30 39 25 24 16 21 21 29 43 56 64 66 65 65 67 72 78 92 98 97 91 92 96 98 99 99 99 88 78 83 100 98 99 74
61 55 31 31 36 35 39 36 49 50 46 36 19 22 16 21 31 36 51 60 66 68 68 67 68 74 84 97 96 92 94 98 100 100 99 100 98 90 92 88 95 99 99 74
51 55 29 25 28 31 39 32 45 52 35 26 29 29 37 50 55 62 64 66 68 67 68 68 72 81 90 100 99 94 93 98 98 99 99 99 99 90 96 96 95 98 98 100
40 42 31 27 27 29 30 36 23 33 32 34 24 28 54 64 65 62 61 63 65 66 69 72 75 86 96 99 98 98 97 97 100 100 100 99 98 99 98 91 90 96 98 100
37 47 34 26 26 24 34 27 48 42 46 40 22 22 28 63 60 48 50 58 65 68 71 75 80 90 100 99 97 96 98 99 100 99 100 100 95 94 97 96 96 93 98 98
37 34 37 28 32 28 28 38 50 46 44 44 38 34 57 56 50 50 48 61 70 73 77 80 84 91 98 99 99 95 93 98 98 100 100 100 98 96 98 98 96 99 99 98
36 32 31 33 36 28 25 36 35 42 37 43 57 41 50 53 53 53 51 65 74 80 82 82 86 91 98 100 96 92 94 96 99 99 100 100 100 100 100 100 100 99 99 100
32 33 44 36 37 35 36 41 40 43 41 42 44 35 57 60 45 49 62 65 73 81 83 84 87 93 99 100 96 92 95 97 98 100 100 100 100 100 100 100 100 99 99 100
34 28 25 25 37 37 47 42 35 44 57 36 31 22 38 28 18 25 52 70 72 79 85 90 90 94 99 100 98 90 98 98 96 100 100 100 100 100 100 100 99 100 91 69
37 32 32 35 36 34 35 35 31 31 26 35 18 18 18 29 42 44 68 72 79 92 95 93 94 97 100 99 98 94 96 99 100 100 95 95 100 90 100 96 99 100 100 100
43 53 42 35 33 34 36 27 26 27 25 23 23 29 38 48 63 77 80 82 85 92 98 96 99 100 100 98 95 95 94 99 100 100 99 100 99 98 100 99 100 99 100 100
39 54 43 25 33 32 30 31 26 24 25 41 54 52 52 59 85 79 85 90 93 98 100 100 100 100 100 97 97 93 96 99 99 100 100 100 99 100 100 100 99 99 100 100
40 40 39 34 39 55 66 58 65 70 61 72 67 62 71 90 98 98 100 99 99 100 97 99 99 100 99 98 96 96 96 97 99 99 98 99 98 99 98 100 100 99 100 100
33 43 60 66 54 43 76 76 89 89 78 86 82 72 78 91 90 94 100 98 97 97 96 99 98 98 98 97 96 95 94 97 97 98 97 98 100 99 100 99 100 99 100 98
46 43 58 60 69 62 92 62 60 83 87 77 83 79 86 96 93 84 98 97 96 98 97 98 97 97 96 97 94 90 93 97 100 100 98 98 98 99 98 99 99 100 100 100
72 69 67 62 65 85 83 63 73 92 92 83 90 92 93 88 93 98 96 96 96 98 98 97 97 98 100 100 94 91 94 99 100 98 96 97 99 96 98 99 98 98 99 100
70 72 68 58 74 86 72 62 88 94 95 96 98 98 97 98 98 96 96 96 96 96 97 96 98 100 100 100 100 98 97 97 97 95 95 96 96 98 99 97 98 97 98 98
88 90 84 86 88 84 88 93 100 100 97 99 98 97 97 97 96 95 95 96 96 97 100 100 100 100 100 99 98 100 100 99 93 90 92 93 92 90 92 92 93 99 96 96
71 74 78 84 83 80 92 97 100 97 99 97 97 97 96 94 95 95 95 96 97 100 100 100 100 100 100 100 100 100 100 97 100 98 93 91 90 89 86 87 88 87 92 97
60 62 70 88 86 85 93 98 100 98 99 96 96 96 96 97 96 98 100 100 100 99 98 99 100 100 100 100 98 100 100 100 98 95 99 99 99 100 98 91 92 96 95 91
62 76 74 83 72 85 93 100 98 98 100 99 100 100 100 100 100 100 100 100 100 95 92 84 78 75 81 72 53 48 67 68 92 89 84 79 100 100 100 100 99 96 95 92

GFSCGP_850_rhum_105.txt.gz
RH
30 37 41 34 32 29 30 31 32 19 14 17 18 16 13 12 12 11 13 15 15 21 32 36 46 51 56 58 62 67 70 72 69 69 67 58 49 51 67 74 76 83 98 98
34 52 33 28 29 34 35 32 33 27 19 17 18 16 12 10 10 12 13 14 20 30 32 41 46 51 60 64 72 77 77 79 80 78 76 76 68 53 54 64 75 82 94 100
32 35 32 36 44 65 58 47 33 42 35 19 18 17 15 13 12 13 14 18 30 34 38 42 46 52 59 64 76 82 86 83 87 93 91 85 80 69 51 73 74 82 89 90
34 28 36 44 54 57 76 43 32 38 32 29 16 29 17 14 15 15 21 30 33 40 43 45 50 53 58 62 76 86 94 90 95 99 99 99 92 73 47 51 67 83 86 93
48 43 44 45 49 39 63 40 45 41 30 26 25 27 18 13 17 21 25 31 41 47 48 50 52 56 58 66 77 89 97 97 98 98 95 97 99 97 79 56 61 66 86 91
70 69 54 39 35 47 59 63 42 37 32 46 42 30 22 19 15 20 27 38 48 50 50 52 53 57 60 70 83 95 100 99 99 99 100 98 98 99 94 70 68 70 84 84
68 63 63 48 61 51 65 87 81 77 70 61 25 28 28 19 14 21 36 43 51 52 52 52 54 60 67 75 87 100 100 99 100 99 100 100 100 99 99 97 78 71 86 88
87 84 60 50 54 64 59 70 63 75 66 50 30 39 50 36 38 45 47 50 52 50 52 55 59 65 73 80 93 100 100 98 100 100 99 100 100 99 99 98 83 85 93 78
53 44 26 27 28 31 63 57 36 46 42 44 52 49 56 50 51 45 47 48 48 49 54 58 62 69 77 86 97 98 100 98 97 100 98 100 100 100 99 92 84 91 95 89
49 59 28 25 23 25 33 36 47 50 68 46 34 40 50 65 51 42 40 43 44 46 52 60 63 70 78 88 97 98 100 97 95 100 100 100 98 100 100 90 87 94 84 94
38 40 44 28 30 36 30 62 53 58 53 54 48 60 63 59 44 42 40 43 45 49 56 60 66 71 79 88 95 100 100 99 91 91 98 99 99 98 100 96 89 95 92 92
38 44 50 33 31 26 26 27 41 75 53 65 44 54 51 43 42 35 35 40 45 54 59 64 68 72 80 89 96 100 100 98 100 96 94 98 98 100 99 88 97 93 88 83
35 46 43 37 32 26 26 24 28 32 37 36 45 48 44 42 33 24 19 41 46 56 63 69 70 75 82 92 99 100 97 98 100 97 93 88 98 100 100 100 99 99 95 96
40 34 36 42 37 29 36 28 26 32 51 32 26 18 38 18 19 29 42 51 52 64 73 77 77 80 87 94 99 100 99 99 99 96 96 87 95 99 100 100 100 100 100 98
36 43 30 24 25 24 28 28 27 27 26 30 19 16 14 34 40 52 54 59 63 74 78 81 84 89 95 99 100 100 100 100 100 99 98 98 98 100 97 93 98 99 100 94
34 36 35 30 25 24 24 19 18 19 18 19 17 17 41 43 48 69 72 72 73 81 85 89 94 98 100 100 100 100 100 100 100 100 98 98 99 100 98 100 100 94 100 100
38 46 36 24 26 23 22 24 20 18 14 22 31 46 45 62 82 90 87 82 86 90 97 100 100 100 100 99 100 100 100 100 99 98 98 100 100 100 99 99 99 93 100 100
35 36 32 27 30 34 52 47 49 54 44 52 51 51 54 77 87 90 97 96 95 99 100 99 100 100 97 98 100 100 100 99 97 97 98 98 98 99 99 100 100 100 99 98
23 30 42 54 38 40 48 55 86 84 79 80 67 59 60 77 82 90 99 100 100 99 96 97 99 99 96 97 99 100 99 95 94 96 96 97 98 98 98 99 100 100 99 99
34 37 50 47 56 51 86 52 48 67 75 65 73 71 64 74 87 89 100 99 98 98 97 96 98 95 96 96 97 99 96 97 98 100 97 97 98 97 97 98 98 98 98 99
56 56 57 50 51 85 71 51 60 92 92 79 85 88 84 93 91 100 98 97 97 96 97 97 97 96 96 97 97 97 99 99 100 99 96 97 100 100 98 98 97 97 97 97
56 54 54 43 62 83 63 57 80 90 86 85 94 97 98 99 100 99 96 97 96 96 95 94 95 96 98 100 100 100 95 100 97 94 92 92 90 95 97 94 98 98 97 97
81 93 88 83 90 82 79 88 94 90 85 99 98 100 100 100 100 97 96 96 95 96 96 97 97 100 100 100 100 100 99 95 100 100 100 98 90 88 87 88 88 88 95 95
62 61 79 79 82 77 87 87 96 96 99 100 100 99 99 98 97 97 96 97 98 97 100 100 97 96 96 96 99 94 94 84 86 99 100 100 100 93 86 86 88 87 88 93
53 58 69 88 79 76 82 89 94 100 100 99 100 100 100 97 99 100 100 98 100 100 100 100 100 97 94 92 97 96 91 86 79 82 91 95 99 100 100 92 92 92 93 90
50 92 74 85 68 78 87 97 98 100 100 99 94 97 100 100 100 100 100 100 100 100 100 100 98 97 94 68 46 87 98 95 91 88 87 94 93 94 95 99 98 85 81 67

GFSCGP_850_rhum_108.txt.gz
RH
31 38 43 30 26 29 30 32 35 28 23 28 30 29 17 14 15 14 14 13 12 14 30 37 45 50 56 60 67 69 67 59 59 62 70 69 66 65 56 62 73 86 83 81
31 32 24 22 25 30 34 42 45 40 30 29 35 45 43 15 14 13 13 12 14 16 30 39 44 50 59 63 68 66 65 54 56 66 66 67 68 63 61 53 68 75 70 80
36 28 21 24 33 36 34 38 46 48 38 34 39 55 44 23 14 12 12 11 14 26 34 39 44 51 57 61 71 77 75 71 71 77 78 83 81 74 67 46 49 67 78 68
35 26 27 26 33 33 45 35 40 47 56 81 44 83 47 25 19 13 12 14 28 36 38 42 47 52 55 63 72 81 82 78 84 83 81 88 98 98 74 77 67 51 77 78
42 34 38 38 32 27 43 56 62 73 77 66 61 65 44 24 28 22 22 29 38 42 44 46 50 54 58 67 78 86 78 74 73 82 87 94 93 97 96 80 61 65 65 80
48 55 56 50 41 37 57 72 67 70 72 94 58 53 61 42 26 18 26 42 44 46 49 48 51 56 64 72 81 84 75 78 88 98 98 98 98 94 95 98 89 59 61 66
50 56 47 47 51 38 55 91 92 92 93 68 36 53 60 37 47 24 55 48 47 49 50 50 55 63 69 76 84 85 83 89 99 95 98 100 100 100 99 97 98 85 59 76
56 61 46 46 49 50 53 78 74 90 85 57 41 90 73 70 56 65 73 61 48 49 52 55 59 67 72 80 88 94 91 97 99 91 97 100 100 100 99 98 99 98 76 83
50 49 36 40 41 42 75 91 57 67 71 94 74 56 56 70 61 65 73 62 45 47 50 55 58 67 74 83 89 98 96 99 98 95 99 100 100 100 100 100 99 98 87 70
60 57 45 39 36 35 50 46 97 94 88 87 46 56 84 68 64 52 54 45 42 45 49 54 59 68 77 85 91 98 100 100 99 95 98 100 100 99 100 100 99 100 87 92
59 43 53 43 39 31 36 41 80 97 55 78 60 96 95 92 82 56 42 40 44 47 53 58 63 70 78 86 94 98 99 96 99 98 96 96 98 98 100 99 99 100 98 94
44 43 55 44 25 24 28 35 70 98 94 90 82 77 84 88 63 36 32 39 45 52 58 63 68 73 81 89 96 99 100 98 100 100 99 96 94 89 100 99 98 100 88 68
40 52 54 63 42 27 31 33 30 40 41 45 52 50 82 54 32 36 42 44 52 59 65 70 74 80 87 94 97 98 100 100 99 100 99 100 98 87 91 99 99 100 96 73
40 40 46 63 60 34 36 27 24 30 60 44 36 45 56 36 34 47 49 52 60 66 71 78 82 87 94 99 99 98 100 100 99 99 99 100 100 99 98 98 93 89 99 98
39 51 38 33 24 23 28 24 22 25 25 42 29 20 46 52 58 57 58 60 65 71 76 83 89 95 99 100 99 99 100 99 100 99 100 100 100 98 98 100 100 99 89 96
44 60 46 42 26 23 24 17 18 20 20 18 16 21 54 64 70 72 70 73 75 78 86 92 98 100 100 100 100 99 100 98 99 98 100 100 98 96 98 100 99 100 100 95
45 52 42 40 28 23 26 26 18 20 17 25 29 54 48 72 79 86 83 83 86 91 95 99 100 100 100 99 99 100 100 97 96 97 100 99 97 94 99 100 99 99 99 100
42 40 36 33 31 34 49 44 42 49 63 56 52 52 63 76 84 91 93 91 95 99 100 100 99 98 100 98 97 98 100 98 96 97 98 97 96 97 97 98 98 99 99 99
26 34 38 44 37 47 45 53 81 77 87 70 64 57 71 80 85 95 97 100 100 98 95 97 97 98 96 96 96 96 99 100 100 97 97 95 96 96 97 96 97 98 98 99
24 27 52 50 54 49 78 46 46 62 82 66 72 72 66 82 90 93 97 99 98 98 97 98 96 96 96 96 95 96 96 98 99 98 96 96 97 97 96 96 97 97 98 100
49 51 56 52 47 87 68 46 54 85 89 83 82 89 87 88 95 98 99 100 99 97 99 97 98 97 96 95 96 97 95 98 100 94 92 91 91 97 97 95 95 96 97 98
49 52 54 48 53 73 63 56 76 88 83 90 89 95 98 99 100 100 100 97 95 98 95 95 95 94 95 96 94 95 93 90 98 98 92 88 87 87 88 87 86 89 93 95
84 92 87 89 91 77 81 89 91 95 88 94 94 96 97 100 100 100 96 94 96 96 96 96 95 91 93 95 91 86 82 81 86 96 95 97 89 82 77 76 77 77 78 80
57 58 80 79 76 76 81 88 87 90 92 97 100 100 100 99 97 96 95 96 95 94 97 95 89 90 90 91 88 93 86 80 82 74 91 93 92 84 78 69 59 52 57 62
46 49 69 88 80 80 78 87 95 99 99 100 100 100 100 96 96 97 100 100 100 100 99 99 99 88 73 56 72 85 97 88 91 92 79 93 93 97 99 93 95 86 84 41
52 88 70 84 68 80 84 91 98 99 100 98 93 96 99 98 99 98 98 99 100 100 100 88 68 52 45 34 35 44 55 73 74 85 96 85 90 91 91 93 100 97 100 93

GFSCGP_850_rhum_111.txt.gz
RH
42 57 63 53 48 43 41 41 39 33 32 39 43 42 45 37 36 34 19 14 14 25 40 43 47 51 49 52 51 53 52 53 53 55 52 44 36 31 29 32 61 80 84 88
51 57 42 37 37 36 34 38 44 38 32 38 43 50 40 35 37 36 32 14 16 43 46 49 51 52 54 56 59 55 56 56 54 51 57 62 60 51 45 33 40 46 63 77
52 41 32 32 33 32 32 42 43 42 36 41 48 52 45 34 32 32 28 18 17 43 48 52 55 57 59 60 63 64 63 56 50 50 51 55 62 65 66 62 52 40 51 72
45 34 38 38 38 34 44 36 58 65 74 86 64 85 52 42 38 33 35 25 44 50 49 53 56 60 62 63 61 65 65 60 63 63 62 73 79 74 70 75 68 63 50 49
49 42 43 59 48 48 56 63 69 72 79 76 68 86 55 40 39 34 41 40 51 51 51 54 57 60 61 55 58 65 62 62 66 71 77 82 83 85 85 87 86 75 68 60
47 52 58 60 49 46 59 70 65 70 82 95 61 66 59 47 46 58 54 49 51 51 55 59 60 60 61 61 57 58 58 59 62 67 76 80 83 84 84 84 90 96 92 71
56 58 54 52 64 51 76 79 94 93 97 86 38 64 64 47 53 63 68 73 57 57 60 64 67 71 67 74 72 66 61 63 65 69 73 80 89 87 92 91 88 94 98 96
70 72 48 52 60 60 74 75 87 94 92 87 64 92 74 77 90 93 87 83 70 60 60 65 70 74 77 80 81 76 71 74 76 78 78 82 86 87 95 99 98 98 99 98
68 55 42 41 45 53 73 91 57 86 74 90 73 65 69 83 92 91 80 75 62 57 61 66 71 75 77 80 82 83 82 78 82 84 85 84 86 86 92 98 99 100 99 98
58 78 44 44 47 49 61 57 95 96 93 89 59 74 97 98 100 95 81 57 63 69 66 69 75 77 80 82 88 87 85 89 94 91 87 88 88 90 90 98 99 100 100 99
61 64 53 47 62 61 59 68 78 88 97 96 85 99 100 100 99 95 82 65 61 65 70 73 78 82 85 87 93 100 92 94 96 96 91 90 92 94 93 95 100 100 99 100
62 66 69 55 44 42 39 53 61 97 92 98 98 99 92 84 88 82 55 62 66 74 74 79 83 87 92 98 99 99 100 99 94 95 93 94 98 100 98 100 98 99 100 100
78 99 83 56 58 52 47 39 62 67 83 79 78 92 77 84 60 55 62 65 70 75 82 85 89 93 95 98 98 99 100 94 94 94 93 95 98 99 100 99 96 100 95 92
48 56 57 67 73 64 48 37 38 54 81 64 52 82 83 60 63 62 67 69 74 80 86 91 95 99 99 99 99 100 97 93 93 92 93 95 98 98 100 99 96 98 100 94
55 67 48 42 50 34 30 30 30 37 40 57 42 74 83 78 77 72 72 74 78 85 89 95 98 99 100 100 100 100 94 91 93 93 94 96 100 100 100 99 98 98 100 99
52 82 52 59 39 28 30 24 21 22 23 23 55 90 73 76 78 82 78 83 86 89 96 100 100 100 100 100 100 93 93 94 94 94 96 96 99 100 98 97 95 96 99 99
60 69 64 81 45 37 36 46 40 48 62 56 75 79 72 79 84 95 92 94 96 100 100 100 100 100 100 99 99 95 94 97 95 96 96 97 99 98 98 95 94 99 98 100
59 59 66 65 40 55 62 49 54 75 76 66 63 72 76 90 98 99 100 100 100 100 94 99 96 96 96 97 96 96 95 96 96 96 97 99 98 96 96 96 95 96 99 100
40 57 62 72 68 61 56 64 80 81 90 78 79 81 89 93 92 100 99 97 96 98 100 97 98 98 96 96 96 96 96 96 94 96 98 97 97 97 96 95 95 96 96 96
32 43 75 72 80 80 85 58 62 68 96 79 81 81 91 86 94 97 97 95 94 95 95 98 97 96 96 96 96 95 96 95 96 90 88 90 87 88 90 96 95 97 97 97
58 67 71 80 84 90 72 54 55 88 88 84 86 97 91 95 99 98 98 99 100 98 97 96 95 96 96 96 95 96 90 97 95 91 86 77 75 75 76 76 77 81 89 91
67 76 82 75 84 97 79 70 81 92 89 86 93 95 100 96 97 98 100 97 97 97 97 96 95 95 96 95 87 85 88 81 96 95 89 79 66 56 51 50 54 50 44 46
83 87 96 95 99 83 85 89 83 82 91 90 90 96 92 95 98 100 97 96 96 96 96 96 95 82 80 83 84 86 89 93 80 83 94 95 80 74 67 47 38 25 25 33
75 72 93 92 83 82 87 90 85 86 88 92 94 95 97 99 99 96 96 96 96 96 96 88 67 52 62 75 82 84 86 86 79 67 69 73 80 75 84 81 76 61 50 23
68 70 85 96 85 83 90 92 88 93 94 97 98 92 94 94 97 94 96 98 95 90 84 70 50 41 40 53 48 51 54 64 73 72 63 64 73 82 88 94 94 100 100 79
73 83 91 93 82 80 95 88 98 98 98 93 97 100 99 92 95 98 99 97 88 72 66 48 37 31 33 41 48 47 46 53 60 71 75 74 80 87 90 88 92 93 100 86

GFSCGP_850_rhum_114.txt.gz
RH
46 60 67 55 58 52 51 54 55 46 34 39 39 39 39 35 35 33 32 33 33 48 67 66 63 60 56 53 48 41 32 24 28 31 30 29 27 29 29 32 43 65 79 87
59 70 53 47 50 54 56 59 54 37 33 37 42 47 40 36 34 31 32 32 53 64 69 63 60 56 51 46 43 36 33 33 34 36 41 43 40 35 37 37 33 32 43 61
65 51 42 46 49 51 49 50 44 43 54 45 51 60 43 34 34 32 31 30 46 54 60 66 62 58 53 44 44 39 39 38 36 36 43 51 53 53 50 50 48 47 46 38
56 43 45 45 46 44 54 55 59 64 70 74 63 80 46 38 38 36 34 47 64 71 74 65 63 62 60 56 48 45 40 36 38 41 45 58 62 58 58 62 60 56 57 56
58 45 50 51 46 49 60 61 66 70 80 89 68 93 46 37 42 40 61 83 83 81 79 74 67 63 63 56 41 47 42 26 34 45 47 54 65 68 65 68 78 76 75 75
52 48 48 50 50 49 65 65 64 75 87 99 58 72 70 54 58 63 74 85 89 82 80 75 74 67 60 52 42 54 48 33 45 52 60 63 70 75 74 73 80 80 82 86
58 61 59 56 67 58 68 72 89 88 86 87 56 67 63 93 94 80 83 93 93 86 86 80 75 71 66 61 51 53 44 47 54 57 62 71 76 79 81 79 81 87 87 89
78 73 67 58 60 68 78 72 89 90 93 89 58 88 99 95 97 99 95 97 100 98 88 83 80 80 76 61 57 64 62 58 59 62 68 76 80 82 82 84 84 85 96 97
72 66 43 56 54 53 77 86 59 86 87 96 71 74 76 96 100 100 100 100 100 100 98 94 88 83 78 70 76 79 69 65 66 71 76 79 82 84 88 88 88 88 86 88
59 66 51 47 49 53 63 64 93 96 96 96 70 92 94 100 100 100 100 100 100 100 99 97 92 85 80 85 79 82 89 88 88 85 84 86 86 87 91 92 92 89 83 85
63 66 66 56 63 70 73 72 81 81 94 97 95 97 98 100 94 97 99 100 93 88 89 94 92 94 94 95 96 93 86 86 84 84 85 87 91 93 94 89 90 89 82 87
82 78 92 60 53 50 52 61 74 94 88 97 94 97 95 86 83 76 79 87 91 92 87 83 83 85 93 100 99 97 88 87 86 84 89 91 92 92 93 90 88 88 91 97
87 100 97 90 64 53 60 51 55 66 91 93 90 89 91 87 72 64 70 76 82 88 91 94 98 96 98 99 98 97 89 88 87 87 89 91 93 94 95 95 94 92 95 99
82 100 99 85 69 61 58 46 57 74 96 76 70 87 83 91 73 69 75 82 86 91 96 99 99 100 100 100 97 92 91 91 91 91 91 92 96 95 96 97 96 98 99 99
83 91 74 56 55 53 49 29 36 55 57 68 58 84 94 82 81 79 80 81 87 95 97 99 100 100 100 100 95 95 94 95 94 92 92 93 94 94 93 95 97 99 99 100
68 96 94 91 55 39 31 26 24 23 40 77 78 95 76 81 82 81 80 87 91 93 100 100 100 100 100 100 99 96 97 97 95 93 93 96 96 94 93 94 97 98 96 97
82 96 96 94 75 69 64 39 52 65 66 67 82 76 78 85 84 87 95 95 96 98 99 99 100 100 99 100 98 96 96 96 93 93 92 96 96 97 97 96 93 96 96 97
74 86 86 87 78 95 66 63 60 76 80 73 82 80 77 88 99 100 97 97 99 91 96 99 99 96 95 96 97 98 98 96 93 91 92 91 93 96 97 97 96 95 96 96
57 85 96 83 72 71 62 66 80 77 92 81 84 88 96 100 93 100 93 94 95 96 97 96 96 97 97 98 100 97 95 96 92 85 79 78 77 76 77 84 88 88 91 94
58 56 77 82 70 88 81 64 62 61 89 83 84 86 93 93 95 95 96 94 99 98 100 100 99 98 96 99 95 94 96 95 89 85 72 59 52 50 54 48 45 63 80 89
56 70 62 75 83 89 73 62 59 71 80 85 81 85 94 95 95 95 97 100 100 100 100 99 96 96 98 96 95 90 85 92 91 95 68 63 51 44 35 28 33 32 28 27
62 69 80 78 92 92 81 70 77 89 92 92 87 89 98 98 100 99 100 100 100 100 100 98 93 93 95 89 82 86 93 89 84 74 70 63 55 53 45 37 27 20 19 20
77 78 90 93 91 91 90 95 88 76 89 97 88 98 94 97 98 100 100 100 98 98 94 91 75 79 80 80 79 76 84 69 69 64 60 59 61 58 49 42 41 35 27 26
83 75 96 90 91 90 99 92 87 80 84 85 84 90 90 93 99 99 99 97 95 92 86 70 52 64 72 72 62 68 74 74 53 52 58 60 63 70 74 72 69 66 53 51
78 74 91 96 92 90 99 95 92 88 85 91 94 94 96 93 96 96 97 96 93 89 72 41 39 47 45 46 43 42 42 50 53 55 72 81 87 86 87 89 100 95 76 61
80 89 91 92 82 79 94 93 88 88 92 98 94 97 93 89 90 95 94 88 81 66 44 31 29 33 40 49 58 59 49 49 77 79 74 75 74 74 77 78 82 93 81 66

GFSCGP_850_rhum_120.txt.gz
RH
54 70 78 66 61 54 56 55 60 57 48 56 56 48 42 34 36 37 35 35 42 77 92 91 90 86 81 75 69 63 57 52 47 42 38 33 30 28 28 29 31 33 37 41
68 81 62 53 59 60 63 69 73 62 51 48 52 54 46 44 46 73 88 64 80 97 94 89 83 78 72 69 63 57 49 44 41 40 35 29 27 27 29 30 31 33 35 39
80 56 56 58 61 65 68 71 70 70 56 55 64 61 50 52 75 86 98 98 100 100 96 89 81 78 72 68 64 65 61 53 52 43 41 34 32 32 31 31 33 39 40 41
68 56 55 65 66 66 80 60 62 62 68 79 57 84 71 74 81 77 97 99 100 100 100 98 86 80 76 79 78 74 70 48 74 61 56 36 28 18 14 13 15 28 41 47
58 55 58 65 56 56 66 52 59 66 76 82 77 85 71 83 86 85 94 100 100 100 99 99 99 94 92 89 75 73 75 70 65 66 74 55 52 28 32 31 35 32 45 54
57 50 52 55 53 52 61 64 65 84 85 94 74 75 76 92 95 95 98 99 99 99 99 99 100 98 99 91 82 75 71 66 56 57 70 68 63 45 46 45 43 43 48 59
58 60 54 51 61 67 62 69 95 95 95 90 63 77 84 94 95 94 96 99 98 93 90 92 97 98 97 98 84 76 76 72 72 61 71 77 77 66 71 63 56 61 63 67
81 63 69 63 57 73 78 71 81 94 92 78 69 89 82 85 88 95 98 99 100 100 100 100 98 93 91 86 79 75 75 70 78 73 82 90 81 77 75 72 74 79 82 79
77 71 62 66 58 60 80 82 68 94 91 96 80 88 93 87 90 96 99 100 100 100 100 100 100 100 100 97 94 86 83 84 87 88 89 90 89 83 75 75 79 82 81 82
55 66 54 60 55 61 67 64 92 99 94 90 76 81 91 98 98 94 98 99 99 99 98 91 89 89 93 98 100 99 92 90 98 91 90 92 89 83 82 83 84 87 90 94
59 62 62 68 73 80 78 81 77 81 88 90 92 88 83 87 89 95 97 99 99 99 97 96 92 90 91 95 93 94 92 90 96 98 99 98 92 92 92 92 94 98 98 98
63 73 75 67 60 61 67 72 77 94 91 92 94 89 80 82 85 90 96 97 99 95 94 97 93 94 93 93 93 94 92 89 91 96 92 89 93 93 92 94 95 98 100 100
84 92 96 88 76 73 77 72 65 69 84 91 94 77 76 78 83 88 92 91 92 95 95 91 92 99 100 100 100 100 97 96 94 96 93 92 93 91 92 95 95 94 96 96
76 89 75 71 62 76 97 87 79 80 98 87 76 94 90 91 86 80 86 89 91 93 96 96 99 100 100 100 100 99 97 96 96 94 96 95 96 96 94 95 94 95 95 94
88 83 96 84 82 84 84 83 82 94 90 96 86 75 82 82 79 86 88 89 90 94 97 99 99 100 100 100 98 99 99 98 99 96 94 93 94 94 95 95 96 97 99 100
87 92 92 89 81 85 92 86 88 92 98 100 90 86 74 74 84 88 89 88 90 96 98 100 100 100 100 100 98 97 96 94 94 88 80 70 72 79 81 82 83 87 92 93
92 95 97 91 82 89 93 80 70 61 67 72 86 74 81 86 85 91 92 90 90 96 97 100 99 100 100 100 99 98 97 97 96 95 85 72 45 38 38 42 43 43 47 54
96 98 95 94 97 95 66 73 69 53 70 79 82 87 83 87 97 96 92 86 90 98 100 99 98 100 99 100 100 97 96 94 89 62 37 30 30 32 30 29 29 30 30 28
84 93 97 95 93 77 69 73 79 72 68 85 92 88 97 100 95 99 97 86 83 92 100 100 98 96 97 96 94 93 95 94 63 50 43 39 33 26 24 23 24 26 25 25
81 79 91 95 95 97 72 68 64 55 78 86 85 91 94 89 95 97 95 91 90 94 93 93 95 94 94 94 95 95 85 73 62 54 49 42 34 25 22 25 23 22 18 18
97 97 93 95 94 82 71 64 49 72 75 88 87 91 92 91 82 84 92 94 93 95 95 96 94 95 95 92 83 78 74 70 70 56 45 39 32 26 23 20 13 13 14 14
85 90 95 92 96 91 71 70 67 77 94 95 95 98 96 98 95 91 91 98 95 95 96 96 96 96 95 93 79 63 71 77 68 57 49 41 34 24 22 18 15 16 14 13
85 83 86 80 84 93 90 84 75 73 82 92 92 98 87 96 92 94 95 96 96 93 94 96 96 92 90 92 79 60 63 66 61 51 45 41 37 34 32 20 19 17 18 18
80 74 88 80 93 96 96 85 76 72 72 79 87 92 89 86 90 90 94 98 95 94 94 86 84 79 79 76 62 54 65 62 51 42 42 47 41 43 42 36 37 32 42 36
80 78 90 93 96 98 98 86 79 77 76 78 86 88 93 84 91 90 95 95 94 86 66 78 73 58 48 50 52 61 59 49 37 35 35 40 56 62 58 51 51 50 60 73
79 89 87 84 77 76 85 93 84 77 80 87 92 100 94 85 86 91 96 95 90 61 53 64 59 53 50 52 52 49 43 39 35 28 36 49 54 50 46 45 46 49 55 77

GFSCGP_850_rhum_123.txt.gz
RH
58 58 58 50 52 43 46 47 51 48 42 51 48 44 38 41 74 81 80 85 99 100 99 89 85 82 78 75 71 66 61 62 59 60 59 57 53 50 47 43 41 38 35 35
58 66 55 50 54 52 54 58 55 52 46 46 44 46 52 69 86 95 95 96 98 98 96 88 77 73 71 68 65 62 60 59 59 59 54 51 51 52 50 50 49 45 46 41
58 43 54 53 58 61 61 62 62 60 52 47 50 48 65 64 78 91 96 98 99 100 99 91 79 74 70 67 64 64 63 59 54 52 53 56 60 58 60 54 48 49 51 53
60 53 56 60 60 57 68 55 56 60 56 60 51 61 58 69 71 83 95 100 99 99 97 89 84 78 76 74 72 67 68 67 66 59 52 43 44 44 65 60 50 51 54 62
47 54 61 61 52 54 52 52 53 56 63 70 61 66 69 66 68 94 95 100 99 94 98 83 80 80 80 80 80 74 72 71 67 68 68 69 54 40 75 80 69 59 62 69
48 52 47 47 57 48 53 58 62 70 70 77 57 57 63 69 69 88 94 100 98 98 100 100 100 98 92 88 86 82 80 74 73 66 70 72 70 63 66 63 66 58 59 69
59 57 52 50 58 62 52 61 66 78 86 67 60 70 47 78 74 74 82 98 99 99 100 100 100 100 100 95 88 88 86 81 69 75 69 70 67 65 69 79 65 68 75 74
66 52 57 50 46 53 64 53 60 74 74 58 62 68 55 72 80 82 91 99 100 99 99 98 98 98 97 99 92 91 88 82 78 77 75 71 86 82 79 73 77 85 92 89
67 58 60 62 56 48 70 73 52 71 82 87 54 56 76 79 83 89 97 98 100 99 99 98 89 88 91 88 89 90 91 89 88 85 84 76 75 81 80 77 87 95 100 97
51 57 54 61 53 56 58 54 84 95 85 80 55 58 62 99 99 94 96 99 100 99 100 98 92 88 88 91 89 90 92 91 92 98 97 98 93 91 89 90 94 100 100 100
52 52 61 65 66 66 67 69 69 69 82 68 56 56 77 88 77 87 88 100 99 99 96 89 94 90 91 88 89 90 93 94 97 93 92 92 93 85 90 92 95 100 100 100
55 65 67 60 64 52 54 61 64 86 89 93 90 62 67 64 65 78 88 100 100 100 88 83 88 96 99 94 95 97 96 97 99 100 97 99 95 93 91 90 92 90 92 97
71 84 76 74 79 71 71 68 66 76 83 80 89 54 72 70 74 85 90 93 95 94 92 88 98 100 100 100 100 99 98 100 100 99 99 97 98 94 91 91 94 95 94 97
71 84 70 70 73 71 89 75 68 78 85 74 65 53 78 77 84 80 86 88 90 92 93 95 100 100 100 100 100 97 98 98 98 97 95 91 88 90 90 92 91 91 94 97
80 74 74 64 58 64 59 59 63 76 72 78 55 62 55 75 80 82 85 90 91 92 95 99 100 100 100 100 100 98 98 96 94 93 77 64 68 72 69 67 64 67 74 81
87 78 77 74 71 74 79 68 67 65 66 72 70 80 65 68 84 85 86 87 86 93 96 100 100 100 100 100 100 95 96 98 93 89 84 74 60 36 33 32 30 29 29 30
93 89 94 81 68 84 94 71 66 62 61 64 78 64 74 79 81 84 86 85 87 94 97 100 99 99 100 100 96 92 93 91 72 41 31 31 30 28 27 27 26 25 23 22
92 96 97 80 82 94 45 61 61 67 61 58 61 73 72 72 83 88 88 87 91 95 100 99 99 100 96 96 90 90 91 73 52 40 35 30 27 27 27 26 21 18 16 16
73 79 85 90 85 69 52 62 77 79 64 66 66 79 92 98 94 100 92 84 86 97 99 98 100 93 93 93 93 93 88 55 46 41 34 25 22 21 21 18 15 14 12 10
81 76 86 96 90 79 64 62 60 53 70 68 75 87 94 89 97 83 98 82 85 90 100 98 95 94 94 92 94 83 66 51 43 38 33 28 24 20 18 16 14 12 10 9
96 97 96 95 90 71 59 60 51 72 68 76 84 89 91 88 80 96 94 89 85 87 93 95 98 95 91 78 74 68 58 49 48 43 40 36 27 22 17 13 12 10 10 10
77 86 85 88 88 84 64 61 60 72 93 91 94 96 94 85 87 98 94 91 92 92 94 96 94 92 90 80 65 57 44 47 47 43 39 34 27 22 16 11 10 12 11 10
86 82 85 72 74 84 88 85 72 67 83 95 96 93 88 97 96 96 98 94 93 90 93 94 94 92 87 82 67 50 48 55 52 48 41 34 31 23 16 13 15 25 27 22
70 70 72 71 77 79 92 82 74 70 73 85 86 90 91 89 94 100 92 96 95 94 92 94 95 90 86 79 54 48 52 51 49 45 42 38 30 25 22 40 69 98 100 100
64 66 72 78 89 92 91 84 74 73 77 88 91 87 83 79 92 85 93 96 93 95 96 87 80 75 68 57 55 53 53 51 44 40 36 35 33 30 37 48 96 100 100 99
73 82 74 66 64 66 75 81 78 72 76 80 89 99 91 81 84 88 93 94 94 83 76 77 64 45 44 51 51 52 48 45 34 28 29 30 29 34 39 46 40 36 45 99

GFSCGP_850_rhum_126.txt.gz
RH
41 32 26 16 24 21 23 22 20 17 21 32 25 25 22 29 44 49 57 67 74 80 83 83 87 88 86 74 68 65 61 62 66 63 64 72 69 80 67 59 55 52 49 48
43 34 19 33 33 34 29 28 25 22 30 35 24 27 31 46 60 66 65 72 80 83 84 84 82 84 83 79 66 61 57 54 51 52 52 54 58 64 63 63 64 59 55 52
19 23 34 38 35 34 32 32 26 30 30 28 34 25 46 51 64 72 78 80 87 89 86 84 84 83 85 86 79 69 62 61 59 54 52 54 50 68 54 50 51 49 53 54
28 23 33 34 30 31 26 27 33 36 37 31 35 28 34 40 54 56 65 77 83 86 87 91 90 98 96 88 81 80 74 69 65 65 68 67 87 81 56 58 45 47 52 50
28 42 40 36 29 35 26 36 37 38 40 41 32 43 25 38 45 51 56 77 85 94 100 99 100 100 99 93 86 84 92 79 74 74 65 69 74 73 76 80 54 48 54 58
26 37 31 28 38 36 35 41 43 44 41 46 27 34 19 40 36 44 54 70 80 95 98 100 98 98 99 98 98 94 96 90 84 79 74 72 70 68 78 76 80 54 61 67
34 38 33 36 39 42 38 41 43 39 48 34 39 39 26 34 40 44 54 65 86 95 100 99 100 100 100 99 98 98 98 98 85 78 76 76 77 74 67 61 68 69 62 76
43 46 37 35 31 32 42 38 36 39 30 30 41 46 38 41 49 57 59 69 88 100 98 100 100 100 97 97 89 92 97 97 86 80 77 86 77 86 80 78 76 82 76 90
35 28 34 40 33 32 47 57 32 41 39 61 32 25 58 59 68 64 67 78 93 100 99 100 100 99 97 99 90 85 89 92 86 86 81 79 82 87 91 96 92 97 91 94
32 30 36 49 42 38 43 35 67 58 61 55 28 28 37 82 90 72 70 82 94 100 100 99 92 95 100 100 94 90 90 88 89 92 88 92 89 89 93 96 92 99 99 99
29 33 43 52 50 39 52 55 52 46 47 50 42 36 64 78 61 72 70 81 98 99 93 90 86 88 98 100 99 99 94 93 95 93 93 94 95 89 92 97 95 94 100 99
38 41 40 44 29 32 30 35 40 68 65 67 68 53 37 38 45 51 57 77 100 92 88 80 80 85 96 100 100 100 96 93 90 93 93 94 93 92 100 98 100 99 100 100
50 62 61 45 49 46 47 37 36 44 50 71 79 47 46 44 44 50 59 89 94 89 79 75 79 87 98 100 100 99 96 93 95 95 94 91 90 91 92 97 98 100 100 100
58 47 55 49 47 60 93 66 54 57 90 61 50 38 29 47 51 60 74 89 88 83 77 72 80 92 100 100 100 99 99 99 96 84 80 72 63 62 55 56 70 78 92 92
48 54 40 38 36 38 53 51 43 51 56 71 49 39 28 26 42 57 73 82 82 80 76 78 82 97 100 100 100 100 98 96 94 92 89 87 58 36 34 33 40 49 53 65
55 55 43 44 34 36 38 35 33 34 35 38 39 43 29 30 44 59 75 89 80 78 76 82 86 100 100 100 100 100 100 95 80 65 49 41 33 30 28 27 26 36 50 48
66 64 62 62 39 48 68 46 38 35 32 37 46 33 24 34 51 68 83 77 77 84 92 87 95 100 100 100 100 100 100 94 67 47 32 28 28 27 24 21 18 21 22 21
62 70 66 66 62 90 35 30 33 33 34 33 35 32 32 38 51 67 76 77 83 88 87 96 100 100 100 100 100 100 98 88 77 39 27 22 22 20 18 13 11 12 15 13
52 59 82 78 55 40 32 34 65 69 47 33 41 36 39 60 77 84 81 85 93 93 99 100 100 99 91 91 100 99 68 80 51 26 21 19 17 15 14 12 11 12 16 16
49 54 69 61 69 64 51 26 42 47 65 30 37 38 70 80 89 76 95 98 100 100 99 99 96 91 90 92 94 81 64 45 29 28 25 22 16 12 12 15 13 16 22 27
86 90 90 80 76 50 42 44 45 71 52 49 51 58 73 83 82 92 100 100 96 95 100 98 91 89 89 86 76 62 58 39 57 36 27 20 18 16 18 25 23 27 22 24
53 65 86 86 87 87 54 51 54 71 72 68 77 79 87 99 100 100 100 100 99 100 100 96 94 92 96 90 71 51 39 44 40 34 23 19 19 24 28 41 62 54 76 84
72 70 63 65 55 66 50 66 76 71 67 79 86 91 100 100 100 100 100 100 99 100 100 100 100 100 98 89 88 91 93 68 55 32 25 22 21 28 67 88 99 98 100 100
48 53 65 68 53 56 70 75 72 72 74 86 91 97 100 100 100 100 100 100 100 100 100 100 100 98 96 93 88 89 91 88 85 84 85 88 59 77 93 88 91 96 98 100
50 55 57 73 66 67 67 73 72 80 83 89 93 98 98 98 100 100 100 100 100 100 100 98 95 96 96 88 83 76 79 74 72 73 81 84 82 84 78 35 65 99 99 97
61 77 69 61 49 50 66 71 82 86 89 95 95 100 100 100 99 100 100 100 100 100 100 100 100 96 88 86 68 70 52 67 70 72 78 66 80 78 76 77 96 30 53 80